[[{"header":{"parameterUnit":"m.s-1","parameterCategory":1,"la1":31.0,"la2":29.5877,"lo1":-88.7671,"lo2":-86.6584,"dy":0.0162,"dx":0.0185,"nx":115,"ny":88,"refTime":"2026-04-09T18:00:00:Z","depth":0,"parameterNumber":2,"parameterNumberName":"U-component_of_WINDS"},"data":[0.0,0.0,0.0,0.0,0.0,0.0,0.0,0.0,0.0,0.0,0.0,0.0,0.0,0.0,0.0,0.0,0.0,0.0,0.0,0.0,0.0,0.0,0.0,0.0,0.0,0.0,0.0,0.0,0.0,0.0,0.0,0.0,0.0,0.0,0.0,0.0,0.0,0.0,0.0,0.0,0.0,0.0,0.0,0.0,0.0,0.0,0.0,0.0,0.0,0.0,0.0,0.0,0.0,0.0,0.0,0.0,0.0,0.0,0.0,0.0,0.0,0.0,0.0,0.0,0.0,0.0,0.0,0.0,0.0,0.0,0.0,0.0,0.0,0.0,0.0,0.0,0.0,0.0,0.0,0.0,0.0,0.0,0.0,0.0,0.0,0.0,0.0,0.0,0.0,0.0,0.0,0.0,0.0,0.0,0.0,0.0,0.0,0.0,0.0,0.0,0.0,0.0,0.0,0.0,0.0,0.0,0.0,0.0,0.0,0.0,0.0,0.0,0.0,0.0,0.0,0.0,0.0,0.0,0.0,0.0,0.0,0.0,0.0,0.0,0.0,0.0,0.0,0.0,0.0,0.0,0.0,0.0,0.0,0.0,0.0,0.0,0.0,0.0,0.0,0.0,0.0,0.0,0.0,0.0,0.0,0.0,0.0,0.0,0.0,0.0,0.0,0.0,0.0,0.0,0.0,0.0,0.0,0.0,0.0,0.0,0.0,0.0,0.0,0.0,0.0,0.0,0.0,0.0,0.0,0.0,0.0,0.0,0.0,0.0,0.0,0.0,0.0,0.0,0.0,0.0,0.0,0.0,0.0,0.0,0.0,0.0,0.0,0.0,0.0,0.0,0.0,0.0,0.0,0.0,0.0,0.0,0.0,0.0,0.0,0.0,0.0,0.0,0.0,0.0,0.0,0.0,0.0,0.0,0.0,0.0,0.0,0.0,0.0,0.0,0.0,0.0,0.0,0.0,0.0,0.0,0.0,0.0,0.0,0.0,0.0,0.0,0.0,0.0,0.0,0.0,0.0,0.0,0.0,0.0,0.0,0.0,0.0,0.0,0.0,0.0,0.0,0.0,0.0,0.0,0.0,0.0,0.0,0.0,0.0,0.0,0.0,0.0,0.0,0.0,0.0,0.0,0.0,0.0,0.0,0.0,0.0,0.0,0.0,0.0,0.0,0.0,0.0,0.0,0.0,0.0,0.0,0.0,0.0,0.0,0.0,0.0,0.0,0.0,0.0,0.0,0.0,0.0,0.0,0.0,0.0,0.0,0.0,0.0,0.0,0.0,0.0,0.0,0.0,0.0,0.0,0.0,0.0,0.0,0.0,0.0,0.0,0.0,0.0,0.0,0.0,0.0,0.0,0.0,0.0,0.0,0.0,0.0,0.0,0.0,0.0,0.0,0.0,0.0,0.0,0.0,0.0,0.0,0.0,0.0,0.0,0.0,0.0,0.0,0.0,0.0,0.0,0.0,0.0,0.0,0.0,0.0,0.0,0.0,0.0,0.0,0.0,0.0,0.0,0.0,0.0,0.0,0.0,0.0,0.0,0.0,0.0,0.0,0.0,0.0,0.0,0.0,0.0,0.0,0.0,0.0,0.0,0.0,0.0,0.0,0.0,0.0,0.0,0.0,0.0,0.0,0.0,0.0,0.0,0.0,0.0,0.0,0.0,0.0,0.0,0.0,0.0,0.0,0.0,0.0,0.0,0.0,0.0,0.0,0.0,0.0,0.0,0.0,0.0,0.0,0.0,0.0,0.0,0.0,0.0,0.0,0.0,0.0,0.0,0.0,0.0,0.0,0.0,0.0,0.0,0.0,0.0,0.0,0.0,0.0,0.0,0.0,0.0,0.0,0.0,0.0,0.0,0.0,0.0,0.0,0.0,0.0,0.0,0.0,0.0,0.0,0.0,0.0,0.0,0.0,0.0,0.0,0.0,0.0,0.0,0.0,0.0,0.0,0.0,0.0,0.0,0.0,0.0,0.0,0.0,0.0,0.0,0.0,0.0,0.0,0.0,0.0,0.0,0.0,0.0,0.0,0.0,0.0,0.0,0.0,0.0,0.0,0.0,0.0,0.0,0.0,0.0,0.0,0.0,0.0,0.0,0.0,0.0,0.0,0.0,0.0,0.0,0.0,0.0,0.0,0.0,0.0,0.0,0.0,0.0,0.0,0.0,0.0,0.0,0.0,0.0,0.0,0.0,0.0,0.0,0.0,0.0,0.0,0.0,0.0,0.0,0.0,0.0,0.0,0.0,0.0,0.0,0.0,0.0,0.0,0.0,0.0,0.0,0.0,0.0,0.0,0.0,0.0,0.0,0.0,0.0,0.0,0.0,0.0,0.0,0.0,0.0,0.0,0.0,0.0,0.0,0.0,0.0,0.0,0.0,0.0,0.0,0.0,0.0,0.0,0.0,0.0,0.0,0.0,0.0,0.0,0.0,0.0,0.0,0.0,0.0,0.0,0.0,0.0,0.0,0.0,0.0,0.0,0.0,0.0,0.0,0.0,0.0,0.0,0.0,0.0,0.0,0.0,0.0,0.0,0.0,0.0,0.0,0.0,0.0,0.0,0.0,0.0,0.0,0.0,0.0,0.0,0.0,0.0,0.0,0.0,0.0,0.0,0.0,0.0,0.0,0.0,0.0,0.0,0.0,0.0,0.0,0.0,0.0,0.0,0.0,0.0,0.0,0.0,0.0,0.0,0.0,0.0,0.0,0.0,0.0,0.0,0.0,0.0,0.0,0.0,0.0,0.0,0.0,0.0,0.0,0.0,0.0,0.0,0.0,0.0,0.0,0.0,0.0,0.0,0.0,0.0,0.0,0.0,0.0,0.0,0.0,0.0,0.0,0.0,0.0,0.0,0.0,0.0,0.0,0.0,0.0,0.0,0.0,0.0,0.0,0.0,0.0,0.0,0.0,0.0,0.0,0.0,0.0,0.0,0.0,0.0,0.0,0.0,0.0,0.0,0.0,0.0,0.0,0.0,0.0,0.0,0.0,0.0,0.0,0.0,0.0,0.0,0.0,0.0,0.0,0.0,0.0,0.0,0.0,0.0,0.0,0.0,0.0,0.0,0.0,0.0,0.0,0.0,0.0,0.0,0.0,0.0,0.0,0.0,0.0,0.0,0.0,0.0,0.0,0.0,0.0,0.0,0.0,0.0,0.0,0.0,0.0,0.0,0.0,0.0,0.0,0.0,0.0,0.0,0.0,0.0,0.0,0.0,0.0,0.0,0.0,0.0,0.0,0.0,0.0,0.0,0.0,0.0,0.0,0.0,0.0,0.0,0.0,0.0,0.0,0.0,0.0,0.0,0.0,0.0,0.0,0.0,0.0,0.0,0.0,0.0,0.0,0.0,0.0,0.0,0.0,0.0,0.0,0.0,0.0,0.0,0.0,0.0,0.0,0.0,0.0,0.0,0.0,0.0,0.0,0.0,0.0,0.0,0.0,0.0,0.0,0.0,0.0,0.0,0.0,0.0,0.0,0.0,0.0,0.0,0.0,0.0,0.0,0.0,0.0,0.0,0.0,0.0,0.0,0.0,0.0,0.0,0.0,0.0,0.0,0.0,0.0,0.0,0.0,0.0,0.0,0.0,0.0,0.0,0.0,0.0,0.0,0.0,0.0,0.0,0.0,0.0,0.0,0.0,0.0,0.0,0.0,0.0,0.0,0.0,0.0,0.0,0.0,0.0,0.0,0.0,0.0,0.0,0.0,0.0,0.0,0.0,0.0,0.0,0.0,0.0,0.0,0.0,0.0,0.0,0.0,0.0,0.0,0.0,0.0,0.0,0.0,0.0,0.0,0.0,0.0,0.0,0.0,0.0,0.0,0.0,0.0,0.0,0.0,0.0,0.0,0.0,0.0,0.0,0.0,0.0,0.0,0.0,0.0,0.0,0.0,0.0,0.0,0.0,0.0,0.0,0.0,0.0,0.0,0.0,0.0,0.0,0.0,0.0,0.0,0.0,0.0,0.0,0.0,0.0,0.0,0.0,0.0,0.0,0.0,0.0,0.0,0.0,0.0,0.0,0.0,0.0,0.0,0.0,0.0,0.0,0.0,0.0,0.0,0.0,0.0,0.0,0.0,0.0,0.0,0.0,0.0,0.0,0.0,0.0,0.0,0.0,0.0,0.0,0.0,0.0,0.0,0.0,0.0,0.0,0.0,0.0,0.0,0.0,0.0,0.0,0.0,0.0,0.0,0.0,0.0,0.0,0.0,0.0,0.0,0.0,0.0,0.0,0.0,0.0,0.0,0.0,0.0,0.0,0.0,0.0,-5.0618,0.0,0.0,0.0,0.0,0.0,0.0,0.0,0.0,0.0,0.0,0.0,0.0,0.0,0.0,0.0,0.0,0.0,0.0,0.0,0.0,0.0,0.0,0.0,0.0,0.0,0.0,0.0,0.0,0.0,0.0,0.0,0.0,0.0,0.0,0.0,0.0,0.0,0.0,0.0,0.0,0.0,0.0,0.0,0.0,0.0,0.0,0.0,0.0,0.0,0.0,0.0,0.0,0.0,0.0,0.0,0.0,0.0,0.0,0.0,0.0,0.0,0.0,0.0,0.0,0.0,0.0,0.0,0.0,0.0,0.0,0.0,0.0,0.0,0.0,0.0,0.0,0.0,0.0,0.0,0.0,0.0,0.0,0.0,0.0,0.0,0.0,0.0,0.0,0.0,0.0,0.0,0.0,0.0,0.0,0.0,0.0,0.0,0.0,0.0,0.0,0.0,0.0,0.0,0.0,0.0,0.0,0.0,0.0,0.0,0.0,-5.3203,-5.3167,-5.2821,-5.2087,-5.0802,0.0,0.0,0.0,0.0,0.0,0.0,0.0,0.0,0.0,0.0,0.0,0.0,0.0,0.0,0.0,0.0,0.0,0.0,0.0,0.0,0.0,0.0,0.0,0.0,0.0,0.0,0.0,0.0,0.0,0.0,0.0,0.0,0.0,0.0,0.0,0.0,0.0,0.0,0.0,0.0,0.0,0.0,0.0,0.0,0.0,0.0,0.0,0.0,0.0,0.0,0.0,0.0,0.0,0.0,0.0,0.0,0.0,0.0,0.0,0.0,0.0,0.0,0.0,0.0,0.0,0.0,0.0,0.0,0.0,0.0,0.0,0.0,0.0,0.0,0.0,0.0,0.0,0.0,0.0,0.0,0.0,0.0,0.0,0.0,0.0,0.0,0.0,0.0,0.0,0.0,0.0,0.0,0.0,0.0,0.0,0.0,0.0,0.0,0.0,0.0,0.0,0.0,0.0,0.0,0.0,0.0,0.0,0.0,0.0,0.0,0.0,0.0,-5.3775,-5.2821,-5.0839,0.0,0.0,0.0,0.0,0.0,0.0,0.0,0.0,0.0,0.0,0.0,0.0,0.0,0.0,0.0,0.0,0.0,0.0,0.0,0.0,0.0,0.0,0.0,0.0,0.0,0.0,0.0,0.0,0.0,0.0,0.0,0.0,0.0,0.0,0.0,0.0,0.0,0.0,0.0,0.0,0.0,0.0,0.0,0.0,0.0,0.0,0.0,0.0,0.0,0.0,0.0,0.0,0.0,0.0,0.0,0.0,0.0,0.0,0.0,0.0,0.0,0.0,0.0,0.0,0.0,0.0,0.0,0.0,0.0,0.0,0.0,0.0,0.0,0.0,0.0,0.0,0.0,0.0,0.0,0.0,0.0,0.0,0.0,0.0,0.0,0.0,0.0,0.0,0.0,0.0,0.0,0.0,0.0,0.0,0.0,0.0,0.0,0.0,0.0,0.0,0.0,0.0,0.0,0.0,0.0,0.0,0.0,0.0,0.0,0.0,-5.3885,-5.5317,-5.5317,0.0,-5.0986,0.0,0.0,0.0,0.0,0.0,0.0,0.0,0.0,0.0,0.0,0.0,0.0,0.0,0.0,0.0,0.0,0.0,0.0,0.0,0.0,0.0,0.0,0.0,0.0,0.0,0.0,0.0,0.0,0.0,0.0,0.0,0.0,0.0,0.0,0.0,0.0,0.0,0.0,0.0,0.0,0.0,0.0,0.0,0.0,0.0,0.0,0.0,0.0,0.0,0.0,0.0,0.0,0.0,0.0,0.0,0.0,0.0,0.0,0.0,0.0,0.0,0.0,0.0,0.0,0.0,0.0,0.0,0.0,0.0,0.0,0.0,0.0,0.0,0.0,0.0,0.0,0.0,0.0,0.0,0.0,0.0,0.0,0.0,0.0,0.0,0.0,0.0,0.0,0.0,0.0,0.0,0.0,0.0,0.0,0.0,0.0,0.0,0.0,0.0,0.0,0.0,0.0,0.0,0.0,0.0,0.0,0.0,0.0,0.0,0.0,-5.4693,-5.4876,-5.3518,-5.1903,0.0,0.0,0.0,0.0,0.0,0.0,0.0,0.0,0.0,0.0,0.0,0.0,0.0,0.0,0.0,0.0,0.0,0.0,0.0,0.0,0.0,0.0,0.0,0.0,0.0,0.0,0.0,0.0,0.0,0.0,0.0,0.0,0.0,0.0,0.0,0.0,0.0,0.0,0.0,0.0,0.0,0.0,0.0,0.0,0.0,0.0,0.0,0.0,0.0,0.0,0.0,0.0,0.0,0.0,0.0,0.0,0.0,0.0,0.0,0.0,0.0,0.0,0.0,0.0,0.0,0.0,0.0,0.0,0.0,0.0,0.0,0.0,0.0,0.0,0.0,0.0,0.0,0.0,0.0,0.0,0.0,0.0,0.0,0.0,0.0,0.0,0.0,0.0,0.0,0.0,0.0,0.0,0.0,0.0,0.0,0.0,0.0,0.0,0.0,0.0,0.0,0.0,0.0,0.0,0.0,0.0,0.0,0.0,0.0,0.0,-5.5119,-5.5339,-5.4899,-5.3045,-5.1103,-4.9238,0.0,0.0,0.0,0.0,0.0,0.0,0.0,0.0,0.0,0.0,0.0,0.0,0.0,0.0,0.0,0.0,0.0,0.0,0.0,0.0,0.0,0.0,0.0,0.0,0.0,0.0,0.0,0.0,0.0,0.0,0.0,0.0,0.0,0.0,0.0,0.0,0.0,0.0,0.0,0.0,0.0,0.0,0.0,0.0,0.0,0.0,0.0,0.0,0.0,0.0,0.0,0.0,0.0,0.0,0.0,0.0,0.0,0.0,0.0,0.0,0.0,0.0,0.0,0.0,0.0,0.0,0.0,0.0,0.0,0.0,0.0,0.0,0.0,0.0,0.0,0.0,0.0,0.0,0.0,0.0,0.0,0.0,0.0,0.0,0.0,0.0,0.0,0.0,0.0,0.0,0.0,0.0,0.0,0.0,0.0,0.0,0.0,0.0,0.0,0.0,0.0,0.0,0.0,0.0,0.0,0.0,0.0,0.0,-5.7133,-5.5929,-5.5564,-5.6244,-5.5454,-5.2828,0.0,0.0,0.0,0.0,0.0,0.0,0.0,0.0,0.0,0.0,0.0,0.0,0.0,0.0,0.0,0.0,0.0,0.0,0.0,0.0,0.0,0.0,0.0,0.0,0.0,0.0,0.0,0.0,0.0,0.0,0.0,0.0,0.0,0.0,0.0,0.0,0.0,0.0,0.0,0.0,0.0,0.0,0.0,0.0,0.0,0.0,0.0,0.0,0.0,0.0,0.0,0.0,0.0,0.0,0.0,0.0,0.0,0.0,0.0,0.0,0.0,0.0,0.0,0.0,0.0,0.0,0.0,0.0,0.0,0.0,0.0,0.0,0.0,0.0,0.0,0.0,0.0,0.0,0.0,0.0,0.0,0.0,0.0,0.0,0.0,0.0,0.0,0.0,0.0,0.0,0.0,0.0,0.0,0.0,0.0,0.0,0.0,0.0,0.0,0.0,0.0,0.0,0.0,0.0,0.0,0.0,0.0,0.0,0.0,-5.4447,-5.4447,-5.5322,-5.6926,-5.3425,-5.0402,0.0,0.0,0.0,0.0,0.0,0.0,0.0,0.0,0.0,0.0,0.0,0.0,0.0,0.0,0.0,0.0,0.0,0.0,0.0,0.0,0.0,0.0,0.0,0.0,0.0,0.0,0.0,0.0,0.0,0.0,0.0,0.0,0.0,0.0,0.0,0.0,0.0,0.0,0.0,0.0,0.0,0.0,0.0,0.0,0.0,0.0,0.0,0.0,0.0,0.0,0.0,0.0,0.0,0.0,0.0,0.0,0.0,0.0,0.0,0.0,0.0,0.0,0.0,0.0,0.0,0.0,0.0,0.0,0.0,0.0,0.0,0.0,0.0,0.0,0.0,0.0,0.0,0.0,0.0,0.0,0.0,0.0,0.0,0.0,0.0,0.0,0.0,0.0,0.0,0.0,0.0,0.0,0.0,0.0,0.0,0.0,0.0,0.0,0.0,0.0,0.0,0.0,0.0,0.0,0.0,0.0,0.0,0.0,0.0,-5.3145,0.0,-5.516,-5.5776,-5.2164,-4.8974,0.0,0.0,0.0,0.0,0.0,0.0,0.0,0.0,0.0,0.0,0.0,0.0,0.0,0.0,0.0,0.0,0.0,0.0,0.0,0.0,0.0,0.0,0.0,0.0,0.0,0.0,0.0,0.0,0.0,0.0,0.0,0.0,0.0,0.0,0.0,0.0,0.0,0.0,0.0,0.0,0.0,0.0,0.0,0.0,0.0,0.0,0.0,0.0,0.0,0.0,0.0,0.0,0.0,0.0,0.0,0.0,0.0,0.0,0.0,0.0,0.0,0.0,0.0,0.0,0.0,0.0,0.0,0.0,0.0,0.0,0.0,0.0,0.0,0.0,0.0,0.0,0.0,0.0,0.0,0.0,0.0,0.0,0.0,0.0,0.0,0.0,0.0,0.0,0.0,0.0,0.0,0.0,0.0,0.0,0.0,0.0,0.0,0.0,0.0,0.0,0.0,0.0,0.0,0.0,0.0,0.0,0.0,0.0,-5.1515,-5.3787,-5.5348,-5.5098,-5.2896,-5.2058,-4.878,0.0,0.0,0.0,0.0,0.0,0.0,0.0,0.0,0.0,0.0,0.0,0.0,0.0,0.0,0.0,0.0,0.0,0.0,0.0,0.0,0.0,0.0,0.0,0.0,0.0,0.0,0.0,0.0,0.0,0.0,0.0,0.0,0.0,0.0,0.0,0.0,0.0,0.0,0.0,0.0,0.0,0.0,0.0,0.0,0.0,0.0,0.0,0.0,0.0,0.0,0.0,0.0,0.0,0.0,0.0,0.0,0.0,0.0,0.0,0.0,0.0,0.0,0.0,0.0,0.0,0.0,0.0,0.0,0.0,0.0,0.0,0.0,0.0,0.0,0.0,0.0,0.0,0.0,0.0,0.0,0.0,0.0,0.0,0.0,0.0,0.0,0.0,0.0,0.0,0.0,0.0,0.0,0.0,0.0,0.0,0.0,0.0,0.0,0.0,0.0,0.0,0.0,0.0,0.0,0.0,0.0,0.0,0.0,0.0,-5.2315,-5.345,-5.4378,-5.4955,-5.1431,-4.8377,0.0,0.0,0.0,0.0,0.0,0.0,0.0,0.0,0.0,0.0,0.0,0.0,0.0,0.0,0.0,0.0,0.0,0.0,0.0,0.0,0.0,0.0,0.0,0.0,0.0,0.0,0.0,0.0,0.0,0.0,0.0,0.0,0.0,0.0,0.0,0.0,0.0,0.0,0.0,0.0,0.0,0.0,0.0,0.0,0.0,0.0,0.0,0.0,0.0,0.0,0.0,0.0,0.0,0.0,0.0,0.0,0.0,0.0,0.0,0.0,0.0,0.0,0.0,0.0,0.0,0.0,0.0,0.0,0.0,0.0,0.0,0.0,0.0,0.0,0.0,0.0,0.0,0.0,0.0,0.0,0.0,0.0,0.0,0.0,0.0,0.0,0.0,0.0,0.0,0.0,0.0,0.0,0.0,0.0,0.0,0.0,0.0,0.0,0.0,0.0,0.0,0.0,0.0,0.0,0.0,0.0,0.0,0.0,0.0,-5.2232,-5.3369,-5.4255,-5.5021,-5.1129,-4.8186,-4.6401,0.0,0.0,0.0,0.0,0.0,0.0,0.0,0.0,0.0,0.0,0.0,0.0,0.0,0.0,0.0,0.0,0.0,0.0,0.0,0.0,0.0,0.0,0.0,0.0,0.0,0.0,0.0,0.0,0.0,0.0,0.0,0.0,0.0,0.0,0.0,0.0,0.0,0.0,0.0,0.0,0.0,0.0,0.0,0.0,0.0,0.0,0.0,0.0,0.0,0.0,0.0,0.0,0.0,0.0,0.0,0.0,0.0,0.0,0.0,0.0,0.0,0.0,0.0,0.0,0.0,0.0,0.0,0.0,0.0,0.0,0.0,0.0,0.0,0.0,0.0,0.0,0.0,0.0,0.0,0.0,0.0,0.0,0.0,0.0,0.0,0.0,0.0,0.0,0.0,0.0,0.0,0.0,0.0,0.0,0.0,0.0,0.0,0.0,0.0,0.0,0.0,0.0,0.0,0.0,0.0,0.0,0.0,0.0,-5.3329,-5.4881,-5.5019,-5.3542,-5.1291,-4.8321,0.0,0.0,0.0,0.0,0.0,0.0,0.0,0.0,0.0,0.0,0.0,0.0,0.0,0.0,0.0,0.0,0.0,0.0,0.0,0.0,0.0,0.0,0.0,0.0,0.0,0.0,0.0,0.0,0.0,0.0,0.0,0.0,0.0,0.0,0.0,0.0,0.0,0.0,0.0,0.0,0.0,0.0,0.0,0.0,0.0,0.0,0.0,0.0,0.0,0.0,0.0,0.0,0.0,0.0,0.0,0.0,0.0,0.0,0.0,0.0,0.0,0.0,0.0,0.0,0.0,0.0,0.0,0.0,0.0,0.0,0.0,0.0,0.0,0.0,0.0,0.0,0.0,0.0,0.0,0.0,0.0,0.0,0.0,0.0,0.0,0.0,0.0,0.0,0.0,0.0,0.0,0.0,0.0,0.0,0.0,0.0,0.0,0.0,0.0,0.0,0.0,0.0,0.0,0.0,0.0,0.0,0.0,0.0,0.0,-5.4227,-5.6777,-5.7873,-5.7292,-5.316,-4.9909,0.0,0.0,0.0,0.0,0.0,0.0,0.0,0.0,0.0,0.0,0.0,0.0,0.0,0.0,0.0,0.0,0.0,0.0,0.0,0.0,0.0,0.0,0.0,0.0,0.0,0.0,0.0,0.0,0.0,0.0,0.0,0.0,0.0,0.0,0.0,0.0,0.0,0.0,0.0,0.0,0.0,0.0,0.0,0.0,0.0,0.0,0.0,0.0,0.0,0.0,0.0,0.0,0.0,0.0,0.0,0.0,0.0,0.0,0.0,0.0,0.0,0.0,0.0,0.0,0.0,0.0,0.0,0.0,0.0,0.0,0.0,0.0,0.0,0.0,0.0,0.0,0.0,0.0,0.0,0.0,0.0,0.0,0.0,0.0,0.0,0.0,0.0,0.0,0.0,0.0,0.0,0.0,0.0,0.0,0.0,0.0,0.0,0.0,0.0,0.0,0.0,0.0,0.0,0.0,0.0,0.0,0.0,0.0,-5.3281,-5.5513,-5.8457,-5.9794,-5.9414,-5.5315,-5.1792,0.0,0.0,0.0,0.0,0.0,0.0,0.0,0.0,0.0,0.0,0.0,0.0,0.0,0.0,0.0,0.0,0.0,0.0,0.0,0.0,0.0,0.0,0.0,0.0,0.0,0.0,0.0,0.0,0.0,0.0,0.0,0.0,0.0,0.0,0.0,0.0,0.0,0.0,0.0,0.0,0.0,0.0,0.0,0.0,0.0,0.0,0.0,0.0,0.0,0.0,0.0,0.0,0.0,0.0,0.0,0.0,0.0,0.0,0.0,0.0,0.0,0.0,0.0,0.0,0.0,0.0,0.0,0.0,0.0,0.0,0.0,0.0,0.0,0.0,0.0,0.0,0.0,0.0,0.0,0.0,0.0,0.0,0.0,0.0,0.0,0.0,0.0,0.0,0.0,0.0,0.0,0.0,0.0,0.0,0.0,0.0,0.0,0.0,0.0,0.0,0.0,0.0,0.0,0.0,0.0,0.0,0.0,0.0,-5.4633,-5.6829,-5.9802,-6.0917,-6.0005,-5.7236,-5.3653,0.0,0.0,0.0,0.0,0.0,0.0,0.0,0.0,0.0,0.0,0.0,0.0,0.0,0.0,0.0,0.0,0.0,0.0,0.0,0.0,0.0,0.0,0.0,0.0,0.0,0.0,0.0,0.0,0.0,0.0,0.0,0.0,0.0,0.0,0.0,0.0,0.0,0.0,0.0,0.0,0.0,0.0,0.0,0.0,0.0,0.0,0.0,0.0,0.0,0.0,0.0,0.0,0.0,0.0,0.0,0.0,0.0,0.0,0.0,0.0,0.0,0.0,0.0,0.0,0.0,0.0,0.0,0.0,0.0,0.0,0.0,0.0,0.0,0.0,0.0,0.0,0.0,0.0,0.0,0.0,0.0,0.0,0.0,0.0,0.0,0.0,0.0,0.0,0.0,0.0,0.0,0.0,0.0,0.0,0.0,0.0,0.0,0.0,0.0,0.0,0.0,0.0,0.0,0.0,0.0,0.0,0.0,0.0,-5.4986,-5.7167,-6.0086,-6.0958,-5.965,-5.7058,-5.3856,0.0,0.0,0.0,0.0,0.0,0.0,0.0,0.0,0.0,0.0,0.0,0.0,0.0,0.0,0.0,0.0,0.0,0.0,0.0,0.0,0.0,0.0,0.0,0.0,0.0,0.0,0.0,0.0,0.0,0.0,0.0,0.0,0.0,0.0,0.0,0.0,0.0,0.0,0.0,0.0,0.0,0.0,0.0,0.0,0.0,0.0,0.0,0.0,-4.9117,0.0,0.0,0.0,0.0,0.0,0.0,0.0,0.0,0.0,0.0,0.0,0.0,0.0,0.0,0.0,0.0,0.0,0.0,0.0,0.0,0.0,0.0,0.0,0.0,0.0,0.0,0.0,0.0,0.0,0.0,0.0,0.0,0.0,0.0,0.0,0.0,0.0,0.0,0.0,0.0,0.0,0.0,0.0,0.0,0.0,0.0,0.0,0.0,0.0,0.0,0.0,0.0,0.0,0.0,0.0,0.0,0.0,0.0,0.0,-5.595,-5.7825,-6.037,-6.1006,-5.9533,-5.751,-5.456,0.0,0.0,0.0,0.0,0.0,0.0,0.0,0.0,0.0,0.0,0.0,0.0,0.0,0.0,0.0,0.0,0.0,0.0,0.0,0.0,0.0,0.0,0.0,0.0,0.0,0.0,0.0,0.0,0.0,0.0,0.0,0.0,0.0,0.0,0.0,0.0,0.0,0.0,0.0,0.0,0.0,0.0,0.0,0.0,0.0,0.0,0.0,0.0,0.0,0.0,0.0,0.0,0.0,0.0,0.0,0.0,0.0,0.0,0.0,0.0,0.0,0.0,0.0,0.0,0.0,0.0,0.0,0.0,0.0,0.0,0.0,0.0,0.0,0.0,0.0,0.0,0.0,0.0,0.0,0.0,0.0,0.0,0.0,0.0,0.0,0.0,0.0,0.0,0.0,0.0,0.0,0.0,0.0,0.0,0.0,0.0,0.0,0.0,0.0,0.0,0.0,0.0,0.0,0.0,0.0,0.0,0.0,-5.3737,-5.6542,-5.8446,-6.0518,-6.0886,-5.9449,-5.7983,-5.5214,-5.0994,0.0,0.0,0.0,0.0,0.0,0.0,0.0,0.0,0.0,0.0,0.0,0.0,0.0,0.0,0.0,0.0,0.0,0.0,0.0,0.0,0.0,0.0,0.0,0.0,0.0,0.0,0.0,0.0,0.0,0.0,0.0,0.0,0.0,0.0,0.0,0.0,0.0,0.0,-4.2828,-4.4319,0.0,0.0,0.0,0.0,0.0,0.0,0.0,0.0,-4.7688,0.0,0.0,0.0,0.0,0.0,0.0,0.0,0.0,0.0,0.0,0.0,0.0,0.0,0.0,0.0,0.0,0.0,0.0,0.0,0.0,0.0,0.0,0.0,0.0,0.0,0.0,0.0,0.0,0.0,0.0,0.0,0.0,0.0,0.0,0.0,0.0,0.0,0.0,0.0,0.0,0.0,0.0,0.0,0.0,0.0,0.0,0.0,0.0,0.0,0.0,0.0,0.0,0.0,0.0,0.0,0.0,-5.1816,-5.2646,-5.4903,-5.8754,-6.0373,-6.0513,-5.9013,-5.7559,-5.4811,-5.0693,0.0,0.0,0.0,0.0,0.0,0.0,0.0,0.0,0.0,0.0,0.0,0.0,0.0,0.0,0.0,0.0,0.0,0.0,0.0,0.0,0.0,0.0,0.0,0.0,0.0,0.0,0.0,0.0,0.0,0.0,0.0,0.0,0.0,0.0,0.0,0.0,0.0,0.0,0.0,-4.6819,-4.7665,0.0,0.0,0.0,0.0,0.0,0.0,0.0,0.0,-4.8195,0.0,0.0,0.0,0.0,0.0,0.0,0.0,0.0,0.0,0.0,0.0,0.0,0.0,0.0,0.0,0.0,0.0,0.0,0.0,0.0,0.0,0.0,0.0,0.0,0.0,0.0,0.0,0.0,0.0,0.0,0.0,0.0,0.0,0.0,0.0,0.0,0.0,0.0,0.0,0.0,0.0,0.0,0.0,0.0,0.0,0.0,0.0,0.0,0.0,0.0,0.0,0.0,0.0,0.0,0.0,-4.9853,-5.2442,-5.494,-5.7343,-5.8443,-5.8508,-5.744,-5.4672,-5.208,0.0,0.0,0.0,0.0,0.0,0.0,0.0,0.0,0.0,0.0,0.0,0.0,0.0,0.0,0.0,0.0,0.0,0.0,0.0,0.0,0.0,0.0,0.0,0.0,0.0,0.0,0.0,0.0,0.0,0.0,0.0,0.0,0.0,0.0,0.0,0.0,0.0,0.0,0.0,0.0,-4.7192,-4.8263,-4.9248,0.0,0.0,0.0,0.0,0.0,0.0,-4.8066,-4.7908,0.0,0.0,0.0,0.0,0.0,0.0,0.0,0.0,0.0,0.0,0.0,0.0,0.0,0.0,0.0,0.0,0.0,0.0,0.0,0.0,0.0,0.0,0.0,0.0,0.0,0.0,0.0,0.0,0.0,0.0,0.0,0.0,0.0,0.0,0.0,0.0,0.0,0.0,0.0,0.0,0.0,0.0,0.0,0.0,0.0,0.0,0.0,0.0,0.0,0.0,0.0,0.0,0.0,0.0,0.0,-4.7602,-5.1755,-5.4534,-5.5746,-5.6549,-5.6518,-5.5664,-5.2236,-4.9719,0.0,0.0,0.0,0.0,0.0,0.0,0.0,0.0,0.0,0.0,0.0,0.0,0.0,0.0,0.0,0.0,0.0,0.0,0.0,0.0,0.0,0.0,0.0,0.0,0.0,0.0,0.0,0.0,0.0,0.0,0.0,0.0,0.0,0.0,0.0,0.0,0.0,0.0,0.0,0.0,0.0,-4.9089,-4.9902,-4.9697,0.0,0.0,0.0,0.0,-4.7665,-4.8153,0.0,0.0,0.0,0.0,0.0,0.0,0.0,0.0,0.0,0.0,0.0,0.0,0.0,0.0,0.0,0.0,0.0,0.0,0.0,0.0,0.0,0.0,0.0,0.0,0.0,0.0,0.0,0.0,0.0,0.0,0.0,0.0,0.0,0.0,0.0,0.0,0.0,0.0,0.0,0.0,0.0,0.0,0.0,0.0,0.0,0.0,0.0,0.0,0.0,0.0,0.0,0.0,0.0,0.0,0.0,0.0,-4.6824,-4.9141,-5.1913,-5.5031,-5.5929,-5.5676,-5.4347,-5.2638,-5.0026,0.0,0.0,0.0,0.0,0.0,0.0,0.0,0.0,0.0,0.0,0.0,0.0,0.0,0.0,0.0,0.0,0.0,0.0,0.0,0.0,0.0,0.0,0.0,0.0,0.0,0.0,0.0,0.0,0.0,0.0,0.0,0.0,0.0,0.0,0.0,0.0,0.0,0.0,0.0,0.0,0.0,-5.1321,-5.0013,-5.0479,-5.0612,0.0,0.0,-4.9932,-5.0608,-5.1282,0.0,0.0,0.0,0.0,0.0,0.0,0.0,0.0,0.0,0.0,0.0,0.0,0.0,0.0,0.0,0.0,0.0,0.0,0.0,0.0,0.0,0.0,0.0,0.0,0.0,0.0,0.0,0.0,0.0,0.0,0.0,0.0,0.0,0.0,0.0,0.0,0.0,0.0,0.0,0.0,0.0,0.0,0.0,0.0,0.0,0.0,0.0,0.0,0.0,0.0,0.0,0.0,0.0,0.0,0.0,-4.3113,-4.5421,-4.8809,-5.1478,-5.3377,-5.376,-5.3453,-5.2457,-4.9677,-4.7216,0.0,0.0,0.0,0.0,0.0,0.0,0.0,0.0,0.0,0.0,0.0,0.0,0.0,0.0,0.0,0.0,0.0,0.0,0.0,0.0,0.0,0.0,0.0,0.0,0.0,0.0,0.0,0.0,0.0,0.0,0.0,0.0,0.0,0.0,0.0,0.0,0.0,0.0,0.0,0.0,0.0,0.0,-5.1025,-5.1394,0.0,0.0,0.0,-5.0845,-5.1151,0.0,0.0,0.0,0.0,0.0,0.0,0.0,0.0,0.0,0.0,0.0,0.0,0.0,0.0,0.0,0.0,0.0,0.0,0.0,0.0,0.0,0.0,0.0,0.0,0.0,0.0,0.0,0.0,0.0,0.0,0.0,0.0,0.0,0.0,0.0,0.0,0.0,0.0,0.0,0.0,0.0,0.0,0.0,0.0,0.0,0.0,0.0,0.0,0.0,0.0,0.0,0.0,0.0,0.0,0.0,0.0,0.0,-4.4134,-4.8383,-5.1063,-5.1917,-5.1947,-5.1558,-5.072,-4.7519,0.0,0.0,0.0,0.0,0.0,0.0,0.0,0.0,0.0,0.0,0.0,0.0,0.0,0.0,0.0,0.0,0.0,0.0,0.0,0.0,0.0,0.0,0.0,0.0,0.0,0.0,0.0,-3.086,0.0,0.0,0.0,0.0,0.0,0.0,0.0,0.0,0.0,0.0,0.0,0.0,0.0,0.0,-4.9859,-5.0821,-5.1625,-5.2196,0.0,0.0,-5.1831,-5.1628,-5.2101,-5.1594,0.0,0.0,0.0,0.0,0.0,0.0,0.0,0.0,0.0,0.0,0.0,0.0,0.0,0.0,0.0,0.0,0.0,0.0,0.0,0.0,0.0,0.0,0.0,0.0,0.0,0.0,0.0,0.0,0.0,0.0,0.0,0.0,0.0,0.0,0.0,0.0,0.0,0.0,0.0,0.0,0.0,0.0,0.0,0.0,0.0,0.0,0.0,0.0,0.0,0.0,0.0,0.0,0.0,0.0,-4.1292,-4.3489,-4.7165,-4.9773,-5.1182,-5.1289,-5.0661,-4.9449,-4.7938,-4.5136,0.0,0.0,0.0,0.0,0.0,0.0,0.0,0.0,0.0,0.0,0.0,0.0,0.0,0.0,0.0,0.0,0.0,0.0,0.0,0.0,0.0,0.0,0.0,0.0,0.0,0.0,0.0,0.0,0.0,0.0,0.0,0.0,0.0,0.0,0.0,0.0,0.0,0.0,0.0,0.0,0.0,-4.8615,-4.8126,-5.0649,-5.2735,0.0,-5.3596,-5.3573,-5.2904,-5.4513,-5.4012,-4.857,0.0,0.0,0.0,0.0,0.0,0.0,0.0,0.0,0.0,0.0,0.0,0.0,0.0,0.0,0.0,0.0,0.0,0.0,0.0,0.0,0.0,0.0,0.0,0.0,0.0,0.0,0.0,0.0,0.0,0.0,0.0,0.0,0.0,0.0,0.0,0.0,0.0,0.0,0.0,0.0,0.0,0.0,0.0,0.0,0.0,0.0,0.0,0.0,0.0,0.0,0.0,0.0,0.0,-4.0897,-4.296,-4.6726,-4.933,-5.0698,-5.0757,-5.0135,-4.883,-4.7555,-4.4887,0.0,0.0,0.0,0.0,0.0,0.0,0.0,0.0,0.0,0.0,0.0,0.0,0.0,0.0,0.0,0.0,0.0,0.0,0.0,0.0,0.0,0.0,0.0,0.0,0.0,0.0,0.0,0.0,-3.4715,-3.5136,-3.5439,0.0,0.0,0.0,0.0,0.0,0.0,0.0,0.0,0.0,0.0,-4.8132,-4.9628,-5.1214,0.0,0.0,-5.3934,-5.393,-5.4205,-5.3878,-5.2572,-4.9478,-4.7551,0.0,0.0,0.0,0.0,0.0,0.0,0.0,0.0,0.0,0.0,0.0,0.0,0.0,0.0,0.0,0.0,0.0,0.0,0.0,0.0,0.0,0.0,0.0,0.0,0.0,0.0,0.0,0.0,0.0,0.0,0.0,0.0,0.0,0.0,0.0,0.0,0.0,0.0,0.0,0.0,0.0,0.0,0.0,0.0,0.0,0.0,0.0,0.0,0.0,0.0,0.0,0.0,-3.9896,-4.2393,-4.5713,-4.8231,-4.9881,-4.9911,-4.921,-4.7787,-4.6661,-4.4225,0.0,0.0,0.0,0.0,0.0,0.0,0.0,0.0,0.0,0.0,0.0,0.0,0.0,0.0,0.0,0.0,0.0,0.0,0.0,0.0,0.0,0.0,0.0,0.0,0.0,0.0,0.0,0.0,-3.6031,-3.5968,-3.6178,0.0,0.0,0.0,0.0,0.0,0.0,0.0,0.0,0.0,0.0,-4.734,-4.9653,-5.0881,-5.2058,-5.3504,-5.3461,-5.3508,-5.4189,-5.3026,-5.1357,-4.9326,0.0,0.0,0.0,0.0,0.0,0.0,0.0,0.0,0.0,0.0,0.0,0.0,0.0,0.0,0.0,0.0,0.0,0.0,0.0,0.0,0.0,0.0,0.0,0.0,0.0,0.0,0.0,-3.6592,0.0,0.0,-3.5548,0.0,0.0,0.0,0.0,0.0,0.0,0.0,0.0,0.0,0.0,0.0,0.0,0.0,0.0,0.0,0.0,0.0,0.0,0.0,0.0,0.0,0.0,-3.8026,-4.1636,-4.3774,-4.6109,-4.8479,-4.863,-4.777,-4.6089,-4.5413,-4.3065,-3.8873,0.0,0.0,0.0,0.0,0.0,0.0,0.0,0.0,0.0,0.0,0.0,0.0,0.0,0.0,0.0,0.0,0.0,0.0,0.0,0.0,0.0,0.0,0.0,0.0,0.0,0.0,-3.5519,-3.4921,-3.4863,0.0,0.0,0.0,0.0,0.0,0.0,0.0,0.0,0.0,0.0,-4.3946,-4.6033,-4.7289,-4.9217,-5.0874,-5.1871,-5.2116,-5.2281,-5.2461,-5.2319,-5.1057,0.0,0.0,0.0,0.0,0.0,0.0,0.0,0.0,0.0,0.0,0.0,0.0,0.0,0.0,0.0,0.0,0.0,0.0,0.0,0.0,0.0,0.0,0.0,0.0,0.0,0.0,0.0,-3.6232,-3.5871,0.0,0.0,0.0,0.0,0.0,0.0,0.0,0.0,0.0,0.0,0.0,-3.5531,-3.659,0.0,0.0,0.0,0.0,0.0,0.0,0.0,0.0,0.0,0.0,0.0,0.0,-3.7153,-3.9508,-4.2167,-4.4303,-4.5937,-4.5993,-4.549,-4.4491,-4.3863,-4.1764,-3.7942,0.0,0.0,0.0,0.0,0.0,0.0,0.0,0.0,0.0,0.0,0.0,0.0,0.0,0.0,0.0,0.0,0.0,0.0,0.0,0.0,0.0,0.0,0.0,0.0,0.0,-3.4863,0.0,0.0,0.0,0.0,0.0,0.0,0.0,0.0,0.0,0.0,0.0,-4.0364,-4.2449,-4.4668,-4.6514,-4.7788,-4.8952,-5.0147,0.0,0.0,0.0,0.0,0.0,0.0,0.0,0.0,0.0,0.0,0.0,0.0,0.0,0.0,-4.8728,-4.4897,-4.3775,-4.3491,-4.362,0.0,0.0,0.0,0.0,0.0,0.0,0.0,0.0,0.0,0.0,0.0,0.0,0.0,0.0,-3.6257,-3.6009,-3.5529,0.0,0.0,0.0,0.0,0.0,0.0,0.0,0.0,-3.6508,-3.7113,-3.6962,-3.7688,-3.7437,0.0,-3.583,-3.4754,0.0,0.0,0.0,0.0,0.0,0.0,0.0,0.0,-3.6116,-3.8358,-4.0588,-4.2496,-4.3976,-4.4058,-4.3643,-4.282,-4.1914,-4.005,-3.7122,-3.5603,-3.3993,0.0,0.0,0.0,0.0,0.0,0.0,0.0,0.0,0.0,0.0,0.0,0.0,0.0,0.0,0.0,0.0,0.0,0.0,0.0,0.0,0.0,0.0,0.0,-3.4397,0.0,0.0,0.0,0.0,0.0,0.0,0.0,0.0,0.0,-3.7953,-3.9572,-4.1427,-4.3708,-4.5502,-4.698,-4.7818,0.0,0.0,0.0,0.0,0.0,0.0,0.0,-4.8561,-4.7586,-4.6951,-4.6514,-4.6235,-4.7818,-4.9144,-4.916,0.0,0.0,-4.7315,-4.6452,-4.621,-4.6476,-4.7056,-4.7581,-4.766,-4.8699,-4.9433,0.0,0.0,0.0,0.0,0.0,0.0,0.0,0.0,-3.6691,-3.6693,0.0,-3.6493,0.0,0.0,0.0,0.0,-3.4645,-3.6143,0.0,0.0,-3.9415,-4.0067,-3.9517,-3.8517,-3.7991,-3.7966,-3.744,-3.6563,-3.5433,-3.352,0.0,0.0,0.0,0.0,0.0,0.0,-3.4952,-3.8098,-3.915,-4.0579,-4.2571,-4.2722,-4.2208,-4.1169,-3.9726,-3.8165,-3.6581,-3.6565,-3.5366,-3.2616,-3.2197,0.0,0.0,0.0,0.0,0.0,0.0,0.0,0.0,0.0,0.0,0.0,0.0,0.0,0.0,0.0,0.0,0.0,0.0,0.0,0.0,-3.4613,0.0,0.0,0.0,0.0,0.0,0.0,0.0,0.0,0.0,0.0,-3.9194,-4.0363,-4.2088,-4.484,0.0,0.0,0.0,0.0,-4.8407,-4.8622,-4.8635,-4.8697,-4.8804,-4.8702,-4.8183,-4.684,0.0,0.0,-4.6943,-4.7871,-4.8656,-4.8432,-4.8926,-4.9599,-5.0727,-4.9776,-4.919,-4.983,-4.9528,-4.9424,-5.0033,-5.0807,-5.118,-4.0658,0.0,0.0,0.0,0.0,-3.7609,-3.7578,-3.7548,-3.7432,-3.685,-3.6087,-3.5287,0.0,0.0,0.0,0.0,0.0,0.0,-3.4157,-3.5409,-3.651,-3.7504,-3.8414,-3.8357,-3.8139,-3.7793,-3.7738,-3.7132,-3.6111,-3.594,-3.459,-3.2162,0.0,0.0,0.0,0.0,-3.5262,-3.6893,-3.8398,-3.9598,-4.0541,-4.0618,-4.0415,-4.0134,-3.9348,-3.8442,-3.7588,-3.6871,-3.5725,-3.4103,-3.2832,0.0,0.0,0.0,0.0,0.0,0.0,0.0,0.0,0.0,0.0,0.0,0.0,0.0,0.0,0.0,0.0,0.0,0.0,0.0,-3.2589,-3.3019,-3.2964,0.0,0.0,0.0,0.0,0.0,0.0,0.0,0.0,0.0,-4.0003,-4.0872,-4.2081,0.0,0.0,-4.6329,-4.6565,-4.7578,-4.8519,-4.9024,-4.9128,0.0,-4.9681,-4.9433,-4.8864,-4.7933,-4.7533,-4.7509,-4.7985,-4.8395,-4.88,-4.926,-4.9655,-5.0161,-5.1011,-5.0724,-5.0356,-5.0687,-5.1392,-5.21,-5.247,-5.3112,-5.3518,-4.1553,-4.064,-3.9546,-3.8801,-3.8297,-3.8036,-3.7977,-3.8044,-3.7865,-3.73,-3.6582,-3.5825,-3.439,-3.2561,-3.1882,0.0,0.0,0.0,-3.4013,-3.5547,-3.5826,-3.6793,-3.8141,-3.7859,-3.7771,-3.7678,-3.7426,-3.6932,-3.6237,-3.6192,-3.5259,-3.3547,0.0,0.0,-3.2759,-3.4336,-3.574,-3.7033,-3.829,-3.9145,-3.9672,-3.9697,-3.9697,-3.9697,-3.9145,-3.8592,-3.8015,-3.7186,-3.6182,-3.5031,-3.3445,-3.1913,0.0,0.0,0.0,0.0,0.0,0.0,0.0,0.0,0.0,0.0,0.0,-2.9636,-2.9174,0.0,0.0,0.0,-3.1322,-3.1878,-3.1676,-3.2222,0.0,0.0,0.0,0.0,0.0,0.0,0.0,-3.6293,-3.7531,-3.8881,-4.025,-4.1041,-4.215,-4.4105,-4.5623,-4.657,-4.6786,0.0,-4.885,-4.9239,-4.9299,-4.9404,-4.9763,-4.9537,-4.9109,-4.8415,-4.7758,-4.7482,-4.7976,-4.8103,-4.8366,-4.9116,-4.9407,-4.9765,-5.0615,-5.0542,-5.0704,-5.1665,-5.2573,-5.3247,-5.3484,-5.3856,-5.416,-4.1662,-4.0666,-3.8913,-3.8519,-3.8985,-3.7673,-3.7626,-3.842,-3.7918,-3.7698,-3.767,-3.7163,-3.6333,-3.5298,-3.3781,0.0,-3.4592,-3.4636,-3.5496,-3.6993,-3.6551,-3.7036,-3.8238,-3.6969,-3.6697,-3.7281,-3.6556,-3.6115,-3.5922,-3.5032,-3.4866,-3.5344,-3.4862,-3.4674,-3.4781,-3.5332,-3.6386,-3.7965,-3.8567,-3.9196,-3.9672,-3.9697,-3.9672,-3.9622,-3.9196,-3.8567,-3.7965,-3.7462,-3.6684,-3.5583,-3.4098,-3.2767,-3.1612,0.0,0.0,0.0,0.0,0.0,0.0,0.0,0.0,0.0,0.0,0.0,0.0,0.0,0.0,0.0,-3.132,0.0,-3.1653,-3.218,0.0,0.0,0.0,-3.2489,-3.2992,-3.4805,-3.598,-3.5952,0.0,0.0,-4.0308,-4.1039,-4.2366,-4.4768,-4.6377,-4.7355,-4.7373,-4.8391,-4.9253,-4.9238,-4.9359,-4.9434,-4.9659,-4.9464,-4.9104,-4.855,-4.7788,-4.7339,-4.7352,-4.7322,-4.7666,-4.8324,-4.849,-4.8749,-4.9599,-4.9702,-5.039,-5.242,-5.3006,-5.3245,-5.3551,-5.3653,-5.3721,-4.0319,-3.9461,-3.8425,-3.8162,-3.8465,-3.8165,-3.7465,-3.6595,-3.6408,-3.6034,-3.5457,-3.4627,-3.3619,-3.2509,-3.2089,-3.2069,-3.2329,-3.2671,-3.3235,-3.3882,-3.4044,-3.4411,-3.5026,-3.4614,-3.4362,-3.4247,-3.4545,-3.4488,-3.4181,-3.4791,-3.4826,-3.425,-3.4068,-3.4477,-3.5336,-3.6307,-3.7186,-3.799,-3.8592,-3.9196,-3.9672,-3.9697,-3.9496,-3.9069,-3.8944,-3.8441,-3.7437,-3.7262,-3.686,-3.6229,-3.5403,-3.4449,-3.3345,-3.121,0.0,0.0,0.0,0.0,0.0,0.0,0.0,0.0,0.0,-2.8396,-2.7485,0.0,-2.9088,0.0,-3.1266,-3.26,-3.3434,-3.3343,0.0,0.0,-3.3888,-3.4255,-3.5099,-3.6154,-3.6979,-3.7381,-3.8997,-4.0229,-4.0687,-4.2035,-4.3232,-4.412,-4.4796,-4.5336,-4.5645,-4.7433,-4.8752,-4.8875,-4.9851,-5.075,-5.0631,-4.9883,-4.9239,-4.912,-4.8057,-4.7309,-4.7309,-4.7309,-4.7396,-4.7581,-4.7624,-4.7934,-4.8708,-4.8872,-4.9327,-5.0621,-5.1908,-5.3172,-5.3916,-5.4193,-5.4296,-3.9186,-3.8533,-3.7904,-3.7708,-3.7826,-3.7458,-3.6763,-3.5933,-3.5913,-3.5611,-3.4961,-3.4082,-3.332,-3.2656,-3.2461,-3.2363,-3.2383,-3.2617,-3.2851,-3.3066,-3.3254,-3.3497,-3.3902,-3.3684,-3.3432,-3.3115,-3.3368,-3.3248,-3.2778,-3.3438,-3.3698,-3.3649,-3.3649,-3.4102,-3.5004,-3.5397,-3.6158,-3.7269,-3.7887,-3.866,-3.9672,-3.9697,-3.932,-3.8517,-3.8241,-3.7588,-3.6483,-3.6232,-3.583,-3.5303,-3.4751,-3.3947,-3.2817,-3.1411,-3.0066,0.0,0.0,0.0,0.0,0.0,0.0,0.0,0.0,0.0,0.0,0.0,-3.0005,-3.0809,-3.2365,-3.3614,-3.4376,-3.4376,-3.4653,-3.5461,-3.5628,-3.6029,-3.6773,-3.7546,-3.8299,-3.8834,-4.0031,-4.1106,-4.175,-4.2732,-4.359,-4.4011,-4.4362,-4.485,-4.5596,-4.7215,-4.835,-4.8379,-4.9572,-5.068,-5.1105,-5.0122,-4.9299,-4.9209,-4.8177,-4.7309,-4.7309,-4.7309,-4.7309,-4.7309,-4.7309,-4.7409,-4.7892,-4.8019,-4.8324,-4.9269,-5.0248,-5.1321,-5.2364,-5.2942,-5.3298,-3.8412,-3.7969,-3.75,-3.7305,-3.7226,-3.6387,-3.6035,-3.6035,-3.6035,-3.5781,-3.5351,-3.457,-3.418,-3.4107,-3.3672,-3.3457,-3.3418,-3.3418,-3.3418,-3.3418,-3.3418,-3.3544,-3.3859,-3.3544,-3.328,-3.2955,-3.2674,-3.2237,-3.1692,-3.1692,-3.2129,-3.3029,-3.3085,-3.3412,-3.3984,-3.3451,-3.4131,-3.6033,-3.684,-3.7916,-3.9289,-3.929,-3.8716,-3.7642,-3.702,-3.6152,-3.5062,-3.4587,-3.4139,-3.3643,-3.3195,-3.2475,-3.1531,-3.0794,-3.0,0.0,-2.8746,0.0,0.0,0.0,0.0,0.0,0.0,0.0,0.0,-3.0633,-3.1486,-3.2499,-3.4022,-3.4977,-3.5082,-3.5533,-3.621,-3.7161,-3.7337,-3.7588,-3.809,-3.8894,-3.9626,-4.0082,-4.0899,-4.1794,-4.2744,-4.3216,-4.3635,-4.4129,-4.4453,-4.4914,-4.5926,-4.7019,-4.7735,-4.7841,-4.8795,-5.0028,-5.0609,-5.0044,-4.9419,-4.9239,-4.8297,-4.7429,-4.7309,-4.7309,-4.7309,-4.7309,-4.7309,-4.7309,-4.7309,-4.7309,-4.7581,-4.8313,-4.8615,-4.9116,-5.0267,-5.107,-5.1488,-3.8826,-3.8379,-3.7617,-3.7305,-3.7226,-3.6387,-3.6035,-3.6035,-3.6035,-3.5781,-3.5391,-3.5215,-3.4746,-3.4082,-3.3984,-3.375,-3.3418,-3.3418,-3.3418,-3.3418,-3.3418,-3.3418,-3.3481,-3.3418,-3.3031,-3.2389,-3.227,-3.1838,-3.1054,-3.1054,-3.0973,-3.0826,-3.0807,-3.1243,-3.2057,0.0,0.0,0.0,-3.6195,-3.7204,-3.7252,-3.7148,-3.6573,-3.5503,-3.4526,0.0,-3.2535,-3.2394,-3.2301,-3.2183,-3.209,0.0,0.0,0.0,0.0,0.0,0.0,0.0,0.0,0.0,0.0,0.0,-2.8971,-2.9479,-3.0973,-3.2441,-3.3721,-3.4756,-3.5604,-3.6408,-3.7312,-3.7462,-3.7613,-3.7839,-3.8266,-3.8642,-3.8793,-3.9648,-4.0302,-4.0402,-4.1389,-4.2178,-4.2649,-4.3059,-4.3555,-4.3903,-4.4203,-4.4476,-4.4668,-4.5847,-4.666,-4.6843,-4.8296,-4.9562,-4.9854,-4.9952,-4.9702,-4.9314,-4.87,-4.7938,-4.7459,-4.7309,-4.7309,-4.7309,-4.7309,-4.7309,-4.7309,-4.7309,-4.7352,-4.7495,-4.7581,-4.8115,-4.9773,-5.0397,-5.0627,-3.8793,-3.8496,-3.7656,-3.7305,0.0,-3.6387,-3.6035,-3.6035,-3.6035,-3.5898,-3.5684,-3.5488,-3.5137,-3.4687,-3.4258,-3.3945,-3.373,-3.3535,-3.3418,-3.3418,-3.3418,-3.3418,-3.3418,-3.3418,-3.2988,-3.2187,-3.2229,-3.1719,-3.0918,-3.0898,-3.0762,-3.0547,-3.0527,-3.0754,-3.1196,-3.0621,-3.1318,-3.3279,-3.4459,-3.5329,-3.5987,-3.5915,-3.5225,-3.3993,-3.3572,0.0,0.0,0.0,0.0,0.0,0.0,0.0,0.0,0.0,0.0,-2.9988,-2.9486,-2.9059,-2.8811,-2.8787,-2.9098,-2.9855,-3.0773,-3.1459,-3.1765,-3.3026,-3.415,-3.4941,-3.5302,-3.6032,-3.7388,-3.7536,-3.7888,-3.8717,-3.9346,-3.9672,-3.9772,-4.04,-4.1028,-4.1304,-4.1861,-4.2343,-4.2755,-4.3148,-4.3462,-4.3653,-4.3929,-4.4119,-4.4148,-4.4938,-4.5715,-4.6269,-4.7177,-4.8195,-4.8738,-4.9155,-4.9351,-4.8984,-4.858,-4.8237,-4.7848,-4.7519,-4.7309,-4.7309,-4.7309,-4.7309,-4.7309,-4.7309,-4.7309,-4.7309,-4.7309,-4.7538,-4.8584,-4.9125,-4.9527,-3.8574,-3.8496,-3.7656,-3.7305,-3.7226,-3.6387,-3.6035,-3.6035,0.0,0.0,0.0,-3.5644,-3.5469,-3.5351,-3.4629,-3.4219,-3.4062,-3.3691,-3.3496,-3.3418,-3.3418,-3.3418,-3.3418,-3.3418,-3.2969,-3.2187,-3.2229,-3.1719,-3.0918,-3.0898,-3.0898,-3.0898,-3.0898,-3.0859,-3.082,-3.0697,-3.114,-3.219,-3.2577,-3.3375,-3.4692,-3.4736,-3.4048,-3.2642,-3.2649,-3.1955,-3.0577,-3.0752,-3.0468,-2.9685,-2.9641,-2.9508,-2.9081,-2.9509,-2.9913,-3.0222,-3.0721,-3.0674,-2.9953,-3.0012,-3.0342,-3.086,-3.2458,-3.3083,-3.2293,-3.3191,-3.4074,-3.4628,-3.4674,-3.53,-3.6811,-3.6963,-3.7569,-3.9072,-3.9593,-3.9918,-4.0255,-4.0807,-4.1305,-4.2057,-4.2288,-4.2514,-4.2942,-4.3184,-4.3351,-4.3351,-4.3598,-4.3844,-4.3955,-4.4367,-4.4992,-4.5794,-4.6374,-4.6816,-4.7503,-4.8198,-4.8432,-4.8278,-4.8295,-4.8298,-4.8015,-4.773,-4.7489,-4.7309,-4.7309,-4.7309,-4.7309,-4.7309,-4.7309,-4.7309,-4.7309,-4.7309,-4.7352,-4.7849,-4.8407,-3.8574,-3.8516,-3.7656,-3.7305,-3.7226,-3.6387,-3.6035,-3.6035,-3.6035,-3.6035,-3.6016,-3.5957,-3.5723,-3.5391,-3.5273,-3.4785,-3.4082,-3.4004,-3.3789,-3.3418,-3.3418,-3.3418,-3.3418,-3.3418,-3.2988,-3.2268,-3.2229,-3.1719,-3.0976,-3.0898,-3.0898,-3.0898,-3.0898,-3.0684,-3.0332,-3.0291,-3.0189,-3.0095,-3.1491,-3.2335,-3.2593,-3.2529,-3.203,-3.1068,-3.0214,-2.9238,-2.8298,-2.8357,-2.8246,-2.8123,-2.8322,-2.838,-2.8338,-2.8655,-2.8739,-2.8574,-2.8864,-2.9024,-2.9106,-2.9632,-3.037,-3.1204,-3.1876,-3.2241,-3.2323,-3.3585,-3.4651,-3.5161,-3.5177,-3.5543,-3.6218,-3.6341,-3.658,-3.7231,-3.7394,-3.7934,-3.9327,-4.0072,-4.0825,-4.1968,-4.264,-4.2836,-4.2936,-4.3017,-4.3073,-4.3073,-4.3194,-4.3547,-4.3742,-4.4148,-4.4476,-4.4992,-4.5794,-4.6374,-4.666,-4.748,-4.775,-4.732,-4.7971,-4.8086,-4.7274,-4.7599,-4.7746,-4.7399,-4.7309,-4.7309,-4.7309,-4.7309,-4.7309,-4.7309,-4.7309,-4.7309,-4.7309,-4.7452,-4.7538,-3.8437,-3.8144,-3.7559,-3.7168,-3.6914,-3.6289,-3.6035,-3.6035,-3.6035,-3.6035,-3.6035,-3.6035,-3.5918,-3.5723,-3.5488,-3.5039,-3.4394,-3.418,-3.3848,-3.3437,-3.3418,-3.3418,-3.3418,-3.3418,-3.2988,-3.2268,-3.2229,-3.1719,-3.0957,-3.0898,-3.0898,-3.0898,-3.0898,-3.0664,-3.0215,-2.998,-2.9822,-2.9626,-3.0364,-3.0741,-3.0812,-3.0741,-3.0391,-2.9741,-2.9387,-2.8947,-2.8309,-2.8425,-2.8408,-2.8186,-2.8288,-2.834,-2.834,-2.8594,-2.8748,-2.8683,-2.9186,-2.9463,-2.9404,-3.016,-3.084,-3.147,-3.1922,-3.2286,-3.2513,-3.3102,-3.3648,-3.3898,-3.392,-3.4339,-3.5146,-3.5278,-3.5643,-3.6452,-3.6782,-3.7257,-3.8035,-3.885,-3.9831,-4.0971,-4.1636,-4.2206,-4.2905,-4.2986,-4.2836,-4.2665,-4.2675,-4.2764,-4.2808,-4.315,-4.3595,-4.418,-4.483,-4.5181,-4.5342,-4.6294,-4.6885,-4.6688,-4.7263,-4.7558,-4.7171,-4.747,-4.7332,-4.7328,-4.7309,-4.7309,-4.7309,-4.7309,-4.7309,-4.7309,-4.7309,-4.7309,-4.7309,-4.7309,-4.7309,-3.832,-3.7891,-3.7461,-3.6992,-3.6504,-3.6172,-3.6035,-3.6035,-3.6035,-3.6035,-3.6035,-3.6035,-3.6035,-3.5976,-3.5586,-3.5137,-3.4687,-3.4258,-3.3828,-3.3437,-3.3418,-3.3418,-3.3418,-3.3418,-3.2969,-3.2246,-3.2229,-3.1719,-3.0976,-3.0898,-3.0898,-3.0898,-3.0898,-3.0644,-3.0195,-2.9883,-2.9668,-2.957,-2.9473,-2.9473,-2.9626,-2.957,-2.9355,-2.8965,-2.9164,-2.9075,-2.866,-2.8814,-2.878,-2.8513,-2.8525,-2.8545,-2.8525,-2.8805,-2.9007,-2.9199,-2.9776,-3.0133,-3.0118,-3.0777,-3.139,-3.1738,-3.2158,-3.2498,-3.2669,-3.2669,-3.2669,-3.2669,-3.2763,-3.3161,-3.3931,-3.4099,-3.4513,-3.549,-3.5915,-3.6286,-3.6781,-3.7497,-3.847,-3.9599,-4.0362,-4.1217,-4.2177,-4.2674,-4.269,-4.2338,-4.2112,-4.189,-4.1774,-4.2055,-4.2595,-4.3118,-4.3624,-4.3793,-4.387,-4.4652,-4.5286,-4.5497,-4.5942,-4.6321,-4.6517,-4.6489,-4.6495,-4.6681,-4.6859,-4.6844,-4.6931,-4.7179,-4.7266,-4.7309,-4.7309,-4.7309,-4.7309,-4.7309,-4.7309,-3.832,-3.7891,-3.7461,-3.6836,-3.6113,-3.6035,-3.6035,-3.6035,-3.6035,-3.6035,-3.6035,-3.6035,-3.6035,-3.5957,-3.5586,-3.5137,-3.4687,-3.4258,-3.3848,-3.3457,-3.3418,-3.3418,-3.3418,-3.3418,-3.2969,-3.2307,-3.2229,-3.1719,-3.0918,-3.0898,-3.0898,-3.0898,-3.0898,-3.0664,-3.0234,-3.0156,-2.9941,-2.957,-2.918,-2.918,-2.9551,-2.957,-2.9375,-2.8945,-2.8906,-2.873,-2.8374,-2.8335,-2.8335,-2.8349,-2.8542,-2.8668,-2.8721,-2.8913,-2.9186,-2.9337,-2.9687,-3.0138,-3.0902,-3.1345,-3.1701,-3.2183,-3.2457,-3.2612,-3.2669,-3.2669,-3.2669,-3.2669,-3.2669,-3.2784,-3.2841,-3.2955,-3.3194,-3.3775,-3.3901,-3.4328,-3.5692,-3.6143,-3.6729,-3.7963,-3.8981,-3.9961,-4.0611,-4.149,-4.2098,-4.1918,-4.1601,-4.1354,-4.1257,-4.1358,-4.1433,-4.1641,-4.2017,-4.2362,-4.2519,-4.2442,-4.3047,-4.318,-4.3879,-4.456,-4.4941,-4.5267,-4.544,-4.5595,-4.5734,-4.5898,-4.6121,-4.6594,-4.7222,-4.7106,-4.7179,-4.7309,-4.7309,-4.7309,-4.7309,-3.7793,-3.7187,-3.6992,-3.6582,-3.6055,-3.6035,-3.6035,-3.6035,-3.6035,-3.6035,-3.6035,-3.6035,-3.6035,-3.5996,-3.5586,-3.5137,-3.4687,-3.4277,-3.3848,-3.3437,-3.3418,-3.3418,-3.3418,-3.3418,-3.2988,-3.2226,-3.2229,-3.1738,-3.1035,-3.0898,-3.0898,-3.0898,-3.0898,-3.0644,-3.0234,-3.0195,-2.998,-2.957,-2.9141,-2.9004,-2.9141,-2.8945,-2.873,-2.8574,-2.8555,-2.8476,-2.832,-2.8301,-2.8301,-2.8301,-2.8408,-2.8461,-2.8461,-2.8965,-2.9237,-2.9164,-2.9691,-3.028,-3.0912,-3.1124,-3.1319,-3.1672,-3.1787,-3.196,-3.2133,-3.2305,-3.244,-3.2477,-3.2612,-3.2669,-3.2669,-3.2669,-3.2752,-3.2975,-3.2996,-3.3309,-3.3916,-3.4307,-3.4956,-3.6181,-3.6974,-3.8021,-3.9075,-4.0018,-4.0483,-4.0605,-4.0641,-4.0721,-4.0475,-4.0626,-4.0676,-4.045,-4.0585,-4.1098,-4.1713,-4.2076,-4.2263,-4.2553,-4.2919,-4.3384,-4.3895,-4.4179,-4.4387,-4.4601,-4.4761,-4.4869,-4.4915,-4.5689,-4.6417,-4.6506,-4.7019,-4.7309,-4.7309,-4.7309,-4.7309,-3.7344,-3.6699,-3.6543,-3.6309,-3.6035,-3.6035,-3.6035,-3.6035,-3.6035,-3.6035,-3.6035,-3.6035,-3.6035,-3.5937,-3.5449,-3.5019,-3.4668,-3.4141,-3.373,-3.3437,-3.3418,-3.3418,-3.3418,-3.3418,-3.2988,-3.2346,-3.2229,-3.1738,-3.0976,-3.0898,-3.0898,-3.0898,-3.0898,-3.0723,-3.041,-3.0391,-3.0234,-2.9922,-2.9394,-2.9101,-2.9043,-2.8574,-2.8301,-2.8301,-2.8301,-2.8301,-2.8301,-2.8301,-2.8301,-2.8301,-2.8398,-2.8476,-2.8476,-2.9105,-2.94,-2.9316,-2.9961,-3.0527,-3.0879,-3.0995,-3.1112,-3.1267,-3.1383,-3.1556,-3.1787,-3.2018,-3.2252,-3.2489,-3.2683,-3.272,-3.2747,-3.283,-3.2913,-3.2913,-3.2996,-3.3099,-3.3161,-3.341,-3.4006,-3.4855,-3.5736,-3.6609,-3.8102,-3.8924,-3.9276,-3.9809,-4.0,-4.0262,-3.9994,-4.0275,-4.035,-3.9798,-3.9722,-4.0127,-4.1069,-4.1225,-4.1616,-4.18,-4.1879,-4.2138,-4.2841,-4.2965,-4.3138,-4.3182,-4.3609,-4.3937,-4.3984,-4.4656,-4.5417,-4.5598,-4.6121,-4.6844,-4.677,-4.7019,-4.7266,-3.707,-3.6621,-3.6211,-3.6055,-3.6035,-3.6035,-3.6035,-3.6035,-3.6035,-3.6035,-3.6035,-3.6035,-3.6035,-3.5957,-3.5156,-3.4726,-3.459,-3.3848,-3.3476,-3.3418,-3.3418,-3.3418,-3.3418,-3.3398,-3.2988,-3.2207,-3.2229,-3.1719,-3.0937,-3.0898,-3.0898,-3.0898,-3.0898,-3.0879,-3.082,-3.082,-3.084,-3.0664,-2.9941,-2.9587,-2.9434,-2.873,-2.832,-2.8301,-2.8301,-2.8301,-2.8301,-2.8301,-2.8301,-2.8301,-2.8652,-2.8867,-2.8926,-2.9297,-2.9763,-3.0117,-3.0566,-3.0859,-3.0937,-3.1112,-3.1267,-3.1325,-3.1498,-3.173,-3.1672,-3.1828,-3.2105,-3.2761,-3.286,-3.2854,-3.2819,-3.3103,-3.3348,-3.3368,-3.372,-3.3906,-3.3948,-3.3906,-3.4031,-3.4365,-3.5115,-3.629,-3.8008,-3.8401,-3.8964,-3.9608,-3.9777,-3.971,-4.0361,-4.0551,-4.0325,-3.9948,-3.9747,-3.9722,-3.9849,-4.0179,-4.0207,-4.0491,-4.0849,-4.0645,-4.0978,-4.1363,-4.1567,-4.1843,-4.2422,-4.2819,-4.3033,-4.3511,-4.4219,-4.473,-4.5281,-4.5779,-4.5824,-4.6726,-4.7019,-3.6641,-3.625,-3.6094,-3.6035,-3.6035,-3.6035,-3.6035,-3.6035,-3.6035,-3.6035,-3.6035,-3.6035,-3.6035,-3.5976,-3.5098,-3.4687,-3.4609,-3.3809,-3.3418,-3.3418,-3.3418,-3.3418,-3.3418,-3.3418,-3.2969,-3.2266,-3.2168,-3.1719,-3.0976,-3.0898,-3.0898,-3.0898,-3.0898,-3.0898,-3.0898,-3.0898,-3.0898,-3.084,-3.0273,-2.9844,-2.9607,-2.9004,-2.8574,-2.832,-2.8301,-2.8301,-2.8301,-2.8301,-2.8418,-2.8672,-2.8848,-2.9043,-2.9336,-2.9746,-3.0176,-3.0586,-3.0801,-3.0898,-3.0898,-3.0995,-3.1054,-3.1054,-3.117,-3.1228,-3.1326,-3.1641,-3.2056,-3.2333,-3.2792,-3.2991,-3.3069,-3.3505,-3.3824,-3.3844,-3.3969,-3.4113,-3.4072,-3.4072,-3.4072,-3.4232,-3.4756,-3.5469,-3.6113,-3.675,-3.7668,-3.8815,-3.9267,-3.9819,-4.0674,-4.1,-4.0721,-4.0375,-4.0224,-4.0099,-3.9697,-3.9722,-3.98,-4.0006,-4.0236,-4.0389,-4.0645,-4.0773,-4.0977,-4.1078,-4.1524,-4.172,-4.199,-4.255,-4.3225,-4.4031,-4.4563,-4.4748,-4.4794,-4.5689,-4.6166,-3.6289,-3.6055,-3.6035,-3.6035,-3.6035,-3.6035,-3.6035,-3.6035,-3.6035,-3.6035,-3.6035,-3.6035,-3.6035,-3.5879,-3.5098,-3.4687,-3.4609,-3.3809,-3.3418,-3.3418,-3.3418,-3.3418,-3.3418,-3.3418,-3.2969,-3.2226,-3.1916,-3.1426,-3.0957,-3.0898,-3.0898,-3.0898,-3.0898,-3.0898,-3.0898,-3.0898,-3.0898,-3.0801,-3.043,-3.0039,-2.9746,-2.9336,-2.9004,-2.8769,-2.8711,-2.8633,-2.8516,-2.8633,-2.8828,-2.9101,-2.9258,-2.9531,-2.9961,-3.0273,-3.0566,-3.0859,-3.0898,-3.0898,-3.0898,-3.0898,-3.0898,-3.0898,-3.0898,-3.0918,-3.1133,-3.1525,-3.1959,-3.2375,-3.2814,-3.3235,-3.3558,-3.3963,-3.4204,-3.4242,-3.4343,-3.4486,-3.4507,-3.4527,-3.4527,-3.459,-3.4857,-3.5002,-3.5084,-3.5692,-3.6693,-3.7893,-3.8482,-3.9184,-4.0103,-4.0739,-4.0785,-4.0319,-4.0364,-4.0297,-4.0049,-3.9898,-3.9747,-3.9903,-3.9929,-4.0083,-4.0262,-4.0313,-4.0389,-4.044,-4.0542,-4.0694,-4.1071,-4.1644,-4.2355,-4.3177,-4.3606,-4.3768,-4.4144,-4.4638,-4.5052,-3.6035,-3.6035,-3.6035,-3.6035,-3.6035,-3.6035,-3.6035,-3.6035,-3.6035,-3.6035,-3.6035,-3.6035,-3.6035,-3.584,-3.5098,-3.4687,-3.4551,-3.3809,-3.3418,-3.3418,-3.3418,-3.3418,-3.3418,-3.3418,-3.2988,-3.2229,-3.1348,-3.0957,-3.0898,-3.0898,-3.0898,-3.0898,-3.0898,-3.0898,-3.0898,-3.0898,-3.0898,-3.082,-3.0469,-3.0234,-3.0156,-2.9766,-2.9531,-2.9492,-2.9492,-2.9355,-2.8984,-2.9297,-2.9548,-2.9609,-2.9922,-3.0391,-3.0703,-3.082,-3.0879,-3.0879,-3.0898,-3.0898,-3.0898,-3.0898,-3.0898,-3.0898,-3.0918,-3.1094,-3.1387,-3.1582,-3.2054,-3.2868,-3.3248,-3.355,-3.4055,-3.4302,-3.4347,-3.4391,-3.4861,-3.519,-3.5314,-3.5376,-3.5397,-3.5335,-3.5335,-3.5397,-3.5418,-3.5479,-3.6091,-3.7079,-3.7515,-3.7932,-3.8839,-3.9741,-3.9954,-3.9806,-4.006,-4.0401,-4.024,-4.0099,-3.9898,-3.9722,-3.9749,-3.9852,-3.9903,-4.0006,-4.0083,-4.0134,-4.0338,-4.0491,-4.0643,-4.1121,-4.1121,-4.1792,-4.2257,-4.2744,-4.3033,-4.3388,-4.4031,-3.6035,-3.6035,-3.6035,-3.6035,-3.6035,-3.6035,-3.6035,-3.6035,-3.6035,-3.6035,-3.6035,-3.6035,-3.6035,-3.582,-3.5098,-3.4687,-3.4629,-3.3828,-3.3418,-3.3418,-3.3418,-3.3418,-3.3418,-3.3418,-3.2988,-3.2207,-3.1601,-3.1172,-3.0937,-3.0898,-3.0898,-3.0898,-3.0898,-3.0898,-3.0898,-3.0898,-3.0898,-3.0879,-3.0742,-3.0547,-3.0234,-3.0078,-2.9863,-2.9685,-2.9844,-2.9922,-2.9805,-2.9668,-2.9707,-2.998,-3.0117,-3.041,-3.0801,-3.0898,-3.0898,-3.0898,-3.0898,-3.0898,-3.0898,-3.0898,-3.0898,-3.0937,-3.1152,-3.1348,-3.1582,-3.207,-3.2522,-3.3018,-3.3172,-3.3489,-3.3713,-3.3922,-3.4218,-3.4676,-3.4902,-3.517,-3.5356,-3.5418,-3.5418,-3.5418,-3.5418,-3.5418,-3.5418,-3.5418,-3.589,-3.6885,-3.7188,-3.756,-3.8598,-3.9034,-3.9787,-3.997,-4.0286,-4.0433,-4.0492,-4.0333,-4.0087,-3.9969,-3.9898,-3.9722,-3.9749,-3.9749,-3.9826,-3.9929,-4.0083,-4.0236,-4.0389,-4.0542,-4.0593,-4.0694,-4.1272,-4.1544,-4.1644,-4.2159,-4.2889,-3.6035,-3.6035,-3.6035,-3.6035,-3.6035,-3.6035,-3.6035,-3.6035,-3.6035,-3.6035,-3.6035,-3.6035,-3.5918,-3.5664,-3.5019,-3.4629,-3.4414,-3.373,-3.3418,-3.3418,-3.3418,-3.3418,-3.3379,-3.3242,-3.2851,-3.2207,-3.1719,-3.1309,-3.0918,-3.0898,-3.0898,-3.0898,-3.0898,-3.0898,-3.0898,-3.0898,-3.0898,-3.0898,-3.0879,-3.0742,-3.0527,-3.0449,-3.0332,-3.0194,-3.0312,-3.043,-3.043,-3.0252,-3.0176,-3.041,-3.0449,-3.0605,-3.0879,-3.0898,-3.0898,-3.0898,-3.0898,-3.0898,-3.0898,-3.0898,-3.0976,-3.1133,-3.1367,-3.168,-3.1973,-3.2559,-3.2812,-3.3047,-3.3262,-3.3418,-3.3418,-3.3544,-3.3985,-3.4485,-3.4673,-3.4859,-3.517,-3.5356,-3.5418,-3.5418,-3.5418,-3.5418,-3.5418,-3.5418,-3.5665,-3.642,-3.6603,-3.6703,-3.767,-3.8127,-3.8729,-3.9198,-3.9286,-3.9762,-4.0624,-4.0607,-4.0319,-4.0237,-4.0174,-3.9898,-3.9697,-3.9697,-3.9749,-3.98,-3.9903,-3.9955,-4.0108,-4.0236,-4.0338,-4.044,-4.0542,-4.0896,-4.1172,-4.1445,-4.2039,-3.6035,-3.6035,-3.6035,-3.6035,-3.6035,-3.6035,-3.6035,-3.6035,-3.6035,-3.6035,-3.6035,-3.6035,-3.5801,-3.5391,-3.4922,-3.4492,-3.4062,-3.3652,-3.3418,-3.3418,-3.3418,-3.3418,-3.3379,-3.3125,-3.2734,-3.2246,-3.1855,-3.1406,-3.1016,-3.0996,-3.0918,-3.0898,-3.0898,-3.0898,-3.0898,-3.0898,-3.0898,-3.0898,-3.0898,-3.0879,-3.084,-3.0859,-3.084,-3.0801,-3.082,-3.084,-3.082,-3.0781,-3.082,-3.0879,-3.084,-3.084,-3.0898,-3.0898,-3.0898,-3.0898,-3.0898,-3.0937,-3.0937,-3.0996,-3.1152,-3.1523,-3.168,-3.1914,-3.2578,-3.2812,-3.3027,-3.3301,-3.3398,-3.3418,-3.3418,-3.3418,-3.3627,-3.3898,-3.4275,-3.461,-3.4859,-3.517,-3.5294,-3.5356,-3.5418,-3.5418,-3.5418,-3.5418,-3.5418,-3.5541,-3.5603,-3.5788,-3.5951,-3.6664,-3.7127,-3.765,-3.8313,-3.9036,-3.9911,-3.981,-3.9616,-4.0291,-4.0219,-4.0059,-3.9919,-3.9973,-3.9747,-3.9722,-3.9824,-3.9799,-3.98,-4.0006,-4.0083,-4.0134,-4.0287,-4.0542,-4.0795,-4.1021,-4.1222,-3.6035,-3.6035,-3.6035,-3.6035,-3.6035,-3.6035,-3.6035,-3.6016,-3.5967,-3.5879,-3.5947,-3.6035,-3.5694,-3.5351,-3.4902,-3.4473,-3.4023,-3.3613,-3.3418,-3.3418,-3.3418,-3.3418,-3.3418,-3.3301,-3.3027,-3.2637,-3.2422,-3.207,-3.1406,-3.1348,-3.1211,-3.0898,-3.0918,-3.0898,-3.0898,-3.0898,-3.0898,-3.0898,-3.0898,-3.0898,-3.0898,-3.0898,-3.0898,-3.0898,-3.0898,-3.0898,-3.0898,-3.0898,-3.0898,-3.0898,-3.0898,-3.0898,-3.0898,-3.0898,-3.0898,-3.0937,-3.0918,-3.1055,-3.1289,-3.1348,-3.1562,-3.1973,-3.2226,-3.2559,-3.2754,-3.3086,-3.3281,-3.3418,-3.3418,-3.3418,-3.3418,-3.3457,-3.3638,-3.4,-3.4306,-3.4566,-3.4858,-3.4984,-3.5108,-3.5356,-3.5397,-3.5397,-3.5397,-3.5438,-3.5418,-3.5418,-3.5418,-3.5418,-3.5541,-3.5644,-3.6298,-3.7067,-3.7717,-3.8408,-3.8895,-3.8816,-3.9075,-4.0018,-4.0202,-4.0163,-4.0298,-4.0601,-4.0174,-3.9823,-3.9998,-4.0049,-3.9848,-3.9825,-3.98,-3.9954,-4.0032,-4.0287,-4.0338,-4.0542,-4.0694,-3.6035,-3.6035,-3.6035,-3.6035,-3.6035,-3.6035,-3.5655,-3.5177,-3.5108,-3.504,-3.5002,-3.4831,-3.4883,-3.5078,-3.4629,-3.4199,-3.3789,-3.3535,-3.3418,-3.3418,-3.3418,-3.3418,-3.3418,-3.3418,-3.3203,-3.2832,-3.2793,-3.2402,-3.1894,-3.1797,-3.1562,-3.125,-3.1152,-3.1074,-3.0898,-3.0898,-3.0898,-3.0898,-3.0898,-3.0898,-3.0898,-3.0898,-3.0898,-3.0898,-3.0898,-3.0898,-3.0898,-3.0898,-3.0898,-3.0898,-3.0898,-3.0898,-3.0898,-3.0898,-3.0976,-3.1113,-3.1152,-3.1348,-3.168,-3.1797,-3.1992,-3.2363,-3.2695,-3.2871,-3.3047,-3.3301,-3.3418,-3.3418,-3.3418,-3.3516,-3.3691,-3.3848,-3.4062,-3.4322,-3.4487,-3.4648,-3.4966,-3.5197,-3.5303,-3.5452,-3.5518,-3.5458,-3.55,-3.5438,-3.5397,-3.5418,-3.5418,-3.5418,-3.5418,-3.5418,-3.5624,-3.6361,-3.6785,-3.7265,-3.7821,-3.791,-3.842,-3.9312,-4.0467,-4.0384,-4.0621,-4.0993,-4.0802,-4.045,-4.04,-4.03,-4.0149,-3.9998,-3.995,-4.0002,-3.9979,-4.0031,-4.0159,-4.0388,-4.0491,-3.6035,-3.6035,-3.6035,-3.6035,-3.5947,-3.5811,-3.504,-3.3988,-3.3988,-3.3882,-3.3753,-3.3321,-3.3696,-3.4413,-3.3823,-3.3591,-3.3184,-3.3311,-3.3418,-3.3418,-3.3418,-3.3418,-3.3418,-3.3418,-3.3242,-3.2969,-3.2871,-3.2637,-3.2324,-3.2226,-3.1992,-3.166,-3.1543,-3.1309,-3.1055,-3.0937,-3.0898,-3.0898,-3.0898,-3.0898,-3.0898,-3.0898,-3.0898,-3.0898,-3.0898,-3.0898,-3.0898,-3.0898,-3.0918,-3.0976,-3.0918,-3.0937,-3.0937,-3.0976,-3.1191,-3.1504,-3.1601,-3.1777,-3.2148,-3.2246,-3.2422,-3.2773,-3.2871,-3.3008,-3.3301,-3.3398,-3.3418,-3.3418,-3.3418,-3.3613,-3.4004,-3.4434,-3.4707,-3.4785,-3.4831,-3.4956,-3.5198,-3.5486,-3.5686,-3.5731,-3.5605,-3.5654,-3.5638,-3.5602,-3.5542,-3.5935,-3.5873,-3.5894,-3.5832,-3.5749,-3.5707,-3.5811,-3.6016,-3.5951,-3.6542,-3.7084,-3.7761,-3.8644,-4.0287,-4.0902,-4.0973,-4.125,-4.1293,-4.1175,-4.0927,-4.0752,-4.0651,-4.0501,-4.035,-4.03,-4.043,-4.0332,-4.0232,-4.0537,-4.0691,-3.6035,-3.6035,-3.6035,-3.6035,-3.5811,-3.4746,-3.4107,-3.3762,-3.378,-3.3459,-3.3253,-3.3193,-3.2887,-3.2571,-3.2441,-3.2199,-3.1937,-3.2702,-3.3418,-3.3418,-3.3418,-3.3418,-3.3418,-3.3418,-3.3359,-3.3262,-3.3281,-3.3047,-3.2754,-3.2637,-3.2441,-3.2051,-3.1758,-3.1484,-3.1348,-3.1074,-3.0898,-3.0898,-3.0898,-3.0898,-3.0898,-3.0898,-3.0898,-3.0898,-3.0898,-3.0898,-3.0898,-3.0898,-3.1055,-3.1211,-3.1133,-3.1113,-3.1328,-3.1387,-3.1601,-3.1914,-3.2031,-3.2207,-3.2559,-3.2676,-3.2832,-3.3184,-3.3242,-3.332,-3.3379,-3.3418,-3.3418,-3.3418,-3.3418,-3.3672,-3.416,-3.4824,-3.5156,-3.5293,-3.5488,-3.5664,-3.574,-3.5514,-3.5545,-3.5641,-3.569,-3.5804,-3.6061,-3.6088,-3.6177,-3.643,-3.6473,-3.6473,-3.6328,-3.6121,-3.6039,-3.5956,-3.5894,-3.5977,-3.5975,-3.6526,-3.7006,-3.785,-3.937,-4.0673,-4.0821,-4.1225,-4.1219,-4.125,-4.125,-4.115,-4.1229,-4.11,-4.1028,-4.0978,-4.0877,-4.0805,-4.0782,-4.0883,-4.091,-3.4971,-3.4952,-3.4971,-3.4971,-3.4971,-3.4834,-3.4038,-3.291,-3.2718,-3.207,-3.1167,-3.0978,-3.0885,-3.0959,-3.0763,-3.0532,-3.0649,-3.1771,-3.2765,-3.3228,-3.3418,-3.3418,-3.3418,-3.3418,-3.3418,-3.3418,-3.3418,-3.3262,-3.3144,-3.3047,-3.2871,-3.25,-3.2207,-3.1894,-3.1562,-3.1289,-3.1094,-3.0918,-3.0898,-3.0898,-3.0898,-3.0898,-3.0898,-3.0898,-3.0918,-3.0957,-3.1172,-3.1191,-3.1426,-3.1641,-3.1621,-3.1582,-3.1758,-3.1836,-3.2051,-3.2363,-3.2461,-3.2656,-3.2969,-3.3105,-3.3184,-3.3398,-3.3418,-3.3418,-3.3418,-3.3418,-3.3535,-3.3672,-3.3789,-3.3965,-3.4629,-3.5234,-3.5625,-3.5723,-3.5879,-3.6016,-3.5937,-3.572,-3.5645,-3.5805,-3.5818,-3.5936,-3.6073,-3.6253,-3.633,-3.6401,-3.6616,-3.668,-3.666,-3.6494,-3.6494,-3.6411,-3.6246,-3.608,-3.5811,-3.5976,-3.6258,-3.7067,-3.8127,-3.9252,-3.9848,-4.0397,-4.0959,-4.1139,-4.1469,-4.1827,-4.1882,-4.1806,-4.1551,-4.125,-4.115,-4.125,-4.1304,-4.1257,-4.1207,-3.4089,-3.4033,-3.4089,-3.4057,-3.3988,-3.4746,-3.3499,-3.1265,-3.107,-3.0206,-2.8847,-2.8164,-2.8921,-2.9261,-2.9089,-2.8937,-2.9639,-3.0743,-3.2027,-3.2765,-3.3292,-3.3355,-3.3418,-3.3418,-3.3418,-3.3418,-3.3418,-3.3379,-3.3379,-3.3398,-3.3184,-3.291,-3.2773,-3.2402,-3.1855,-3.1621,-3.1504,-3.125,-3.1113,-3.1055,-3.0996,-3.0976,-3.0918,-3.1055,-3.1191,-3.1328,-3.1562,-3.166,-3.1816,-3.2287,-3.2266,-3.2305,-3.2344,-3.2305,-3.2461,-3.2851,-3.2891,-3.3027,-3.3262,-3.3379,-3.3379,-3.3418,-3.3418,-3.3476,-3.3516,-3.3613,-3.3789,-3.4062,-3.4297,-3.459,-3.5312,-3.5703,-3.5937,-3.5996,-3.6016,-3.6035,-3.6035,-3.6035,-3.6005,-3.5947,-3.5913,-3.5957,-3.6124,-3.6288,-3.633,-3.6387,-3.665,-3.6844,-3.6823,-3.6825,-3.6784,-3.6784,-3.6639,-3.6287,-3.5997,-3.5645,-3.5932,-3.6359,-3.7248,-3.7947,-3.8862,-3.957,-4.0287,-4.1379,-4.1766,-4.1954,-4.2133,-4.2168,-4.1893,-4.1601,-4.1681,-4.1957,-4.1856,-4.1551,-4.1576,-3.5394,-3.5172,-3.552,-3.4952,-3.3692,-3.277,-3.1249,-2.9471,-2.9369,-2.8718,-2.7847,-2.7788,-2.7665,-2.763,-2.7533,-2.8065,-2.9248,-3.0466,-3.1451,-3.211,-3.2892,-3.3355,-3.3418,-3.3418,-3.3418,-3.3418,-3.3418,-3.3418,-3.3418,-3.3398,-3.3359,-3.3223,-3.2988,-3.2656,-3.2461,-3.2266,-3.2012,-3.1777,-3.1562,-3.1426,-3.1367,-3.1191,-3.1152,-3.1406,-3.166,-3.1894,-3.2012,-3.209,-3.2266,-3.2637,-3.2676,-3.2871,-3.2988,-3.2832,-3.291,-3.3164,-3.3262,-3.3301,-3.3398,-3.3418,-3.3418,-3.3418,-3.3457,-3.3652,-3.3848,-3.3984,-3.418,-3.4551,-3.4922,-3.5234,-3.5371,-3.5781,-3.5976,-3.6035,-3.6035,-3.6035,-3.6035,-3.6035,-3.5996,-3.5918,-3.5927,-3.6003,-3.6075,-3.6137,-3.6242,-3.6305,-3.6445,-3.6742,-3.6844,-3.6897,-3.6862,-3.6947,-3.7011,-3.6577,-3.6163,-3.5769,-3.5644,-3.5849,-3.6481,-3.7006,-3.791,-3.8744,-3.9569,-3.9861,-4.0639,-4.1151,-4.1476,-4.1928,-4.1941,-4.1397,-4.196,-4.2579,-4.2213,-4.1903,-4.2434,-3.4191,-3.4161,-3.3582,-3.2968,-3.226,-3.1635,-3.0246,-2.8697,-2.8525,-2.7755,-2.6863,-2.6588,-2.642,-2.6176,-2.6032,-2.7153,-2.8986,-2.9835,-3.1001,-3.2174,-3.3082,-3.3418,-3.3418,-3.3418,-3.3418,-3.3418,-3.3418,-3.3418,-3.3418,-3.3418,-3.3418,-3.3379,-3.3203,-3.3027,-3.2812,-3.2598,-3.2383,-3.2207,-3.1973,-3.1855,-3.1836,-3.1621,-3.1699,-3.1855,-3.2051,-3.2266,-3.2461,-3.25,-3.2695,-3.3027,-3.3125,-3.3242,-3.3281,-3.3281,-3.3203,-3.3379,-3.3418,-3.3418,-3.3418,-3.3418,-3.3418,-3.3457,-3.3613,-3.3828,-3.4062,-3.4277,-3.4609,-3.5019,-3.543,-3.5723,-3.5742,-3.5898,-3.5996,-3.6035,-3.6035,-3.6035,-3.6035,-3.6035,-3.5937,-3.584,-3.5879,-3.5936,-3.5807,-3.5909,-3.609,-3.6236,-3.6299,-3.6532,-3.678,-3.6856,-3.6807,-3.702,-3.7085,-3.682,-3.6387,-3.5975,-3.5624,-3.5749,-3.5996,-3.6529,-3.6731,-3.7505,-3.7418,-3.721,-3.8268,-3.9837,-4.0187,-4.0405,-4.0822,-4.1272,-4.1403,-4.1638,-4.2019,-4.2319,-4.2513,-3.2698,-3.2783,-3.1356,-3.0702,-3.0478,-3.0478,-2.9379,-2.8016,-2.7692,-2.6886,-2.5599,-2.5486,-2.5354,-2.5178,-2.539,-2.6435,-2.874,-2.8986,-3.0613,-3.2365,-3.3228,-3.3418,-3.3418,-3.3418,-3.3418,-3.3418,-3.3418,-3.3418,-3.3418,-3.3418,-3.3418,-3.3398,-3.3418,-3.3281,-3.2988,-3.2949,-3.2676,-3.2519,-3.2305,-3.2285,-3.2207,-3.2246,-3.2305,-3.2385,-3.2363,-3.2617,-3.2891,-3.293,-3.3047,-3.3281,-3.3379,-3.3398,-3.3418,-3.3418,-3.3457,-3.3516,-3.3476,-3.3457,-3.3535,-3.3437,-3.3516,-3.3809,-3.3945,-3.4121,-3.4473,-3.4824,-3.5156,-3.5488,-3.5762,-3.5976,-3.5957,-3.6016,-3.6035,-3.6035,-3.6035,-3.6035,-3.6035,-3.5996,-3.5898,-3.5879,-3.5918,-3.5703,-3.5524,-3.5367,-3.5468,-3.5561,-3.5645,-3.6002,-3.6248,-3.6501,-3.6618,-3.6938,-3.7049,-3.6889,-3.6606,-3.63,-3.5992,-3.587,-3.6101,-3.6394,-3.6227,-3.6227,-3.606,-3.6329,-3.6921,-3.8341,-3.8604,-3.9121,-3.9744,-4.0268,-4.0442,-4.0616,-4.0789,-4.1043,-4.1272,-3.2368,-3.1997,-3.0985,-2.9832,-2.8733,-2.8611,-2.7592,-2.6022,-2.5992,-2.5609,-2.5154,-2.5125,-2.511,-2.5134,-2.5066,-2.5981,-2.7352,-2.8592,-2.9965,-3.1707,-3.2702,-3.3146,-3.3292,-3.3418,-3.3019,-3.2829,-3.3019,-3.3418,-3.3292,-3.3228,-3.3418,-3.3418,-3.3418,-3.3379,-3.3281,-3.3242,-3.332,-3.3203,-3.2891,-3.2559,-3.2363,-3.2559,-3.2695,-3.2812,-3.3008,-3.3184,-3.3262,-3.3262,-3.334,-3.3379,-3.3418,-3.3418,-3.3418,-3.3418,-3.3652,-3.375,-3.373,-3.3594,-3.3867,-3.375,-3.3809,-3.4199,-3.4316,-3.4551,-3.5,-3.5469,-3.5762,-3.5898,-3.5996,-3.6016,-3.6035,-3.6035,-3.6035,-3.6035,-3.6035,-3.6035,-3.6035,-3.6016,-3.5918,-3.5781,-3.5801,-3.5391,-3.5066,-3.4949,-3.4831,-3.4923,-3.5074,-3.5448,-3.5739,-3.603,-3.6443,-3.6783,-3.6963,-3.6872,-3.6693,-3.6391,-3.6146,-3.6027,-3.6177,-3.6368,-3.6286,-3.6119,-3.6266,-3.6562,-3.6958,-3.716,-3.7684,-3.8236,-3.8894,-3.9098,-3.9075,-3.9216,-3.9393,-3.9709,-4.0199,-3.0707,-3.0712,-2.9396,-2.8581,-2.7968,-2.7092,-2.6169,-2.5437,-2.5257,-2.5183,-2.5081,-2.5066,-2.5066,-2.5066,-2.5066,-2.5846,-2.702,-2.7816,-2.9296,-3.0918,-3.1899,-3.2237,-3.2174,-3.211,-3.1963,-3.1277,-3.1148,-3.1451,-3.2046,-3.3019,-3.3418,-3.3418,-3.3418,-3.3418,-3.3418,-3.3418,-3.3418,-3.334,-3.3223,-3.3066,-3.2969,-3.3047,-3.3144,-3.3144,-3.332,-3.3398,-3.3418,-3.3418,-3.3418,-3.3418,-3.3418,-3.3418,-3.3418,-3.3457,-3.3613,-3.4004,-3.3906,-3.4004,-3.4316,-3.4219,-3.4394,-3.4629,-3.4785,-3.5137,-3.5644,-3.5898,-3.6035,-3.6016,-3.6016,-3.6035,-3.6035,-3.6035,-3.6035,-3.6035,-3.6035,-3.6035,-3.6016,-3.5996,-3.5937,-3.5801,-3.5664,-3.5332,-3.5078,-3.5098,-3.4961,-3.4792,-3.4877,-3.508,-3.5416,-3.5686,-3.6176,-3.6622,-3.6743,-3.6803,-3.6607,-3.639,-3.6148,-3.603,-3.6187,-3.6316,-3.6465,-3.6488,-3.6593,-3.666,-3.6854,-3.7044,-3.7041,-3.7053,-3.7345,-3.7478,-3.761,-3.7983,-3.8432,-3.9072,-3.9485,-2.9221,-2.9077,-2.7617,-2.7009,-2.7009,-2.5882,-2.5286,-2.5081,-2.5066,-2.5066,-2.5066,-2.5066,-2.5066,-2.5066,-2.5187,-2.5846,-2.7086,-2.7086,-2.8575,-3.0142,-3.1065,-3.113,-3.1065,-3.0936,-3.066,-2.9182,-2.9639,-3.029,-3.1387,-3.2237,-3.2892,-3.3355,-3.3418,-3.3418,-3.3418,-3.3418,-3.3418,-3.3398,-3.3398,-3.3359,-3.3359,-3.3359,-3.3398,-3.3398,-3.3418,-3.3418,-3.3418,-3.3418,-3.3418,-3.3418,-3.3418,-3.3457,-3.3594,-3.3672,-3.3965,-3.4355,-3.4473,-3.4648,-3.4844,-3.4844,-3.4863,-3.5059,-3.5273,-3.5625,-3.5879,-3.6035,-3.6035,-3.6035,-3.6035,-3.6035,-3.6035,-3.6035,-3.6035,-3.6035,-3.6035,-3.6035,-3.6035,-3.6016,-3.5996,-3.5918,-3.5762,-3.5586,-3.543,-3.5488,-3.5273,-3.4844,-3.4785,-3.4883,-3.523,-3.5645,-3.5902,-3.6403,-3.6412,-3.6515,-3.6442,-3.625,-3.603,-3.6108,-3.6249,-3.653,-3.6697,-3.6893,-3.7023,-3.7006,-3.6926,-3.6891,-3.7044,-3.6373,-3.5832,-3.6601,-3.7183,-3.7179,-3.7544,-3.8243,-3.8567,-2.8411,-2.7185,-2.5891,-2.5366,-2.5366,-2.5163,-2.5149,-2.5066,-2.5066,-2.5066,-2.5066,-2.5066,-2.5066,-2.5066,-2.5187,-2.5779,-2.702,-2.7086,-2.7998,-2.9296,-3.0466,-3.0142,-2.9965,-3.0012,-3.0207,-2.9051,-2.8592,-2.9426,-3.0854,-3.1065,-3.2174,-3.3228,-3.3292,-3.3355,-3.3418,-3.3418,-3.3418,-3.3418,-3.3418,-3.3418,-3.3418,-3.3418,-3.3418,-3.3437,-3.3418,-3.3418,-3.3418,-3.3516,-3.3574,-3.3594,-3.3613,-3.373,-3.3965,-3.4023,-3.4375,-3.4883,-3.5078,-3.5293,-3.5508,-3.5273,-3.5234,-3.5644,-3.5918,-3.5918,-3.6016,-3.6035,-3.6035,-3.6035,-3.6035,-3.6035,-3.6035,-3.6035,-3.6035,-3.6035,-3.6035,-3.6035,-3.6035,-3.6035,-3.6016,-3.5976,-3.5879,-3.5742,-3.5703,-3.5742,-3.5625,-3.5215,-3.5254,-3.5371,-3.5566,-3.5897,-3.5888,-3.6084,-3.6084,-3.6112,-3.6112,-3.6071,-3.6095,-3.6256,-3.6416,-3.683,-3.7171,-3.733,-3.7258,-3.7242,-3.7143,-3.7047,-3.6947,-3.6568,-3.6444,-3.6637,-3.6831,-3.6939,-3.696,-3.742,-3.7506,-2.8854,-2.8196,-2.6048,-2.5066,-2.5066,-2.5066,-2.5066,-2.5066,-2.5066,-2.5066,-2.5066,-2.5066,-2.5066,-2.5066,-2.5119,-2.5322,-2.5846,-2.5846,-2.6769,-2.7618,-2.8328,-2.8328,-2.8196,-2.8196,-2.7998,-2.702,-2.682,-2.7336,-2.8509,-2.9687,-3.0872,-3.1835,-3.2912,-3.3355,-3.3418,-3.3418,-3.3418,-3.3418,-3.3418,-3.3418,-3.3418,-3.3418,-3.3418,-3.3418,-3.375,-3.3809,-3.3867,-3.4101,-3.418,-3.418,-3.416,-3.4277,-3.4414,-3.4453,-3.4785,-3.5332,-3.543,-3.5644,-3.5918,-3.5684,-3.5723,-3.584,-3.6016,-3.6035,-3.6055,-3.6035,-3.6035,-3.6035,-3.6035,-3.6035,-3.6035,-3.6035,-3.6035,-3.6035,-3.6035,-3.6035,-3.6035,-3.6035,-3.6016,-3.5996,-3.5996,-3.5957,-3.5957,-3.5996,-3.582,-3.5644,-3.5742,-3.582,-3.5957,-3.6035,-3.6035,-3.6035,-3.6035,-3.6035,-3.6016,-3.6152,-3.62,-3.6336,-3.6519,-3.6809,-3.7079,-3.7193,-3.7145,-3.7238,-3.7264,-3.7101,-3.7019,-3.6973,-3.6963,-3.6831,-3.68,-3.6806,-3.6827,-3.6887,-3.697,-2.9182,-2.8854,-2.6234,-2.5066,-2.5066,-2.5066,-2.5066,-2.5066,-2.5066,-2.5066,-2.5066,-2.5066,-2.5066,-2.5066,-2.5119,-2.5119,-2.5187,-2.5255,-2.5712,-2.6435,-2.702,-2.682,-2.6753,-2.682,-2.682,-2.539,-2.5187,-2.5898,-2.7403,-2.8592,-2.9705,-3.1037,-3.2542,-3.3364,-3.3418,-3.3418,-3.3418,-3.3418,-3.3574,-3.3613,-3.3633,-3.3769,-3.3848,-3.3887,-3.4141,-3.4238,-3.4297,-3.4453,-3.457,-3.4609,-3.4629,-3.4746,-3.4844,-3.4961,-3.5156,-3.541,-3.5625,-3.5742,-3.5937,-3.6016,-3.6074,-3.623,-3.6074,-3.6113,-3.6152,-3.6094,-3.6035,-3.6035,-3.6035,-3.6035,-3.6035,-3.6035,-3.6035,-3.6035,-3.6035,-3.6035,-3.6035,-3.6035,-3.6035,-3.6016,-3.6035,-3.6035,-3.6035,-3.6035,-3.5996,-3.5859,-3.5879,-3.5918,-3.5976,-3.6035,-3.6035,-3.6035,-3.6035,-3.6035,-3.6035,-3.6084,-3.6152,-3.6152,-3.6268,-3.6403,-3.6674,-3.6809,-3.7011,-3.7132,-3.7179,-3.7126,-3.7065,-3.6991,-3.6948,-3.6926,-3.6955,-3.7065,-3.7384,-3.7508,-3.7425,-2.9182,-2.8854,-2.6234,-2.5066,-2.5066,-2.5066,-2.5066,-2.5066,-2.5066,-2.5066,-2.5066,-2.5066,-2.5066,-2.5066,-2.5066,-2.5066,-2.5066,-2.5066,-2.5255,-2.5577,-2.6301,-2.6167,-2.6048,-2.6048,-2.6167,-2.5322,-2.5202,-2.5779,-2.7,-2.8229,-2.9053,-3.0175,-3.2023,-3.3714,-3.3413,-3.3457,-3.3457,-3.3496,-3.3887,-3.4023,-3.4121,-3.4355,-3.4434,-3.4492,-3.4609,-3.4687,-3.4746,-3.4863,-3.498,-3.4961,-3.4941,-3.5078,-3.5332,-3.5371,-3.5566,-3.5879,-3.5937,-3.5996,-3.6035,-3.6035,-3.6172,-3.6367,-3.6152,-3.6133,-3.6387,-3.6289,-3.6035,-3.6035,-3.6094,-3.6094,-3.6055,-3.6094,-3.6172,-3.6211,-3.625,-3.6269,-3.6309,-3.6328,-3.6387,-3.6269,-3.6113,-3.6035,-3.6035,-3.6035,-3.6074,-3.6055,-3.6035,-3.6035,-3.6055,-3.6055,-3.6055,-3.6133,-3.6152,-3.6269,-3.6269,-3.6074,-3.6016,-3.6016,-3.6103,-3.6259,-3.6375,-3.653,-3.6781,-3.6964,-3.6944,-3.6742,-3.6876,-3.7059,-3.6904,-3.6809,-3.7304,-3.7545,-3.7847,-3.8026,-3.7794,-2.9182,-2.892,-2.6234,-2.5066,-2.5066,-2.5066,-2.5066,-2.5066,-2.5066,-2.5066,-2.5066,-2.5066,-2.5066,-2.5066,-2.5066,-2.5066,-2.5066,-2.5066,-2.5066,-2.5187,-2.5712,-2.5524,-2.539,-2.5524,-2.5577,-2.5255,-2.5134,-2.5402,-2.6057,-2.7637,-2.827,-2.9177,-3.1341,-3.3331,-3.4037,-3.4277,-3.4277,-3.4297,-3.4434,-3.4492,-3.4512,-3.4648,-3.4746,-3.4766,-3.5019,-3.5137,-3.5176,-3.5332,-3.5449,-3.5469,-3.5449,-3.5586,-3.5742,-3.5781,-3.5859,-3.6016,-3.6035,-3.6035,-3.6035,-3.6035,-3.6074,-3.6191,-3.6211,-3.6152,-3.6211,-3.6133,-3.6035,-3.6133,-3.6348,-3.6406,-3.6465,-3.6758,-3.6875,-3.6914,-3.6953,-3.6953,-3.6973,-3.6953,-3.6934,-3.666,-3.6465,-3.6269,-3.6191,-3.6387,-3.6445,-3.6367,-3.6348,-3.6211,-3.6172,-3.6133,-3.6113,-3.6269,-3.6367,-3.6523,-3.6543,-3.6426,-3.6504,-3.666,-3.6426,-3.624,-3.6289,-3.6436,-3.6445,-3.6689,-3.6522,-3.6355,-3.6629,-3.6845,-3.6666,-3.6654,-3.724,-3.7516,-3.7662,-3.7775,-3.7822,-2.892,-2.8213,-2.6048,-2.5066,-2.5066,-2.5066,-2.5066,-2.5066,-2.5066,-2.5066,-2.5066,-2.5066,-2.5066,-2.5066,-2.5066,-2.5066,-2.5066,-2.5066,-2.5066,-2.5066,-2.5119,-2.5119,-2.5119,-2.5066,-2.5187,-2.5081,-2.5198,-2.5413,-2.5712,-2.7053,-2.8301,-2.9506,-3.0515,-3.183,-3.301,-3.389,-3.4629,-3.4668,-3.4766,-3.4941,-3.5,-3.5098,-3.5195,-3.5293,-3.5449,-3.5605,-3.5684,-3.584,-3.6035,-3.6035,-3.6035,-3.6035,-3.6035,-3.6035,-3.6035,-3.6035,-3.6191,-3.623,-3.6269,-3.6484,-3.6562,-3.6582,-3.6348,-3.6406,-3.6523,-3.666,-3.6582,-3.6621,-3.6738,-3.6836,-3.6953,-3.7285,-3.7324,-3.7363,-3.7344,-3.7344,-3.7324,-3.7285,-3.7246,-3.6973,-3.6816,-3.6621,-3.6504,-3.6699,-3.6894,-3.6777,-3.668,-3.6543,-3.6426,-3.6406,-3.6445,-3.6601,-3.6719,-3.6875,-3.6914,-3.6816,-3.6973,-3.7246,-3.6953,-3.6523,-3.6621,-3.6827,-3.6582,-3.6445,-3.6612,-3.674,-3.6612,-3.6573,-3.6711,-3.6937,-3.736,-3.7521,-3.7449,-3.7543,-3.7691,-2.8394,-2.702,-2.5644,-2.5066,-2.5066,-2.5066,-2.5066,-2.5066,-2.5066,-2.5066,-2.5066,-2.5066,-2.5066,-2.5066,-2.5066,-2.5066,-2.5066,-2.5066,-2.5066,-2.5066,-2.5066,-2.5066,-2.5066,-2.5066,-2.5066,-2.5169,-2.5315,-2.5476,-2.5717,-2.6937,-2.8643,-2.9642,-2.9514,-3.0469,-3.1755,-3.3083,-3.388,-3.406,-3.4193,-3.448,-3.4739,-3.5259,-3.5472,-3.5665,-3.5879,-3.5918,-3.5937,-3.5996,-3.6035,-3.6035,-3.6035,-3.6035,-3.6035,-3.6035,-3.6035,-3.6172,-3.6465,-3.6562,-3.6738,-3.6973,-3.7168,-3.7129,-3.6934,-3.7246,-3.7324,-3.7207,-3.7051,-3.707,-3.7207,-3.7266,-3.7383,-3.7441,-3.7519,-3.7519,-3.7519,-3.75,-3.75,-3.748,-3.7441,-3.7324,-3.7246,-3.7109,-3.707,-3.7207,-3.7324,-3.7324,-3.7305,-3.7402,-3.7266,-3.6992,-3.7051,-3.7168,-3.7246,-3.7266,-3.7266,-3.7246,-3.7402,-3.7676,-3.7363,-3.7031,-3.7187,-3.7207,-3.6992,-3.6934,-3.7148,-3.7168,-3.6953,-3.6992,-3.7129,-3.7409,-3.748,-3.753,-3.7485,-3.7393,-3.7461,-2.8394,-2.702,-2.5644,-2.5066,-2.5066,-2.5066,-2.5066,-2.5066,-2.5066,-2.5066,-2.5066,-2.5066,-2.5066,-2.5066,-2.5066,-2.5066,-2.5066,-2.5066,-2.5066,-2.5066,-2.5066,-2.5066,-2.5066,-2.5066,-2.5066,-2.5169,-2.5374,-2.5681,-2.5959,-2.6993,-2.7451,-2.789,-2.8703,-2.9369,-3.0189,-3.1548,-3.2068,-3.2516,-3.2693,-3.3436,-3.3972,-3.4327,-3.4902,-3.5538,-3.5811,-3.5811,-3.5967,-3.6035,-3.6035,-3.6035,-3.6035,-3.6035,-3.6035,-3.6035,-3.6094,-3.6465,-3.666,-3.6777,-3.7051,-3.7226,-3.7441,-3.7695,-3.7598,-3.7441,-3.75,-3.748,-3.7402,-3.7519,-3.7656,-3.7734,-3.7812,-3.7871,-3.7949,-3.7988,-3.7988,-3.7988,-3.7969,-3.7969,-3.791,-3.7754,-3.7656,-3.7539,-3.7519,-3.7656,-3.7754,-3.7832,-3.791,-3.8027,-3.7988,-3.7695,-3.7598,-3.7695,-3.7676,-3.7676,-3.7734,-3.7734,-3.7891,-3.8008,-3.7734,-3.7559,-3.7617,-3.7598,-3.7402,-3.7383,-3.7539,-3.7461,-3.7246,-3.7363,-3.7578,-3.7363,-3.7437,-3.7459,-3.755,-3.748,-3.7519,-2.8065,-2.6301,-2.5457,-2.5066,-2.5066,-2.5066,-2.5066,-2.5066,-2.5066,-2.5066,-2.5066,-2.5066,-2.5066,-2.5066,-2.5066,-2.5066,-2.5066,-2.5066,-2.5066,-2.5066,-2.5066,-2.5066,-2.5066,-2.5066,-2.5066,-2.5198,-2.5476,-2.5842,-2.6179,-2.6617,-2.7056,-2.7245,-2.8042,-2.8259,-2.866,-2.9131,-2.9504,-3.0201,-3.0855,-3.193,-3.2491,-3.2997,-3.3831,-3.4902,-3.5177,-3.5519,-3.5967,-3.6035,-3.6035,-3.6035,-3.6035,-3.6133,-3.6269,-3.6426,-3.6582,-3.6934,-3.7148,-3.7305,-3.7539,-3.7773,-3.7949,-3.8086,-3.8164,-3.8066,-3.7969,-3.7949,-3.791,-3.7949,-3.8086,-3.8203,-3.8301,-3.8379,-3.8476,-3.8555,-3.8555,-3.8555,-3.8555,-3.8535,-3.8398,-3.8203,-3.8047,-3.793,-3.7949,-3.8086,-3.8184,-3.8223,-3.8262,-3.834,-3.834,-3.8184,-3.8105,-3.8164,-3.8086,-3.8027,-3.8105,-3.8144,-3.8223,-3.8281,-3.8203,-3.8086,-3.8105,-3.8066,-3.7969,-3.7891,-3.7891,-3.7812,-3.7773,-3.7832,-3.793,-3.7754,-3.7695,-3.7896,-3.7901,-3.7586,-3.7667,-2.7618,-2.5119,-2.5066,-2.5066,-2.5066,-2.5066,-2.5066,-2.5066,-2.5066,-2.5066,-2.5066,-2.5066,-2.5066,-2.5066,-2.5066,-2.5066,-2.5066,-2.5066,-2.5066,-2.5066,-2.5066,-2.5066,-2.5066,-2.5066,-2.5066,-2.5271,-2.5622,-2.6047,-2.6266,-2.6676,-2.6998,-2.6998,-2.7129,-2.7347,-2.7492,-2.7565,-2.7913,-2.8186,-2.9465,-3.073,-3.1226,-3.1578,-3.2211,-3.3623,-3.4264,-3.4746,-3.5675,-3.6035,-3.6035,-3.6055,-3.6152,-3.6328,-3.6699,-3.6973,-3.7168,-3.7383,-3.7598,-3.7793,-3.7988,-3.8203,-3.8379,-3.8496,-3.8574,-3.8457,-3.834,-3.8301,-3.8281,-3.8281,-3.8379,-3.8398,-3.8457,-3.8476,-3.8555,-3.8574,-3.8574,-3.8574,-3.8574,-3.8574,-3.8516,-3.8379,-3.8359,-3.8242,-3.8262,-3.8379,-3.8359,-3.8496,-3.8535,-3.8574,-3.8555,-3.8457,-3.8457,-3.8476,-3.8379,-3.8301,-3.8379,-3.8418,-3.8476,-3.8516,-3.8476,-3.8457,-3.8359,-3.8437,-3.8555,-3.8379,-3.8203,-3.8359,-3.8398,-3.834,-3.8281,-3.8301,-3.832,-3.8457,-3.8353,-3.7923,-3.7916,-2.7618,-2.5119,-2.5066,-2.5066,-2.5066,-2.5066,-2.5066,-2.5066,-2.5066,-2.5066,-2.5066,-2.5066,-2.5066,-2.5066,-2.5066,-2.5066,-2.5066,-2.5066,-2.5066,-2.5066,-2.5066,-2.5066,-2.5066,-2.5066,-2.5066,-2.5339,-2.5666,-2.6252,-2.6632,-2.6896,-2.6998,-2.6998,-2.6998,-2.6998,-2.6998,-2.6998,-2.7056,-2.7129,-2.8042,-2.9393,-2.9949,-3.1155,-3.2211,-3.3623,-3.4471,-3.5264,-3.5986,-3.6055,-3.625,-3.6426,-3.6504,-3.6758,-3.7129,-3.7266,-3.748,-3.7715,-3.791,-3.8105,-3.8301,-3.8476,-3.8555,-3.8574,-3.8574,-3.8574,-3.8574,-3.8574,-3.8574,-3.8574,-3.8574,-3.8574,-3.8574,-3.8574,-3.8574,-3.8574,-3.8574,-3.8574,-3.8574,-3.8574,-3.8574,-3.8574,-3.8574,-3.8574,-3.8574,-3.8574,-3.8574,-3.8574,-3.8574,-3.8574,-3.8574,-3.8535,-3.8516,-3.8535,-3.8555,-3.8516,-3.8574,-3.8574,-3.8574,-3.8574,-3.8535,-3.8555,-3.8574,-3.8574,-3.8574,-3.8574,-3.8535,-3.8574,-3.8574,-3.8555,-3.8535,-3.8574,-3.8574,-3.8574,-3.8574,-3.8334,-3.8281,-2.7618,-2.5187,-2.5066,-2.5066,-2.5066,-2.5066,-2.5066,-2.5066,-2.5066,-2.5066,-2.5066,-2.5066,-2.5066,-2.5066,-2.5066,-2.5066,-2.5066,-2.5066,-2.5066,-2.5066,-2.5066,-2.5066,-2.5066,-2.5066,-2.5066,-2.5227,-2.574,-2.631,-2.6896,-2.6998,-2.6998,-2.6998,-2.6998,-2.6998,-2.6998,-2.6998,-2.6998,-2.7071,-2.755,-2.8403,-2.925,-3.0305,-3.1296,-3.27,-3.4057,-3.5184,-3.622,-3.6328,-3.6562,-3.6914,-3.7129,-3.7305,-3.7598,-3.7812,-3.7988,-3.8144,-3.8262,-3.832,-3.8496,-3.8574,-3.8574,-3.8574,-3.8574,-3.8574,-3.8574,-3.8574,-3.8574,-3.8574,-3.8574,-3.8574,-3.8574,-3.8574,-3.8574,-3.8574,-3.8574,-3.8574,-3.8574,-3.8574,-3.8574,-3.8574,-3.8574,-3.8574,-3.8574,-3.8574,-3.8574,-3.8574,-3.8574,-3.8574,-3.8574,-3.8574,-3.8574,-3.8574,-3.8574,-3.8574,-3.8574,-3.8574,-3.8574,-3.8574,-3.8574,-3.8574,-3.8574,-3.8574,-3.8574,-3.8574,-3.8574,-3.8574,-3.8574,-3.8574,-3.8574,-3.8574,-3.8574,-3.8574,-3.8574,-3.8574,-3.8535,-2.7618,-2.5255,-2.5066,-2.5066,-2.5066,-2.5066,-2.5066,-2.5066,-2.5066,-2.5066,-2.5066,-2.5066,-2.5066,-2.5066,-2.5066,-2.5066,-2.5066,-2.5066,-2.5066,-2.5066,-2.5066,-2.5066,-2.5066,-2.5066,-2.5154,-2.5418,-2.59,-2.6427,-2.6969,-2.6998,-2.6998,-2.6998,-2.6998,-2.6998,-2.6998,-2.6998,-2.6998,-2.7347,-2.7985,-2.8891,-2.9322,-2.9663,-3.1014,-3.2141,-3.3348,-3.496,-3.6197,-3.6777,-3.6973,-3.7363,-3.7715,-3.791,-3.8047,-3.8242,-3.8359,-3.8476,-3.8476,-3.8516,-3.8574,-3.8574,-3.8574,-3.8574,-3.8574,-3.8574,-3.8574,-3.8574,-3.8574,-3.8574,-3.8574,-3.8574,-3.8574,-3.8574,-3.8574,-3.8574,-3.8574,-3.8574,-3.8574,-3.8574,-3.8574,-3.8574,-3.8574,-3.8574,-3.8574,-3.8574,-3.8574,-3.8574,-3.8594,-3.8574,-3.8574,-3.8574,-3.8574,-3.8574,-3.8574,-3.8574,-3.8574,-3.8574,-3.8574,-3.8574,-3.8574,-3.8574,-3.8574,-3.8574,-3.8574,-3.8574,-3.8574,-3.8574,-3.8574,-3.8574,-3.8574,-3.8613,-3.8574,-3.8574,-3.8574,-3.8574,-3.8574,-2.7618,-2.5134,-2.5066,-2.5066,-2.5066,-2.5066,-2.5066,-2.5066,-2.5066,-2.5066,-2.5066,-2.5066,-2.5066,-2.5066,-2.5066,-2.5066,-2.5066,-2.5066,-2.5066,-2.5066,-2.5066,-2.5066,-2.5081,-2.514,-2.5403,-2.5754,-2.6149,-2.6588,-2.6954,-2.6998,-2.6998,-2.6998,-2.6998,-2.6998,-2.6998,-2.6998,-2.7071,-2.7492,-2.8259,-2.925,-3.0036,-3.0943,-3.2788,-3.4029,-3.5155,-3.6039,-3.6738,-3.7012,-3.7383,-3.7793,-3.8164,-3.834,-3.8418,-3.8476,-3.8555,-3.8574,-3.8574,-3.8574,-3.8574,-3.8574,-3.8574,-3.8574,-3.8574,-3.8574,-3.8574,-3.8574,-3.8574,-3.8574,-3.8574,-3.8574,-3.8574,-3.8574,-3.8574,-3.8574,-3.8574,-3.8574,-3.8574,-3.8574,-3.8574,-3.8574,-3.8574,-3.8574,-3.8574,-3.8574,-3.8574,-3.8594,-3.8652,-3.8652,-3.8711,-3.8652,-3.8652,-3.8691,-3.873,-3.8574,-3.8574,-3.8574,-3.8574,-3.8574,-3.8672,-3.8828,-3.8828,-3.8594,-3.8594,-3.8691,-3.8633,-3.8574,-3.8574,-3.8633,-3.8672,-3.8691,-3.8613,-3.8574,-3.8613,-3.8711,-3.8828]},{"header":{"parameterUnit":"m.s-1","parameterCategory":1,"la1":31.0,"la2":29.5877,"lo1":-88.7671,"lo2":-86.6584,"dy":0.0162,"dx":0.0185,"nx":115,"ny":88,"refTime":"2026-04-09T18:00:00:Z","depth":0,"parameterNumber":3,"parameterNumberName":"V-component_of_WINDS"},"data":[0.0,0.0,0.0,0.0,0.0,0.0,0.0,0.0,0.0,0.0,0.0,0.0,0.0,0.0,0.0,0.0,0.0,0.0,0.0,0.0,0.0,0.0,0.0,0.0,0.0,0.0,0.0,0.0,0.0,0.0,0.0,0.0,0.0,0.0,0.0,0.0,0.0,0.0,0.0,0.0,0.0,0.0,0.0,0.0,0.0,0.0,0.0,0.0,0.0,0.0,0.0,0.0,0.0,0.0,0.0,0.0,0.0,0.0,0.0,0.0,0.0,0.0,0.0,0.0,0.0,0.0,0.0,0.0,0.0,0.0,0.0,0.0,0.0,0.0,0.0,0.0,0.0,0.0,0.0,0.0,0.0,0.0,0.0,0.0,0.0,0.0,0.0,0.0,0.0,0.0,0.0,0.0,0.0,0.0,0.0,0.0,0.0,0.0,0.0,0.0,0.0,0.0,0.0,0.0,0.0,0.0,0.0,0.0,0.0,0.0,0.0,0.0,0.0,0.0,0.0,0.0,0.0,0.0,0.0,0.0,0.0,0.0,0.0,0.0,0.0,0.0,0.0,0.0,0.0,0.0,0.0,0.0,0.0,0.0,0.0,0.0,0.0,0.0,0.0,0.0,0.0,0.0,0.0,0.0,0.0,0.0,0.0,0.0,0.0,0.0,0.0,0.0,0.0,0.0,0.0,0.0,0.0,0.0,0.0,0.0,0.0,0.0,0.0,0.0,0.0,0.0,0.0,0.0,0.0,0.0,0.0,0.0,0.0,0.0,0.0,0.0,0.0,0.0,0.0,0.0,0.0,0.0,0.0,0.0,0.0,0.0,0.0,0.0,0.0,0.0,0.0,0.0,0.0,0.0,0.0,0.0,0.0,0.0,0.0,0.0,0.0,0.0,0.0,0.0,0.0,0.0,0.0,0.0,0.0,0.0,0.0,0.0,0.0,0.0,0.0,0.0,0.0,0.0,0.0,0.0,0.0,0.0,0.0,0.0,0.0,0.0,0.0,0.0,0.0,0.0,0.0,0.0,0.0,0.0,0.0,0.0,0.0,0.0,0.0,0.0,0.0,0.0,0.0,0.0,0.0,0.0,0.0,0.0,0.0,0.0,0.0,0.0,0.0,0.0,0.0,0.0,0.0,0.0,0.0,0.0,0.0,0.0,0.0,0.0,0.0,0.0,0.0,0.0,0.0,0.0,0.0,0.0,0.0,0.0,0.0,0.0,0.0,0.0,0.0,0.0,0.0,0.0,0.0,0.0,0.0,0.0,0.0,0.0,0.0,0.0,0.0,0.0,0.0,0.0,0.0,0.0,0.0,0.0,0.0,0.0,0.0,0.0,0.0,0.0,0.0,0.0,0.0,0.0,0.0,0.0,0.0,0.0,0.0,0.0,0.0,0.0,0.0,0.0,0.0,0.0,0.0,0.0,0.0,0.0,0.0,0.0,0.0,0.0,0.0,0.0,0.0,0.0,0.0,0.0,0.0,0.0,0.0,0.0,0.0,0.0,0.0,0.0,0.0,0.0,0.0,0.0,0.0,0.0,0.0,0.0,0.0,0.0,0.0,0.0,0.0,0.0,0.0,0.0,0.0,0.0,0.0,0.0,0.0,0.0,0.0,0.0,0.0,0.0,0.0,0.0,0.0,0.0,0.0,0.0,0.0,0.0,0.0,0.0,0.0,0.0,0.0,0.0,0.0,0.0,0.0,0.0,0.0,0.0,0.0,0.0,0.0,0.0,0.0,0.0,0.0,0.0,0.0,0.0,0.0,0.0,0.0,0.0,0.0,0.0,0.0,0.0,0.0,0.0,0.0,0.0,0.0,0.0,0.0,0.0,0.0,0.0,0.0,0.0,0.0,0.0,0.0,0.0,0.0,0.0,0.0,0.0,0.0,0.0,0.0,0.0,0.0,0.0,0.0,0.0,0.0,0.0,0.0,0.0,0.0,0.0,0.0,0.0,0.0,0.0,0.0,0.0,0.0,0.0,0.0,0.0,0.0,0.0,0.0,0.0,0.0,0.0,0.0,0.0,0.0,0.0,0.0,0.0,0.0,0.0,0.0,0.0,0.0,0.0,0.0,0.0,0.0,0.0,0.0,0.0,0.0,0.0,0.0,0.0,0.0,0.0,0.0,0.0,0.0,0.0,0.0,0.0,0.0,0.0,0.0,0.0,0.0,0.0,0.0,0.0,0.0,0.0,0.0,0.0,0.0,0.0,0.0,0.0,0.0,0.0,0.0,0.0,0.0,0.0,0.0,0.0,0.0,0.0,0.0,0.0,0.0,0.0,0.0,0.0,0.0,0.0,0.0,0.0,0.0,0.0,0.0,0.0,0.0,0.0,0.0,0.0,0.0,0.0,0.0,0.0,0.0,0.0,0.0,0.0,0.0,0.0,0.0,0.0,0.0,0.0,0.0,0.0,0.0,0.0,0.0,0.0,0.0,0.0,0.0,0.0,0.0,0.0,0.0,0.0,0.0,0.0,0.0,0.0,0.0,0.0,0.0,0.0,0.0,0.0,0.0,0.0,0.0,0.0,0.0,0.0,0.0,0.0,0.0,0.0,0.0,0.0,0.0,0.0,0.0,0.0,0.0,0.0,0.0,0.0,0.0,0.0,0.0,0.0,0.0,0.0,0.0,0.0,0.0,0.0,0.0,0.0,0.0,0.0,0.0,0.0,0.0,0.0,0.0,0.0,0.0,0.0,0.0,0.0,0.0,0.0,0.0,0.0,0.0,0.0,0.0,0.0,0.0,0.0,0.0,0.0,0.0,0.0,0.0,0.0,0.0,0.0,0.0,0.0,0.0,0.0,0.0,0.0,0.0,0.0,0.0,0.0,0.0,0.0,0.0,0.0,0.0,0.0,0.0,0.0,0.0,0.0,0.0,0.0,0.0,0.0,0.0,0.0,0.0,0.0,0.0,0.0,0.0,0.0,0.0,0.0,0.0,0.0,0.0,0.0,0.0,0.0,0.0,0.0,0.0,0.0,0.0,0.0,0.0,0.0,0.0,0.0,0.0,0.0,0.0,0.0,0.0,0.0,0.0,0.0,0.0,0.0,0.0,0.0,0.0,0.0,0.0,0.0,0.0,0.0,0.0,0.0,0.0,0.0,0.0,0.0,0.0,0.0,0.0,0.0,0.0,0.0,0.0,0.0,0.0,0.0,0.0,0.0,0.0,0.0,0.0,0.0,0.0,0.0,0.0,0.0,0.0,0.0,0.0,0.0,0.0,0.0,0.0,0.0,0.0,0.0,0.0,0.0,0.0,0.0,0.0,0.0,0.0,0.0,0.0,0.0,0.0,0.0,0.0,0.0,0.0,0.0,0.0,0.0,0.0,0.0,0.0,0.0,0.0,0.0,0.0,0.0,0.0,0.0,0.0,0.0,0.0,0.0,0.0,0.0,0.0,0.0,0.0,0.0,0.0,0.0,0.0,0.0,0.0,0.0,0.0,0.0,0.0,0.0,0.0,0.0,0.0,0.0,0.0,0.0,0.0,0.0,0.0,0.0,0.0,0.0,0.0,0.0,0.0,0.0,0.0,0.0,0.0,0.0,0.0,0.0,0.0,0.0,0.0,0.0,0.0,0.0,0.0,0.0,0.0,0.0,0.0,0.0,0.0,0.0,0.0,0.0,0.0,0.0,0.0,0.0,0.0,0.0,0.0,0.0,0.0,0.0,0.0,0.0,0.0,0.0,0.0,0.0,0.0,0.0,0.0,0.0,0.0,0.0,0.0,0.0,0.0,0.0,0.0,0.0,0.0,0.0,0.0,0.0,0.0,0.0,0.0,0.0,0.0,0.0,0.0,0.0,0.0,0.0,0.0,0.0,0.0,0.0,0.0,0.0,0.0,0.0,0.0,0.0,0.0,0.0,0.0,0.0,0.0,0.0,0.0,0.0,0.0,0.0,0.0,0.0,0.0,0.0,0.0,0.0,0.0,0.0,0.0,0.0,0.0,0.0,0.0,0.0,0.0,0.0,0.0,0.0,0.0,0.0,0.0,0.0,0.0,0.0,0.0,0.0,0.0,0.0,0.0,0.0,0.0,0.0,0.0,0.0,0.0,0.0,0.0,0.0,0.0,0.0,0.0,0.0,0.0,0.0,0.0,0.0,0.0,0.0,0.0,0.0,0.0,0.0,0.0,0.0,0.0,0.0,0.0,0.0,0.0,0.0,0.0,0.0,0.0,0.0,0.0,0.0,0.0,0.0,0.0,0.0,0.0,0.0,0.0,0.0,0.0,0.0,0.0,0.0,0.0,0.0,0.0,0.0,0.0,0.0,1.8424,0.0,0.0,0.0,0.0,0.0,0.0,0.0,0.0,0.0,0.0,0.0,0.0,0.0,0.0,0.0,0.0,0.0,0.0,0.0,0.0,0.0,0.0,0.0,0.0,0.0,0.0,0.0,0.0,0.0,0.0,0.0,0.0,0.0,0.0,0.0,0.0,0.0,0.0,0.0,0.0,0.0,0.0,0.0,0.0,0.0,0.0,0.0,0.0,0.0,0.0,0.0,0.0,0.0,0.0,0.0,0.0,0.0,0.0,0.0,0.0,0.0,0.0,0.0,0.0,0.0,0.0,0.0,0.0,0.0,0.0,0.0,0.0,0.0,0.0,0.0,0.0,0.0,0.0,0.0,0.0,0.0,0.0,0.0,0.0,0.0,0.0,0.0,0.0,0.0,0.0,0.0,0.0,0.0,0.0,0.0,0.0,0.0,0.0,0.0,0.0,0.0,0.0,0.0,0.0,0.0,0.0,0.0,0.0,0.0,0.0,1.943,1.9417,1.9225,1.8958,1.849,0.0,0.0,0.0,0.0,0.0,0.0,0.0,0.0,0.0,0.0,0.0,0.0,0.0,0.0,0.0,0.0,0.0,0.0,0.0,0.0,0.0,0.0,0.0,0.0,0.0,0.0,0.0,0.0,0.0,0.0,0.0,0.0,0.0,0.0,0.0,0.0,0.0,0.0,0.0,0.0,0.0,0.0,0.0,0.0,0.0,0.0,0.0,0.0,0.0,0.0,0.0,0.0,0.0,0.0,0.0,0.0,0.0,0.0,0.0,0.0,0.0,0.0,0.0,0.0,0.0,0.0,0.0,0.0,0.0,0.0,0.0,0.0,0.0,0.0,0.0,0.0,0.0,0.0,0.0,0.0,0.0,0.0,0.0,0.0,0.0,0.0,0.0,0.0,0.0,0.0,0.0,0.0,0.0,0.0,0.0,0.0,0.0,0.0,0.0,0.0,0.0,0.0,0.0,0.0,0.0,0.0,0.0,0.0,0.0,0.0,0.0,0.0,1.9573,1.9225,1.8504,0.0,0.0,0.0,0.0,0.0,0.0,0.0,0.0,0.0,0.0,0.0,0.0,0.0,0.0,0.0,0.0,0.0,0.0,0.0,0.0,0.0,0.0,0.0,0.0,0.0,0.0,0.0,0.0,0.0,0.0,0.0,0.0,0.0,0.0,0.0,0.0,0.0,0.0,0.0,0.0,0.0,0.0,0.0,0.0,0.0,0.0,0.0,0.0,0.0,0.0,0.0,0.0,0.0,0.0,0.0,0.0,0.0,0.0,0.0,0.0,0.0,0.0,0.0,0.0,0.0,0.0,0.0,0.0,0.0,0.0,0.0,0.0,0.0,0.0,0.0,0.0,0.0,0.0,0.0,0.0,0.0,0.0,0.0,0.0,0.0,0.0,0.0,0.0,0.0,0.0,0.0,0.0,0.0,0.0,0.0,0.0,0.0,0.0,0.0,0.0,0.0,0.0,0.0,0.0,0.0,0.0,0.0,0.0,0.0,0.0,1.9613,2.0134,2.0134,0.0,1.8557,0.0,0.0,0.0,0.0,0.0,0.0,0.0,0.0,0.0,0.0,0.0,0.0,0.0,0.0,0.0,0.0,0.0,0.0,0.0,0.0,0.0,0.0,0.0,0.0,0.0,0.0,0.0,0.0,0.0,0.0,0.0,0.0,0.0,0.0,0.0,0.0,0.0,0.0,0.0,0.0,0.0,0.0,0.0,0.0,0.0,0.0,0.0,0.0,0.0,0.0,0.0,0.0,0.0,0.0,0.0,0.0,0.0,0.0,0.0,0.0,0.0,0.0,0.0,0.0,0.0,0.0,0.0,0.0,0.0,0.0,0.0,0.0,0.0,0.0,0.0,0.0,0.0,0.0,0.0,0.0,0.0,0.0,0.0,0.0,0.0,0.0,0.0,0.0,0.0,0.0,0.0,0.0,0.0,0.0,0.0,0.0,0.0,0.0,0.0,0.0,0.0,0.0,0.0,0.0,0.0,0.0,0.0,0.0,0.0,0.0,1.9907,1.9973,1.9479,1.8891,0.0,0.0,0.0,0.0,0.0,0.0,0.0,0.0,0.0,0.0,0.0,0.0,0.0,0.0,0.0,0.0,0.0,0.0,0.0,0.0,0.0,0.0,0.0,0.0,0.0,0.0,0.0,0.0,0.0,0.0,0.0,0.0,0.0,0.0,0.0,0.0,0.0,0.0,0.0,0.0,0.0,0.0,0.0,0.0,0.0,0.0,0.0,0.0,0.0,0.0,0.0,0.0,0.0,0.0,0.0,0.0,0.0,0.0,0.0,0.0,0.0,0.0,0.0,0.0,0.0,0.0,0.0,0.0,0.0,0.0,0.0,0.0,0.0,0.0,0.0,0.0,0.0,0.0,0.0,0.0,0.0,0.0,0.0,0.0,0.0,0.0,0.0,0.0,0.0,0.0,0.0,0.0,0.0,0.0,0.0,0.0,0.0,0.0,0.0,0.0,0.0,0.0,0.0,0.0,0.0,0.0,0.0,0.0,0.0,0.0,2.0334,2.0415,2.0253,1.9635,1.8916,1.8104,0.0,0.0,0.0,0.0,0.0,0.0,0.0,0.0,0.0,0.0,0.0,0.0,0.0,0.0,0.0,0.0,0.0,0.0,0.0,0.0,0.0,0.0,0.0,0.0,0.0,0.0,0.0,0.0,0.0,0.0,0.0,0.0,0.0,0.0,0.0,0.0,0.0,0.0,0.0,0.0,0.0,0.0,0.0,0.0,0.0,0.0,0.0,0.0,0.0,0.0,0.0,0.0,0.0,0.0,0.0,0.0,0.0,0.0,0.0,0.0,0.0,0.0,0.0,0.0,0.0,0.0,0.0,0.0,0.0,0.0,0.0,0.0,0.0,0.0,0.0,0.0,0.0,0.0,0.0,0.0,0.0,0.0,0.0,0.0,0.0,0.0,0.0,0.0,0.0,0.0,0.0,0.0,0.0,0.0,0.0,0.0,0.0,0.0,0.0,0.0,0.0,0.0,0.0,0.0,0.0,0.0,0.0,0.0,2.186,2.1399,2.1259,2.1449,2.1218,2.0213,0.0,0.0,0.0,0.0,0.0,0.0,0.0,0.0,0.0,0.0,0.0,0.0,0.0,0.0,0.0,0.0,0.0,0.0,0.0,0.0,0.0,0.0,0.0,0.0,0.0,0.0,0.0,0.0,0.0,0.0,0.0,0.0,0.0,0.0,0.0,0.0,0.0,0.0,0.0,0.0,0.0,0.0,0.0,0.0,0.0,0.0,0.0,0.0,0.0,0.0,0.0,0.0,0.0,0.0,0.0,0.0,0.0,0.0,0.0,0.0,0.0,0.0,0.0,0.0,0.0,0.0,0.0,0.0,0.0,0.0,0.0,0.0,0.0,0.0,0.0,0.0,0.0,0.0,0.0,0.0,0.0,0.0,0.0,0.0,0.0,0.0,0.0,0.0,0.0,0.0,0.0,0.0,0.0,0.0,0.0,0.0,0.0,0.0,0.0,0.0,0.0,0.0,0.0,0.0,0.0,0.0,0.0,0.0,0.0,2.09,2.09,2.1236,2.1852,2.0508,1.9663,0.0,0.0,0.0,0.0,0.0,0.0,0.0,0.0,0.0,0.0,0.0,0.0,0.0,0.0,0.0,0.0,0.0,0.0,0.0,0.0,0.0,0.0,0.0,0.0,0.0,0.0,0.0,0.0,0.0,0.0,0.0,0.0,0.0,0.0,0.0,0.0,0.0,0.0,0.0,0.0,0.0,0.0,0.0,0.0,0.0,0.0,0.0,0.0,0.0,0.0,0.0,0.0,0.0,0.0,0.0,0.0,0.0,0.0,0.0,0.0,0.0,0.0,0.0,0.0,0.0,0.0,0.0,0.0,0.0,0.0,0.0,0.0,0.0,0.0,0.0,0.0,0.0,0.0,0.0,0.0,0.0,0.0,0.0,0.0,0.0,0.0,0.0,0.0,0.0,0.0,0.0,0.0,0.0,0.0,0.0,0.0,0.0,0.0,0.0,0.0,0.0,0.0,0.0,0.0,0.0,0.0,0.0,0.0,0.0,2.1539,0.0,2.2286,2.2535,2.0943,1.9974,0.0,0.0,0.0,0.0,0.0,0.0,0.0,0.0,0.0,0.0,0.0,0.0,0.0,0.0,0.0,0.0,0.0,0.0,0.0,0.0,0.0,0.0,0.0,0.0,0.0,0.0,0.0,0.0,0.0,0.0,0.0,0.0,0.0,0.0,0.0,0.0,0.0,0.0,0.0,0.0,0.0,0.0,0.0,0.0,0.0,0.0,0.0,0.0,0.0,0.0,0.0,0.0,0.0,0.0,0.0,0.0,0.0,0.0,0.0,0.0,0.0,0.0,0.0,0.0,0.0,0.0,0.0,0.0,0.0,0.0,0.0,0.0,0.0,0.0,0.0,0.0,0.0,0.0,0.0,0.0,0.0,0.0,0.0,0.0,0.0,0.0,0.0,0.0,0.0,0.0,0.0,0.0,0.0,0.0,0.0,0.0,0.0,0.0,0.0,0.0,0.0,0.0,0.0,0.0,0.0,0.0,0.0,0.0,2.3071,2.4018,2.4642,2.4531,2.362,2.2906,2.1337,0.0,0.0,0.0,0.0,0.0,0.0,0.0,0.0,0.0,0.0,0.0,0.0,0.0,0.0,0.0,0.0,0.0,0.0,0.0,0.0,0.0,0.0,0.0,0.0,0.0,0.0,0.0,0.0,0.0,0.0,0.0,0.0,0.0,0.0,0.0,0.0,0.0,0.0,0.0,0.0,0.0,0.0,0.0,0.0,0.0,0.0,0.0,0.0,0.0,0.0,0.0,0.0,0.0,0.0,0.0,0.0,0.0,0.0,0.0,0.0,0.0,0.0,0.0,0.0,0.0,0.0,0.0,0.0,0.0,0.0,0.0,0.0,0.0,0.0,0.0,0.0,0.0,0.0,0.0,0.0,0.0,0.0,0.0,0.0,0.0,0.0,0.0,0.0,0.0,0.0,0.0,0.0,0.0,0.0,0.0,0.0,0.0,0.0,0.0,0.0,0.0,0.0,0.0,0.0,0.0,0.0,0.0,0.0,0.0,2.3292,2.4853,2.5357,2.4755,2.3914,2.3334,0.0,0.0,0.0,0.0,0.0,0.0,0.0,0.0,0.0,0.0,0.0,0.0,0.0,0.0,0.0,0.0,0.0,0.0,0.0,0.0,0.0,0.0,0.0,0.0,0.0,0.0,0.0,0.0,0.0,0.0,0.0,0.0,0.0,0.0,0.0,0.0,0.0,0.0,0.0,0.0,0.0,0.0,0.0,0.0,0.0,0.0,0.0,0.0,0.0,0.0,0.0,0.0,0.0,0.0,0.0,0.0,0.0,0.0,0.0,0.0,0.0,0.0,0.0,0.0,0.0,0.0,0.0,0.0,0.0,0.0,0.0,0.0,0.0,0.0,0.0,0.0,0.0,0.0,0.0,0.0,0.0,0.0,0.0,0.0,0.0,0.0,0.0,0.0,0.0,0.0,0.0,0.0,0.0,0.0,0.0,0.0,0.0,0.0,0.0,0.0,0.0,0.0,0.0,0.0,0.0,0.0,0.0,0.0,0.0,2.5053,2.6464,2.7051,2.6465,2.5353,2.4684,2.4477,0.0,0.0,0.0,0.0,0.0,0.0,0.0,0.0,0.0,0.0,0.0,0.0,0.0,0.0,0.0,0.0,0.0,0.0,0.0,0.0,0.0,0.0,0.0,0.0,0.0,0.0,0.0,0.0,0.0,0.0,0.0,0.0,0.0,0.0,0.0,0.0,0.0,0.0,0.0,0.0,0.0,0.0,0.0,0.0,0.0,0.0,0.0,0.0,0.0,0.0,0.0,0.0,0.0,0.0,0.0,0.0,0.0,0.0,0.0,0.0,0.0,0.0,0.0,0.0,0.0,0.0,0.0,0.0,0.0,0.0,0.0,0.0,0.0,0.0,0.0,0.0,0.0,0.0,0.0,0.0,0.0,0.0,0.0,0.0,0.0,0.0,0.0,0.0,0.0,0.0,0.0,0.0,0.0,0.0,0.0,0.0,0.0,0.0,0.0,0.0,0.0,0.0,0.0,0.0,0.0,0.0,0.0,0.0,2.8505,2.9412,2.9485,2.8769,2.7344,2.5693,0.0,0.0,0.0,0.0,0.0,0.0,0.0,0.0,0.0,0.0,0.0,0.0,0.0,0.0,0.0,0.0,0.0,0.0,0.0,0.0,0.0,0.0,0.0,0.0,0.0,0.0,0.0,0.0,0.0,0.0,0.0,0.0,0.0,0.0,0.0,0.0,0.0,0.0,0.0,0.0,0.0,0.0,0.0,0.0,0.0,0.0,0.0,0.0,0.0,0.0,0.0,0.0,0.0,0.0,0.0,0.0,0.0,0.0,0.0,0.0,0.0,0.0,0.0,0.0,0.0,0.0,0.0,0.0,0.0,0.0,0.0,0.0,0.0,0.0,0.0,0.0,0.0,0.0,0.0,0.0,0.0,0.0,0.0,0.0,0.0,0.0,0.0,0.0,0.0,0.0,0.0,0.0,0.0,0.0,0.0,0.0,0.0,0.0,0.0,0.0,0.0,0.0,0.0,0.0,0.0,0.0,0.0,0.0,0.0,3.068,3.2123,3.2245,3.0784,2.9467,2.8237,0.0,0.0,0.0,0.0,0.0,0.0,0.0,0.0,0.0,0.0,0.0,0.0,0.0,0.0,0.0,0.0,0.0,0.0,0.0,0.0,0.0,0.0,0.0,0.0,0.0,0.0,0.0,0.0,0.0,0.0,0.0,0.0,0.0,0.0,0.0,0.0,0.0,0.0,0.0,0.0,0.0,0.0,0.0,0.0,0.0,0.0,0.0,0.0,0.0,0.0,0.0,0.0,0.0,0.0,0.0,0.0,0.0,0.0,0.0,0.0,0.0,0.0,0.0,0.0,0.0,0.0,0.0,0.0,0.0,0.0,0.0,0.0,0.0,0.0,0.0,0.0,0.0,0.0,0.0,0.0,0.0,0.0,0.0,0.0,0.0,0.0,0.0,0.0,0.0,0.0,0.0,0.0,0.0,0.0,0.0,0.0,0.0,0.0,0.0,0.0,0.0,0.0,0.0,0.0,0.0,0.0,0.0,0.0,3.0762,3.2051,3.375,3.4088,3.2849,3.1455,2.9902,0.0,0.0,0.0,0.0,0.0,0.0,0.0,0.0,0.0,0.0,0.0,0.0,0.0,0.0,0.0,0.0,0.0,0.0,0.0,0.0,0.0,0.0,0.0,0.0,0.0,0.0,0.0,0.0,0.0,0.0,0.0,0.0,0.0,0.0,0.0,0.0,0.0,0.0,0.0,0.0,0.0,0.0,0.0,0.0,0.0,0.0,0.0,0.0,0.0,0.0,0.0,0.0,0.0,0.0,0.0,0.0,0.0,0.0,0.0,0.0,0.0,0.0,0.0,0.0,0.0,0.0,0.0,0.0,0.0,0.0,0.0,0.0,0.0,0.0,0.0,0.0,0.0,0.0,0.0,0.0,0.0,0.0,0.0,0.0,0.0,0.0,0.0,0.0,0.0,0.0,0.0,0.0,0.0,0.0,0.0,0.0,0.0,0.0,0.0,0.0,0.0,0.0,0.0,0.0,0.0,0.0,0.0,0.0,3.1701,3.2976,3.4701,3.5348,3.4818,3.3129,3.0976,0.0,0.0,0.0,0.0,0.0,0.0,0.0,0.0,0.0,0.0,0.0,0.0,0.0,0.0,0.0,0.0,0.0,0.0,0.0,0.0,0.0,0.0,0.0,0.0,0.0,0.0,0.0,0.0,0.0,0.0,0.0,0.0,0.0,0.0,0.0,0.0,0.0,0.0,0.0,0.0,0.0,0.0,0.0,0.0,0.0,0.0,0.0,0.0,0.0,0.0,0.0,0.0,0.0,0.0,0.0,0.0,0.0,0.0,0.0,0.0,0.0,0.0,0.0,0.0,0.0,0.0,0.0,0.0,0.0,0.0,0.0,0.0,0.0,0.0,0.0,0.0,0.0,0.0,0.0,0.0,0.0,0.0,0.0,0.0,0.0,0.0,0.0,0.0,0.0,0.0,0.0,0.0,0.0,0.0,0.0,0.0,0.0,0.0,0.0,0.0,0.0,0.0,0.0,0.0,0.0,0.0,0.0,0.0,3.2795,3.4095,3.5836,3.6356,3.5576,3.3358,3.1094,0.0,0.0,0.0,0.0,0.0,0.0,0.0,0.0,0.0,0.0,0.0,0.0,0.0,0.0,0.0,0.0,0.0,0.0,0.0,0.0,0.0,0.0,0.0,0.0,0.0,0.0,0.0,0.0,0.0,0.0,0.0,0.0,0.0,0.0,0.0,0.0,0.0,0.0,0.0,0.0,0.0,0.0,0.0,0.0,0.0,0.0,0.0,0.0,2.0345,0.0,0.0,0.0,0.0,0.0,0.0,0.0,0.0,0.0,0.0,0.0,0.0,0.0,0.0,0.0,0.0,0.0,0.0,0.0,0.0,0.0,0.0,0.0,0.0,0.0,0.0,0.0,0.0,0.0,0.0,0.0,0.0,0.0,0.0,0.0,0.0,0.0,0.0,0.0,0.0,0.0,0.0,0.0,0.0,0.0,0.0,0.0,0.0,0.0,0.0,0.0,0.0,0.0,0.0,0.0,0.0,0.0,0.0,0.0,3.3618,3.4745,3.6274,3.6656,3.5771,3.413,3.2058,0.0,0.0,0.0,0.0,0.0,0.0,0.0,0.0,0.0,0.0,0.0,0.0,0.0,0.0,0.0,0.0,0.0,0.0,0.0,0.0,0.0,0.0,0.0,0.0,0.0,0.0,0.0,0.0,0.0,0.0,0.0,0.0,0.0,0.0,0.0,0.0,0.0,0.0,0.0,0.0,0.0,0.0,0.0,0.0,0.0,0.0,0.0,0.0,0.0,0.0,0.0,0.0,0.0,0.0,0.0,0.0,0.0,0.0,0.0,0.0,0.0,0.0,0.0,0.0,0.0,0.0,0.0,0.0,0.0,0.0,0.0,0.0,0.0,0.0,0.0,0.0,0.0,0.0,0.0,0.0,0.0,0.0,0.0,0.0,0.0,0.0,0.0,0.0,0.0,0.0,0.0,0.0,0.0,0.0,0.0,0.0,0.0,0.0,0.0,0.0,0.0,0.0,0.0,0.0,0.0,0.0,0.0,3.2448,3.4226,3.5379,3.6633,3.6856,3.5986,3.5012,3.3176,3.0338,0.0,0.0,0.0,0.0,0.0,0.0,0.0,0.0,0.0,0.0,0.0,0.0,0.0,0.0,0.0,0.0,0.0,0.0,0.0,0.0,0.0,0.0,0.0,0.0,0.0,0.0,0.0,0.0,0.0,0.0,0.0,0.0,0.0,0.0,0.0,0.0,0.0,0.0,2.4727,2.5266,0.0,0.0,0.0,0.0,0.0,0.0,0.0,0.0,2.2874,0.0,0.0,0.0,0.0,0.0,0.0,0.0,0.0,0.0,0.0,0.0,0.0,0.0,0.0,0.0,0.0,0.0,0.0,0.0,0.0,0.0,0.0,0.0,0.0,0.0,0.0,0.0,0.0,0.0,0.0,0.0,0.0,0.0,0.0,0.0,0.0,0.0,0.0,0.0,0.0,0.0,0.0,0.0,0.0,0.0,0.0,0.0,0.0,0.0,0.0,0.0,0.0,0.0,0.0,0.0,0.0,3.2143,3.2658,3.4058,3.6447,3.7542,3.7538,3.6697,3.5705,3.3836,3.0988,0.0,0.0,0.0,0.0,0.0,0.0,0.0,0.0,0.0,0.0,0.0,0.0,0.0,0.0,0.0,0.0,0.0,0.0,0.0,0.0,0.0,0.0,0.0,0.0,0.0,0.0,0.0,0.0,0.0,0.0,0.0,0.0,0.0,0.0,0.0,0.0,0.0,0.0,0.0,2.7031,2.6968,0.0,0.0,0.0,0.0,0.0,0.0,0.0,0.0,2.3441,0.0,0.0,0.0,0.0,0.0,0.0,0.0,0.0,0.0,0.0,0.0,0.0,0.0,0.0,0.0,0.0,0.0,0.0,0.0,0.0,0.0,0.0,0.0,0.0,0.0,0.0,0.0,0.0,0.0,0.0,0.0,0.0,0.0,0.0,0.0,0.0,0.0,0.0,0.0,0.0,0.0,0.0,0.0,0.0,0.0,0.0,0.0,0.0,0.0,0.0,0.0,0.0,0.0,0.0,0.0,3.2608,3.5206,3.7232,3.8769,3.9513,3.9557,3.8835,3.679,3.4553,0.0,0.0,0.0,0.0,0.0,0.0,0.0,0.0,0.0,0.0,0.0,0.0,0.0,0.0,0.0,0.0,0.0,0.0,0.0,0.0,0.0,0.0,0.0,0.0,0.0,0.0,0.0,0.0,0.0,0.0,0.0,0.0,0.0,0.0,0.0,0.0,0.0,0.0,0.0,0.0,2.7246,2.7655,2.758,0.0,0.0,0.0,0.0,0.0,0.0,2.5423,2.4542,0.0,0.0,0.0,0.0,0.0,0.0,0.0,0.0,0.0,0.0,0.0,0.0,0.0,0.0,0.0,0.0,0.0,0.0,0.0,0.0,0.0,0.0,0.0,0.0,0.0,0.0,0.0,0.0,0.0,0.0,0.0,0.0,0.0,0.0,0.0,0.0,0.0,0.0,0.0,0.0,0.0,0.0,0.0,0.0,0.0,0.0,0.0,0.0,0.0,0.0,0.0,0.0,0.0,0.0,0.0,3.2945,3.7087,3.9712,4.0502,4.0991,4.0968,4.0349,3.7691,3.5301,0.0,0.0,0.0,0.0,0.0,0.0,0.0,0.0,0.0,0.0,0.0,0.0,0.0,0.0,0.0,0.0,0.0,0.0,0.0,0.0,0.0,0.0,0.0,0.0,0.0,0.0,0.0,0.0,0.0,0.0,0.0,0.0,0.0,0.0,0.0,0.0,0.0,0.0,0.0,0.0,0.0,2.8413,2.8957,2.8765,0.0,0.0,0.0,0.0,2.7519,2.6898,0.0,0.0,0.0,0.0,0.0,0.0,0.0,0.0,0.0,0.0,0.0,0.0,0.0,0.0,0.0,0.0,0.0,0.0,0.0,0.0,0.0,0.0,0.0,0.0,0.0,0.0,0.0,0.0,0.0,0.0,0.0,0.0,0.0,0.0,0.0,0.0,0.0,0.0,0.0,0.0,0.0,0.0,0.0,0.0,0.0,0.0,0.0,0.0,0.0,0.0,0.0,0.0,0.0,0.0,0.0,0.0,3.3708,3.5703,3.7803,3.9891,4.0449,4.0266,3.9304,3.8068,3.6013,0.0,0.0,0.0,0.0,0.0,0.0,0.0,0.0,0.0,0.0,0.0,0.0,0.0,0.0,0.0,0.0,0.0,0.0,0.0,0.0,0.0,0.0,0.0,0.0,0.0,0.0,0.0,0.0,0.0,0.0,0.0,0.0,0.0,0.0,0.0,0.0,0.0,0.0,0.0,0.0,0.0,2.978,2.9387,2.9364,2.9368,0.0,0.0,2.8828,2.9219,2.9458,0.0,0.0,0.0,0.0,0.0,0.0,0.0,0.0,0.0,0.0,0.0,0.0,0.0,0.0,0.0,0.0,0.0,0.0,0.0,0.0,0.0,0.0,0.0,0.0,0.0,0.0,0.0,0.0,0.0,0.0,0.0,0.0,0.0,0.0,0.0,0.0,0.0,0.0,0.0,0.0,0.0,0.0,0.0,0.0,0.0,0.0,0.0,0.0,0.0,0.0,0.0,0.0,0.0,0.0,0.0,3.3007,3.4617,3.8219,4.0765,4.2079,4.2286,4.2045,4.1353,3.9074,3.6641,0.0,0.0,0.0,0.0,0.0,0.0,0.0,0.0,0.0,0.0,0.0,0.0,0.0,0.0,0.0,0.0,0.0,0.0,0.0,0.0,0.0,0.0,0.0,0.0,0.0,0.0,0.0,0.0,0.0,0.0,0.0,0.0,0.0,0.0,0.0,0.0,0.0,0.0,0.0,0.0,0.0,0.0,3.0131,3.0198,0.0,0.0,0.0,2.9355,2.9607,0.0,0.0,0.0,0.0,0.0,0.0,0.0,0.0,0.0,0.0,0.0,0.0,0.0,0.0,0.0,0.0,0.0,0.0,0.0,0.0,0.0,0.0,0.0,0.0,0.0,0.0,0.0,0.0,0.0,0.0,0.0,0.0,0.0,0.0,0.0,0.0,0.0,0.0,0.0,0.0,0.0,0.0,0.0,0.0,0.0,0.0,0.0,0.0,0.0,0.0,0.0,0.0,0.0,0.0,0.0,0.0,0.0,3.5501,4.024,4.2942,4.3564,4.3589,4.3263,4.2559,3.9873,0.0,0.0,0.0,0.0,0.0,0.0,0.0,0.0,0.0,0.0,0.0,0.0,0.0,0.0,0.0,0.0,0.0,0.0,0.0,0.0,0.0,0.0,0.0,0.0,0.0,0.0,0.0,2.5326,0.0,0.0,0.0,0.0,0.0,0.0,0.0,0.0,0.0,0.0,0.0,0.0,0.0,0.0,3.0704,3.1525,3.1636,3.1673,0.0,0.0,3.0303,3.0184,3.046,3.0089,0.0,0.0,0.0,0.0,0.0,0.0,0.0,0.0,0.0,0.0,0.0,0.0,0.0,0.0,0.0,0.0,0.0,0.0,0.0,0.0,0.0,0.0,0.0,0.0,0.0,0.0,0.0,0.0,0.0,0.0,0.0,0.0,0.0,0.0,0.0,0.0,0.0,0.0,0.0,0.0,0.0,0.0,0.0,0.0,0.0,0.0,0.0,0.0,0.0,0.0,0.0,0.0,0.0,0.0,3.4956,3.6411,3.9928,4.2229,4.3042,4.3037,4.2509,4.1401,4.0224,3.779,0.0,0.0,0.0,0.0,0.0,0.0,0.0,0.0,0.0,0.0,0.0,0.0,0.0,0.0,0.0,0.0,0.0,0.0,0.0,0.0,0.0,0.0,0.0,0.0,0.0,0.0,0.0,0.0,0.0,0.0,0.0,0.0,0.0,0.0,0.0,0.0,0.0,0.0,0.0,0.0,0.0,3.3334,3.417,3.4163,3.441,0.0,3.3572,3.219,3.171,3.2674,3.2293,2.8681,0.0,0.0,0.0,0.0,0.0,0.0,0.0,0.0,0.0,0.0,0.0,0.0,0.0,0.0,0.0,0.0,0.0,0.0,0.0,0.0,0.0,0.0,0.0,0.0,0.0,0.0,0.0,0.0,0.0,0.0,0.0,0.0,0.0,0.0,0.0,0.0,0.0,0.0,0.0,0.0,0.0,0.0,0.0,0.0,0.0,0.0,0.0,0.0,0.0,0.0,0.0,0.0,0.0,3.5239,3.6854,4.0262,4.2506,4.3492,4.3543,4.3008,4.1889,4.0796,3.8507,0.0,0.0,0.0,0.0,0.0,0.0,0.0,0.0,0.0,0.0,0.0,0.0,0.0,0.0,0.0,0.0,0.0,0.0,0.0,0.0,0.0,0.0,0.0,0.0,0.0,0.0,0.0,0.0,2.9,2.9288,2.9474,0.0,0.0,0.0,0.0,0.0,0.0,0.0,0.0,0.0,0.0,3.4095,3.5563,3.6027,0.0,0.0,3.4858,3.3699,3.2731,3.2213,3.1199,2.9218,2.787,0.0,0.0,0.0,0.0,0.0,0.0,0.0,0.0,0.0,0.0,0.0,0.0,0.0,0.0,0.0,0.0,0.0,0.0,0.0,0.0,0.0,0.0,0.0,0.0,0.0,0.0,0.0,0.0,0.0,0.0,0.0,0.0,0.0,0.0,0.0,0.0,0.0,0.0,0.0,0.0,0.0,0.0,0.0,0.0,0.0,0.0,0.0,0.0,0.0,0.0,0.0,0.0,3.5375,3.6852,4.0354,4.2578,4.3361,4.3387,4.3061,4.2372,4.1464,3.9559,0.0,0.0,0.0,0.0,0.0,0.0,0.0,0.0,0.0,0.0,0.0,0.0,0.0,0.0,0.0,0.0,0.0,0.0,0.0,0.0,0.0,0.0,0.0,0.0,0.0,0.0,0.0,0.0,3.0167,3.0181,3.0357,0.0,0.0,0.0,0.0,0.0,0.0,0.0,0.0,0.0,0.0,3.5512,3.7247,3.7822,3.7736,3.6772,3.5721,3.4583,3.3207,3.2415,3.1549,3.0153,0.0,0.0,0.0,0.0,0.0,0.0,0.0,0.0,0.0,0.0,0.0,0.0,0.0,0.0,0.0,0.0,0.0,0.0,0.0,0.0,0.0,0.0,0.0,0.0,0.0,0.0,0.0,3.781,0.0,0.0,3.6972,0.0,0.0,0.0,0.0,0.0,0.0,0.0,0.0,0.0,0.0,0.0,0.0,0.0,0.0,0.0,0.0,0.0,0.0,0.0,0.0,0.0,0.0,3.5228,3.6353,4.0288,4.2251,4.2235,4.2181,4.245,4.2791,4.2256,4.1046,3.9129,0.0,0.0,0.0,0.0,0.0,0.0,0.0,0.0,0.0,0.0,0.0,0.0,0.0,0.0,0.0,0.0,0.0,0.0,0.0,0.0,0.0,0.0,0.0,0.0,0.0,0.0,2.9804,2.9302,2.9189,0.0,0.0,0.0,0.0,0.0,0.0,0.0,0.0,0.0,0.0,3.6227,3.8116,3.9417,3.9589,3.9126,3.786,3.6238,3.4604,3.3101,3.3976,3.4115,0.0,0.0,0.0,0.0,0.0,0.0,0.0,0.0,0.0,0.0,0.0,0.0,0.0,0.0,0.0,0.0,0.0,0.0,0.0,0.0,0.0,0.0,0.0,0.0,0.0,0.0,0.0,4.1223,4.0813,0.0,0.0,0.0,0.0,0.0,0.0,0.0,0.0,0.0,0.0,0.0,4.0694,4.2,0.0,0.0,0.0,0.0,0.0,0.0,0.0,0.0,0.0,0.0,0.0,0.0,3.6035,3.8487,4.1801,4.3918,4.4652,4.4706,4.4606,4.4394,4.3863,4.2038,3.8949,0.0,0.0,0.0,0.0,0.0,0.0,0.0,0.0,0.0,0.0,0.0,0.0,0.0,0.0,0.0,0.0,0.0,0.0,0.0,0.0,0.0,0.0,0.0,0.0,0.0,2.9189,0.0,0.0,0.0,0.0,0.0,0.0,0.0,0.0,0.0,0.0,0.0,3.357,3.5462,3.7315,3.8943,4.0099,4.0533,4.0428,0.0,0.0,0.0,0.0,0.0,0.0,0.0,0.0,0.0,0.0,0.0,0.0,0.0,0.0,2.8489,2.5986,2.5273,2.4983,2.4679,0.0,0.0,0.0,0.0,0.0,0.0,0.0,0.0,0.0,0.0,0.0,0.0,0.0,0.0,4.321,4.301,4.2342,0.0,0.0,0.0,0.0,0.0,0.0,0.0,0.0,4.3509,4.4327,4.4148,4.4915,4.4616,0.0,4.2701,4.0334,0.0,0.0,0.0,0.0,0.0,0.0,0.0,0.0,3.7074,3.9634,4.2584,4.4489,4.534,4.5425,4.5391,4.5419,4.5144,4.3516,4.0423,3.8263,3.6294,0.0,0.0,0.0,0.0,0.0,0.0,0.0,0.0,0.0,0.0,0.0,0.0,0.0,0.0,0.0,0.0,0.0,0.0,0.0,0.0,0.0,0.0,0.0,3.0566,0.0,0.0,0.0,0.0,0.0,0.0,0.0,0.0,0.0,3.2129,3.3723,3.546,3.6757,3.8265,3.9421,4.0124,0.0,0.0,0.0,0.0,0.0,0.0,0.0,3.4638,3.5051,3.38,3.2797,3.3055,3.325,3.276,3.0793,0.0,0.0,2.7732,2.6887,2.668,2.6766,2.7168,2.7195,2.6418,2.6717,2.684,0.0,0.0,0.0,0.0,0.0,0.0,0.0,0.0,4.4018,4.4118,0.0,4.3878,0.0,0.0,0.0,0.0,4.1656,4.3457,0.0,0.0,4.7392,4.8069,4.7409,4.6209,4.5578,4.5447,4.4817,4.3768,4.2321,3.8561,0.0,0.0,0.0,0.0,0.0,0.0,3.8227,3.9884,4.2538,4.4091,4.447,4.4434,4.4869,4.5824,4.6105,4.5382,4.3499,4.197,3.9799,3.6704,3.4603,0.0,0.0,0.0,0.0,0.0,0.0,0.0,0.0,0.0,0.0,0.0,0.0,0.0,0.0,0.0,0.0,0.0,0.0,0.0,0.0,3.4163,0.0,0.0,0.0,0.0,0.0,0.0,0.0,0.0,0.0,0.0,3.3623,3.5554,3.7318,3.796,0.0,0.0,0.0,0.0,3.9904,3.8331,3.7998,3.7536,3.6031,3.695,3.756,3.6678,0.0,0.0,3.4342,3.486,3.4706,3.2209,3.2383,3.221,3.048,2.9174,2.8472,2.8769,2.8667,2.8535,2.8887,2.9186,2.94,5.2158,0.0,0.0,0.0,0.0,4.7599,4.8862,5.0743,5.0586,5.0142,4.9442,4.8236,0.0,0.0,0.0,0.0,0.0,0.0,4.6691,4.8292,4.9228,5.0338,5.156,5.1017,5.0497,4.9926,4.8194,4.6681,4.5297,4.3118,4.0321,3.6998,0.0,0.0,0.0,0.0,3.9944,4.2254,4.4465,4.5855,4.6432,4.6417,4.6594,4.6887,4.648,4.5813,4.4796,4.3458,4.1921,4.0018,3.802,0.0,0.0,0.0,0.0,0.0,0.0,0.0,0.0,0.0,0.0,0.0,0.0,0.0,0.0,0.0,0.0,0.0,0.0,0.0,3.2376,3.3601,3.3764,0.0,0.0,0.0,0.0,0.0,0.0,0.0,0.0,0.0,3.7631,3.8533,3.9241,0.0,0.0,4.0362,3.9246,3.9923,4.0442,4.0323,4.0319,0.0,4.0321,3.932,3.8781,3.925,3.9183,3.8472,3.6987,3.6967,3.669,3.5137,3.485,3.4394,3.3048,3.1236,2.9959,2.9782,3.0046,3.0384,3.037,3.0664,3.0898,5.6672,5.237,5.0845,5.068,5.1403,5.1403,5.2511,5.4333,5.4077,5.3518,5.2733,5.1642,4.9689,4.7155,4.6389,0.0,0.0,0.0,4.9143,5.1121,5.1165,5.2061,5.3595,5.3076,5.2467,5.1859,5.0348,4.901,4.787,4.6427,4.4228,4.1243,0.0,0.0,3.8955,4.0025,4.1754,4.4037,4.5532,4.6651,4.7279,4.7309,4.7309,4.7309,4.6651,4.5992,4.5304,4.4317,4.312,4.1841,3.9858,3.8033,0.0,0.0,0.0,0.0,0.0,0.0,0.0,0.0,0.0,0.0,0.0,3.1436,3.0743,0.0,0.0,0.0,3.3443,3.426,3.3968,3.5165,0.0,0.0,0.0,0.0,0.0,0.0,0.0,3.7501,3.9722,4.1241,4.1499,4.2038,4.215,4.1309,4.1623,4.1565,4.067,0.0,4.0899,4.1225,4.1275,4.1455,4.1756,4.0744,4.0034,4.0445,4.0074,3.949,3.8764,3.8607,3.8214,3.718,3.6727,3.624,3.5113,3.3691,3.2225,3.0814,3.0891,3.1208,3.0957,3.1094,3.1269,6.0618,5.917,5.6487,5.5525,5.5677,5.4686,5.5002,5.6163,5.556,5.5237,5.5067,5.4325,5.3237,5.172,4.9964,0.0,5.0925,5.0989,5.2011,5.3826,5.3182,5.3512,5.4483,5.3415,5.2653,5.2145,5.1606,5.0866,4.9899,4.8663,4.7334,4.575,4.3244,4.1783,4.1542,4.2201,4.3459,4.5244,4.5963,4.6608,4.7279,4.7309,4.7279,4.7219,4.6608,4.5963,4.5244,4.4646,4.3718,4.25,4.0636,3.905,3.7674,0.0,0.0,0.0,0.0,0.0,0.0,0.0,0.0,0.0,0.0,0.0,0.0,0.0,0.0,0.0,3.659,0.0,3.7639,3.8012,0.0,0.0,0.0,3.6083,3.8037,3.8571,3.9351,4.0637,0.0,0.0,4.4865,4.5678,4.5631,4.4282,4.3627,4.3203,4.3125,4.2158,4.1512,4.1591,4.1509,4.148,4.1576,4.1322,4.1021,4.0648,4.0099,3.9722,3.9645,3.962,3.9206,3.8267,3.8056,3.766,3.6534,3.6194,3.5366,3.2281,3.1692,3.1442,3.1152,3.1055,3.1016,6.4211,6.3458,6.2399,6.063,5.8391,5.8074,5.8667,5.9718,5.9558,5.9237,5.8719,5.7486,5.5813,5.3837,5.3405,5.3372,5.3672,5.424,5.5041,5.5973,5.5692,5.6017,5.6739,5.58,5.499,5.4278,5.3067,5.1982,5.1155,5.0267,4.905,4.7686,4.6998,4.5135,4.2299,4.3269,4.4317,4.5274,4.5992,4.6608,4.7279,4.7309,4.707,4.6561,4.6411,4.5711,4.4616,4.4407,4.3928,4.308,4.2192,4.1055,3.9738,3.7195,0.0,0.0,0.0,0.0,0.0,0.0,0.0,0.0,0.0,3.3692,3.2467,0.0,3.4437,0.0,3.7097,3.868,3.9407,3.9126,0.0,0.0,3.907,3.9319,4.0914,4.1499,4.2074,4.2813,4.4565,4.5771,4.5888,4.7303,4.8119,4.752,4.6287,4.504,4.3886,4.3465,4.3227,4.3146,4.2859,4.2585,4.2484,4.1856,4.1225,4.1125,4.0325,3.9697,3.9697,3.9697,3.9594,3.931,3.9258,3.8816,3.7713,3.7501,3.6834,3.5035,3.4033,3.3145,3.1997,3.1525,3.1348,6.5865,6.5253,6.4671,6.3381,6.1575,6.0976,6.1033,6.1616,6.1582,6.1216,6.0554,5.9032,5.7712,5.6562,5.6224,5.6055,5.6089,5.6494,5.69,5.7273,5.7164,5.7294,5.7554,5.7184,5.6334,5.5113,5.4319,5.3337,5.2203,5.1736,5.0913,4.977,4.977,4.8366,4.5618,4.5511,4.5559,4.5819,4.6475,4.7003,4.7279,4.7309,4.686,4.5903,4.5574,4.4796,4.3479,4.318,4.2701,4.2073,4.1414,4.0457,3.911,3.7434,3.5911,0.0,0.0,0.0,0.0,0.0,0.0,0.0,0.0,0.0,0.0,0.0,3.5759,3.6716,3.8571,3.9971,4.0606,4.0606,4.0934,4.1888,4.19,4.2277,4.3439,4.3961,4.4448,4.5069,4.6254,4.7183,4.7607,4.8512,4.9161,4.931,4.8413,4.7263,4.5995,4.5297,4.489,4.4917,4.4245,4.3572,4.3073,4.2057,4.1275,4.12,4.0425,3.9697,3.9697,3.9697,3.9697,3.9697,3.9697,3.9517,3.8868,3.8712,3.8267,3.7042,3.6173,3.5189,3.3762,3.2922,3.2342,6.6365,6.5764,6.4952,6.4613,6.4478,6.3024,6.2415,6.2415,6.2415,6.1975,6.1231,5.9877,5.9201,5.8927,5.8321,5.7949,5.7881,5.7881,5.7881,5.7881,5.7881,5.7808,5.7625,5.7808,5.6923,5.5255,5.5331,5.4591,5.3006,5.3006,5.2559,5.172,5.1684,5.0961,4.9447,4.8107,4.7193,4.6748,4.7259,4.7455,4.7345,4.7242,4.6551,4.5259,4.471,4.3856,4.2628,4.1957,4.1414,4.0812,4.0269,3.9395,3.825,3.7439,3.6474,0.0,3.5027,0.0,0.0,0.0,0.0,0.0,0.0,0.0,0.0,3.6507,3.7524,3.8816,4.0546,4.1683,4.1901,4.244,4.3249,4.4287,4.4496,4.4796,4.5394,4.5943,4.6499,4.7034,4.757,4.8397,4.928,4.9387,4.9538,4.9988,4.9805,4.9231,4.8396,4.7225,4.6501,4.6503,4.5502,4.4261,4.3415,4.2272,4.1376,4.1225,4.0526,3.9798,3.9697,3.9697,3.9697,3.9697,3.9697,3.9697,3.9697,3.9697,3.931,3.8344,3.7897,3.718,3.5608,3.4447,3.3677,6.6576,6.6474,6.5155,6.4613,6.4478,6.3024,6.2415,6.2415,6.2415,6.1975,6.1298,6.0994,6.0182,5.9032,5.8863,5.8457,5.7881,5.7881,5.7881,5.7881,5.7881,5.7881,5.7845,5.7881,5.7067,5.5678,5.5612,5.4869,5.3382,5.3382,5.2977,5.2203,5.2169,5.1361,4.9838,0.0,0.0,0.0,4.7706,4.7619,4.7681,4.7017,4.5978,4.4633,4.5098,0.0,4.3372,4.3185,4.306,4.2903,4.2778,0.0,0.0,0.0,0.0,0.0,0.0,0.0,0.0,0.0,0.0,0.0,3.9692,3.868,3.7241,3.8661,4.0187,4.1512,4.2432,4.3389,4.4466,4.4646,4.4825,4.5095,4.5603,4.595,4.613,4.7146,4.7924,4.8043,4.8999,4.9713,4.9825,5.0194,5.0437,5.0394,5.0183,4.9941,4.9717,4.8524,4.7689,4.7564,4.6032,4.4724,4.4398,4.3041,4.189,4.1379,4.0774,4.0224,3.9823,3.9697,3.9697,3.9697,3.9697,3.9697,3.9697,3.9697,3.9645,3.9413,3.931,3.853,3.6162,3.5288,3.4958,6.6686,6.6677,6.5222,6.4613,0.0,6.3024,6.2415,6.2415,6.2415,6.2178,6.1806,6.1467,6.0858,6.008,5.9336,5.8795,5.8423,5.8084,5.7881,5.7881,5.7881,5.7881,5.7881,5.7881,5.7137,5.575,5.5681,5.4938,5.3551,5.3518,5.3281,5.2909,5.2875,5.2472,5.1663,5.1598,5.0857,4.9455,4.9213,4.9075,4.908,4.8647,4.7603,4.5939,4.6103,0.0,0.0,0.0,0.0,0.0,0.0,0.0,0.0,0.0,0.0,4.156,4.0959,4.0928,4.1627,4.1691,4.2141,4.3137,4.3543,4.3003,4.121,4.2654,4.4007,4.5025,4.5388,4.5808,4.6376,4.6457,4.6373,4.6346,4.689,4.7279,4.7399,4.8147,4.8895,4.9224,4.9777,5.0239,5.0504,5.0632,5.0775,5.0662,5.0423,5.0309,5.0231,4.9473,4.8703,4.8122,4.7177,4.6137,4.5449,4.4066,4.29,4.2488,4.14,4.0475,4.0149,3.9873,3.9697,3.9697,3.9697,3.9697,3.9697,3.9697,3.9697,3.9697,3.9697,3.9362,3.7873,3.7103,3.6565,6.6812,6.6677,6.5222,6.4613,6.4478,6.3024,6.2415,6.2415,0.0,0.0,0.0,6.1738,6.1434,6.1231,5.9979,5.9268,5.8998,5.8355,5.8017,5.7881,5.7881,5.7881,5.7881,5.7881,5.7103,5.575,5.5681,5.4938,5.3551,5.3518,5.3518,5.3518,5.3518,5.345,5.3247,5.2505,5.1697,5.0773,5.0525,5.0424,5.0478,5.0305,4.9309,4.7384,4.7284,4.6387,4.449,4.4226,4.3615,4.2494,4.243,4.2141,4.1629,4.2045,4.2621,4.3262,4.3772,4.4423,4.5147,4.5342,4.5733,4.6514,4.7226,4.7029,4.5483,4.6426,4.7331,4.7991,4.8054,4.8033,4.7973,4.7954,4.7978,4.7928,4.846,4.8749,4.8725,4.9283,4.9885,5.0122,5.0285,5.0554,5.1063,5.1011,5.087,5.087,5.071,5.0548,5.0453,5.0038,4.9424,4.8574,4.8021,4.7536,4.6682,4.534,4.4283,4.4046,4.2446,4.1069,4.0738,4.0228,3.9848,3.9697,3.9697,3.9697,3.9697,3.9697,3.9697,3.9697,3.9697,3.9697,3.9645,3.8921,3.8161,6.6812,6.6711,6.5222,6.4613,6.4478,6.3024,6.2415,6.2415,6.2415,6.2415,6.2381,6.2279,6.1873,6.1298,6.1095,6.025,5.9032,5.8896,5.8524,5.7881,5.7881,5.7881,5.7881,5.7881,5.7137,5.5749,5.5681,5.4938,5.3653,5.3518,5.3518,5.3518,5.3518,5.3145,5.2536,5.2334,5.1897,5.1092,5.0152,5.003,5.0793,5.0091,4.8971,4.75,4.8001,4.7596,4.6065,4.5937,4.5868,4.5668,4.5545,4.5417,4.5351,4.5197,4.5329,4.5618,4.5527,4.5889,4.6806,4.7306,4.8134,4.9455,5.0278,4.9766,4.7696,4.7631,4.8023,4.8618,4.8751,4.892,4.9395,4.945,4.9661,5.02,5.042,5.0455,5.0223,5.0831,5.0981,5.0349,5.0704,5.105,5.1169,5.1152,5.1105,5.1105,5.0798,5.065,5.043,5.0231,4.9941,4.9424,4.8574,4.8021,4.7689,4.6761,4.5811,4.5299,4.415,4.2918,4.2009,4.1104,4.0331,3.9772,3.9697,3.9697,3.9697,3.9697,3.9697,3.9697,3.9697,3.9697,3.9697,3.9465,3.9362,6.6576,6.6068,6.5053,6.4377,6.3937,6.2854,6.2415,6.2415,6.2415,6.2415,6.2415,6.2415,6.2212,6.1873,6.1467,6.0689,5.9573,5.9201,5.8626,5.7915,5.7881,5.7881,5.7881,5.7881,5.7137,5.5749,5.5681,5.4938,5.3619,5.3518,5.3518,5.3518,5.3518,5.3112,5.2334,5.1928,5.1523,5.1185,5.0659,5.066,5.1028,5.066,4.9959,4.8891,4.915,4.8776,4.7701,4.7541,4.7278,4.691,4.6848,4.6817,4.6817,4.6662,4.6797,4.7385,4.7628,4.7962,4.8456,4.9459,5.0326,5.0855,5.1586,5.1543,5.0427,5.037,5.0477,5.0733,5.0765,5.0671,5.0544,5.0499,5.0434,5.0287,5.0627,5.0812,5.0819,5.1673,5.1909,5.1164,5.1531,5.1773,5.1246,5.1229,5.105,5.0734,5.0521,5.0292,4.9791,4.9858,5.004,5.0047,4.9571,4.9198,4.905,4.8044,4.7193,4.6892,4.5641,4.4251,4.2941,4.1905,4.1054,3.9978,3.9697,3.9697,3.9697,3.9697,3.9697,3.9697,3.9697,3.9697,3.9697,3.9697,3.9697,6.6373,6.5628,6.4884,6.4072,6.3226,6.2651,6.2415,6.2415,6.2415,6.2415,6.2415,6.2415,6.2415,6.2313,6.1637,6.0858,6.008,5.9336,5.8592,5.7915,5.7881,5.7881,5.7881,5.7881,5.7103,5.5852,5.5681,5.4938,5.3653,5.3518,5.3518,5.3518,5.3518,5.3078,5.23,5.1758,5.1386,5.1217,5.1048,5.1048,5.1185,5.1217,5.0845,5.0168,5.0008,4.9607,4.8899,4.8673,4.8375,4.7807,4.7709,4.7742,4.7709,4.7586,4.792,4.8716,4.919,4.9658,5.0124,5.1095,5.1729,5.1791,5.2221,5.2516,5.2409,5.2409,5.2409,5.2409,5.2305,5.2053,5.1508,5.1397,5.1167,5.0685,5.1055,5.1462,5.1446,5.2327,5.2587,5.184,5.1894,5.1817,5.1393,5.1083,5.0764,5.0345,5.0076,4.9702,4.9237,4.9459,4.9872,5.0041,4.9963,4.9607,4.9695,4.8836,4.8141,4.8049,4.6751,4.5321,4.4047,4.3163,4.2233,4.1028,4.0287,4.0185,4.0083,3.9852,3.9749,3.9697,3.9697,3.9697,3.9697,3.9697,3.9697,6.6373,6.5628,6.4884,6.3802,6.255,6.2415,6.2415,6.2415,6.2415,6.2415,6.2415,6.2415,6.2415,6.2279,6.1637,6.0858,6.008,5.9336,5.8626,5.7949,5.7881,5.7881,5.7881,5.7881,5.7103,5.5817,5.5681,5.4938,5.3551,5.3518,5.3518,5.3518,5.3518,5.3112,5.2367,5.2232,5.186,5.1217,5.0541,5.0541,5.1183,5.1217,5.0879,5.0135,5.0067,4.9763,4.9021,4.8954,4.8954,4.8855,4.8697,4.8668,4.8637,4.8478,4.8815,4.968,4.9653,5.0158,5.143,5.1528,5.1859,5.2389,5.2449,5.2445,5.2409,5.2409,5.2409,5.2409,5.2409,5.2338,5.2302,5.223,5.2356,5.2635,5.2832,5.3114,5.2916,5.3082,5.2821,5.1893,5.1378,5.0918,5.14,5.0895,5.0393,5.0289,4.9689,4.9284,4.906,4.9179,4.9269,4.9298,4.8978,4.8732,4.8698,4.861,4.8337,4.8061,4.7157,4.6244,4.5434,4.4387,4.331,4.2518,4.1908,4.1145,4.0895,4.0415,3.98,3.9878,3.9852,3.9697,3.9697,3.9697,3.9697,6.5459,6.441,6.4072,6.3362,6.2448,6.2415,6.2415,6.2415,6.2415,6.2415,6.2415,6.2415,6.2415,6.2347,6.1637,6.0858,6.008,5.937,5.8626,5.7915,5.7881,5.7881,5.7881,5.7881,5.7137,5.5818,5.5681,5.4972,5.3754,5.3518,5.3518,5.3518,5.3518,5.3078,5.2367,5.23,5.1928,5.1217,5.0473,5.0236,5.0473,5.0135,4.9763,4.9492,4.9458,4.9323,4.9052,4.9018,4.9018,4.9018,4.8956,4.8925,4.8925,4.9173,4.9512,5.0008,5.0785,5.1663,5.2741,5.2707,5.2773,5.2972,5.2903,5.2799,5.2694,5.2589,5.2551,5.2483,5.2445,5.2409,5.2409,5.2409,5.2542,5.2771,5.2804,5.2792,5.2729,5.3081,5.2938,5.2155,5.2076,5.2092,5.209,5.1221,5.0554,5.0255,4.9521,4.8745,4.8237,4.8416,4.8476,4.8207,4.794,4.8119,4.8518,4.8617,4.8404,4.8097,4.7771,4.7242,4.5853,4.5252,4.4387,4.3448,4.2663,4.2208,4.2159,4.1319,4.0618,4.0516,3.9981,3.9697,3.9697,3.9697,3.9697,6.4681,6.3565,6.3294,6.2888,6.2415,6.2415,6.2415,6.2415,6.2415,6.2415,6.2415,6.2415,6.2415,6.2245,6.14,6.0655,6.0047,5.9133,5.8423,5.7915,5.7881,5.7881,5.7881,5.7881,5.7137,5.5884,5.5681,5.4972,5.3653,5.3518,5.3518,5.3518,5.3518,5.3213,5.2672,5.2638,5.2367,5.1826,5.0913,5.0405,5.0304,4.9492,4.9018,4.9018,4.9018,4.9018,4.9018,4.9018,4.9018,4.9018,4.9187,4.9323,4.9323,4.9907,5.0413,5.0777,5.1894,5.2875,5.3484,5.3416,5.3348,5.3213,5.3144,5.3041,5.2903,5.2764,5.2759,5.2888,5.2815,5.2746,5.2407,5.2539,5.2672,5.2672,5.2804,5.297,5.3069,5.3467,5.3507,5.2911,5.2981,5.3142,5.2806,5.2008,5.1301,5.0839,4.9839,4.8517,4.7875,4.7997,4.8087,4.7429,4.7339,4.7611,4.8298,4.8268,4.8086,4.7874,4.7649,4.7211,4.6042,4.5873,4.5657,4.4912,4.3895,4.3177,4.3129,4.2377,4.1617,4.1419,4.0895,4.0185,4.0211,3.9981,3.9749,6.4208,6.3429,6.2719,6.2448,6.2415,6.2415,6.2415,6.2415,6.2415,6.2415,6.2415,6.2415,6.2415,6.2279,6.0892,6.0148,5.9911,5.8626,5.7983,5.7881,5.7881,5.7881,5.7881,5.7848,5.7137,5.5784,5.5681,5.4938,5.3585,5.3518,5.3518,5.3518,5.3518,5.3484,5.3382,5.3382,5.3416,5.3112,5.186,5.1117,5.098,4.9763,4.9052,4.9018,4.9018,4.9018,4.9018,4.9018,4.9018,4.9018,4.9627,4.9999,5.0101,5.0744,5.1422,5.2164,5.2942,5.345,5.345,5.3348,5.3213,5.3179,5.3076,5.2938,5.2972,5.297,5.3168,5.3592,5.3623,5.3352,5.2776,5.3105,5.3367,5.34,5.3964,5.4262,5.4328,5.4262,5.446,5.4204,5.3815,5.3549,5.3162,5.2976,5.2417,5.1735,5.0913,4.9922,4.8637,4.8327,4.8057,4.7608,4.7369,4.7339,4.7385,4.7567,4.739,4.7199,4.72,4.7067,4.7036,4.6855,4.6674,4.6268,4.5096,4.434,4.4078,4.3606,4.2889,4.2355,4.1766,4.1219,4.1169,4.0262,3.9981,6.3463,6.2787,6.2516,6.2415,6.2415,6.2415,6.2415,6.2415,6.2415,6.2415,6.2415,6.2415,6.2415,6.2313,6.0791,6.008,5.9945,5.8558,5.7881,5.7881,5.7881,5.7881,5.7881,5.7881,5.7103,5.5886,5.5716,5.4938,5.3653,5.3518,5.3518,5.3518,5.3518,5.3518,5.3518,5.3518,5.3518,5.3416,5.2435,5.1691,5.1151,5.0236,4.9492,4.9052,4.9018,4.9018,4.9018,4.9018,4.9221,4.9661,4.9965,5.0304,5.0811,5.1522,5.2266,5.2976,5.3348,5.3518,5.3518,5.3416,5.3382,5.3382,5.3314,5.328,5.3314,5.3582,5.3881,5.4079,5.4441,5.4367,5.4228,5.4143,5.4129,5.4162,5.4361,5.4593,5.4527,5.4527,5.4527,5.4518,5.4557,5.4749,5.4561,5.4228,5.3547,5.2576,5.1406,5.0284,4.9342,4.897,4.8745,4.8117,4.7938,4.7788,4.7309,4.7339,4.7222,4.7048,4.6903,4.6874,4.686,4.6801,4.6622,4.6533,4.5714,4.5429,4.5127,4.4545,4.389,4.3081,4.2474,4.2279,4.223,4.1319,4.0844,6.2854,6.2448,6.2415,6.2415,6.2415,6.2415,6.2415,6.2415,6.2415,6.2415,6.2415,6.2415,6.2415,6.2144,6.0791,6.008,5.9945,5.8558,5.7881,5.7881,5.7881,5.7881,5.7881,5.7881,5.7103,5.5818,5.514,5.4431,5.3619,5.3518,5.3518,5.3518,5.3518,5.3518,5.3518,5.3518,5.3518,5.3348,5.2706,5.2029,5.1522,5.0811,5.0236,4.983,4.9729,4.9593,4.939,4.9593,4.9932,5.0405,5.0676,5.115,5.1894,5.2435,5.2942,5.345,5.3518,5.3518,5.3518,5.3518,5.3518,5.3518,5.3518,5.3551,5.3788,5.4193,5.4527,5.4962,5.5293,5.5587,5.5713,5.5558,5.5273,5.5065,5.5094,5.5189,5.5222,5.5256,5.5256,5.5355,5.5648,5.588,5.5875,5.5489,5.4785,5.3866,5.2723,5.1763,5.0756,5.0197,4.9807,4.9128,4.8533,4.8131,4.7728,4.7549,4.7369,4.7135,4.7062,4.6931,4.6829,4.6785,4.6668,4.6624,4.6535,4.6403,4.6016,4.5446,4.473,4.3937,4.3511,4.3293,4.2909,4.2452,4.2012,6.2415,6.2415,6.2415,6.2415,6.2415,6.2415,6.2415,6.2415,6.2415,6.2415,6.2415,6.2415,6.2415,6.2076,6.0791,6.008,5.9844,5.8558,5.7881,5.7881,5.7881,5.7881,5.7881,5.7881,5.7137,5.5681,5.4296,5.3619,5.3518,5.3518,5.3518,5.3518,5.3518,5.3518,5.3518,5.3518,5.3518,5.3382,5.2773,5.2367,5.2232,5.1555,5.115,5.1082,5.1082,5.0845,5.0202,5.0744,5.105,5.1285,5.1826,5.2638,5.3179,5.3382,5.3484,5.3484,5.3518,5.3518,5.3518,5.3518,5.3518,5.3518,5.3551,5.3856,5.4363,5.4702,5.5241,5.6078,5.6443,5.6673,5.71,5.7089,5.6742,5.6121,5.6198,5.6453,5.6514,5.6614,5.6647,5.6547,5.6547,5.6647,5.668,5.6503,5.5975,5.5231,5.4841,5.4173,5.2849,5.2027,5.1369,5.0493,4.9691,4.901,4.8383,4.7788,4.7549,4.7339,4.7266,4.7179,4.7135,4.7048,4.6931,4.6887,4.6712,4.658,4.6447,4.5972,4.5972,4.531,4.4823,4.4359,4.4078,4.3673,4.3081,6.2415,6.2415,6.2415,6.2415,6.2415,6.2415,6.2415,6.2415,6.2415,6.2415,6.2415,6.2415,6.2415,6.2042,6.0791,6.008,5.9979,5.8592,5.7881,5.7881,5.7881,5.7881,5.7881,5.7881,5.7137,5.5784,5.4735,5.3991,5.3585,5.3518,5.3518,5.3518,5.3518,5.3518,5.3518,5.3518,5.3518,5.3484,5.3247,5.2909,5.2367,5.2097,5.1725,5.1286,5.1691,5.1826,5.1623,5.1386,5.1454,5.1928,5.2164,5.2672,5.3348,5.3518,5.3518,5.3518,5.3518,5.3518,5.3518,5.3518,5.3518,5.3585,5.3957,5.4296,5.4702,5.5547,5.6188,5.6759,5.7167,5.7569,5.7665,5.7588,5.723,5.6725,5.6816,5.6834,5.6719,5.668,5.668,5.668,5.668,5.668,5.668,5.668,5.6336,5.5595,5.5393,5.4906,5.3988,5.3481,5.2679,5.1506,5.0761,5.0042,4.934,4.8711,4.8306,4.7845,4.7549,4.7339,4.7266,4.7266,4.7149,4.7062,4.6931,4.68,4.6668,4.6535,4.6491,4.6403,4.5837,4.5537,4.5446,4.4915,4.4219,6.2415,6.2415,6.2415,6.2415,6.2415,6.2415,6.2415,6.2415,6.2415,6.2415,6.2415,6.2415,6.2212,6.1772,6.0655,5.9979,5.9607,5.8423,5.7881,5.7881,5.7881,5.7881,5.7814,5.7577,5.69,5.5784,5.4938,5.4228,5.3551,5.3518,5.3518,5.3518,5.3518,5.3518,5.3518,5.3518,5.3518,5.3518,5.3484,5.3247,5.2875,5.2739,5.2536,5.2165,5.2503,5.2706,5.2706,5.2267,5.2266,5.2672,5.2739,5.301,5.3484,5.3518,5.3518,5.3518,5.3518,5.3518,5.3518,5.3518,5.3653,5.3923,5.4329,5.4871,5.5378,5.6393,5.6833,5.7239,5.7611,5.7881,5.7881,5.7808,5.7551,5.7252,5.7139,5.7025,5.6834,5.6719,5.668,5.668,5.668,5.668,5.668,5.668,5.6525,5.5948,5.5829,5.5716,5.5067,5.4704,5.3798,5.2973,5.2371,5.1469,5.0391,4.97,4.9128,4.8487,4.7878,4.7549,4.7309,4.7309,4.7266,4.7222,4.7135,4.7092,4.6961,4.68,4.6712,4.6624,4.6535,4.6225,4.5927,4.5627,4.5081,6.2415,6.2415,6.2415,6.2415,6.2415,6.2415,6.2415,6.2415,6.2415,6.2415,6.2415,6.2415,6.2009,6.1298,6.0486,5.9742,5.8998,5.8287,5.7881,5.7881,5.7881,5.7881,5.7814,5.7374,5.6697,5.5852,5.5175,5.4397,5.3721,5.3687,5.3551,5.3518,5.3518,5.3518,5.3518,5.3518,5.3518,5.3518,5.3518,5.3484,5.3416,5.345,5.3416,5.3348,5.3382,5.3416,5.3382,5.3315,5.3382,5.3484,5.3416,5.3416,5.3518,5.3518,5.3518,5.3518,5.3518,5.3585,5.3585,5.3687,5.3957,5.46,5.4871,5.5277,5.6427,5.6833,5.7205,5.7679,5.7848,5.7881,5.7881,5.7881,5.7806,5.7692,5.7469,5.7176,5.7025,5.6834,5.6757,5.6719,5.668,5.668,5.668,5.668,5.668,5.6603,5.6564,5.6447,5.6297,5.5789,5.5434,5.4654,5.3712,5.2995,5.1896,5.1184,5.0593,4.9755,4.9008,4.838,4.7785,4.7638,4.7369,4.7339,4.7355,4.7326,4.7222,4.7048,4.6931,4.6887,4.6756,4.6535,4.6314,4.6061,4.5882,6.2415,6.2415,6.2415,6.2415,6.2415,6.2415,6.2415,6.2381,6.2454,6.2459,6.242,6.2415,6.198,6.1231,6.0452,5.9708,5.893,5.822,5.7881,5.7881,5.7881,5.7881,5.7881,5.7679,5.7205,5.6528,5.6156,5.5547,5.4397,5.4296,5.4059,5.3518,5.3551,5.3518,5.3518,5.3518,5.3518,5.3518,5.3518,5.3518,5.3518,5.3518,5.3518,5.3518,5.3518,5.3518,5.3518,5.3518,5.3518,5.3518,5.3518,5.3518,5.3518,5.3518,5.3518,5.3585,5.3551,5.3788,5.4194,5.4296,5.4668,5.5378,5.5818,5.6393,5.6731,5.7306,5.7645,5.7881,5.7881,5.7881,5.7881,5.7949,5.8115,5.8447,5.795,5.7386,5.7163,5.6949,5.6872,5.6719,5.6785,5.6785,5.6785,5.6713,5.668,5.668,5.668,5.668,5.6603,5.6492,5.6027,5.5474,5.475,5.422,5.3534,5.2817,5.209,5.1221,5.0428,4.9708,4.8994,4.8386,4.7878,4.7459,4.7668,4.7728,4.7489,4.7252,4.7222,4.7195,4.6975,4.6756,4.6712,4.6535,4.6403,6.2415,6.2415,6.2415,6.2415,6.2415,6.2415,6.2542,6.2813,6.2851,6.2889,6.2821,6.2514,6.1813,6.0757,5.9979,5.9235,5.8524,5.8084,5.7881,5.7881,5.7881,5.7881,5.7881,5.7881,5.7509,5.6867,5.6799,5.6122,5.5243,5.5074,5.4668,5.4126,5.3957,5.3822,5.3518,5.3518,5.3518,5.3518,5.3518,5.3518,5.3518,5.3518,5.3518,5.3518,5.3518,5.3518,5.3518,5.3518,5.3518,5.3518,5.3518,5.3518,5.3518,5.3518,5.3653,5.389,5.3957,5.4296,5.4871,5.5074,5.5412,5.6055,5.663,5.6934,5.7239,5.7679,5.7881,5.7881,5.7881,5.8051,5.8355,5.8626,5.8998,5.9299,5.8841,5.8383,5.8193,5.8146,5.8035,5.7853,5.7537,5.7299,5.7227,5.6989,5.6785,5.668,5.668,5.668,5.668,5.668,5.6597,5.6126,5.5708,5.5247,5.4773,5.4141,5.3492,5.2645,5.1563,5.0883,4.994,4.9179,4.8626,4.8207,4.8147,4.8027,4.7848,4.7668,4.7505,4.7461,4.7225,4.7078,4.702,4.7184,4.6993,6.2415,6.2415,6.2415,6.2415,6.242,6.2498,6.2889,6.342,6.342,6.3388,6.3147,6.2668,6.1579,6.0058,5.963,5.8773,5.8061,5.7988,5.7881,5.7881,5.7881,5.7881,5.7881,5.7881,5.7577,5.7103,5.6934,5.6528,5.5987,5.5818,5.5412,5.4837,5.4634,5.4228,5.3788,5.3585,5.3518,5.3518,5.3518,5.3518,5.3518,5.3518,5.3518,5.3518,5.3518,5.3518,5.3518,5.3518,5.3551,5.3653,5.3551,5.3585,5.3585,5.3653,5.4025,5.4566,5.4735,5.504,5.5683,5.5852,5.6156,5.6765,5.6934,5.7171,5.7679,5.7848,5.7881,5.7881,5.7881,5.822,5.8896,5.9641,6.0114,6.025,6.0178,6.0241,6.0054,5.9794,5.9538,5.9466,5.8675,5.8325,5.8014,5.7532,5.7017,5.7508,5.7409,5.7442,5.7342,5.721,5.7144,5.6894,5.6533,5.6297,5.5868,5.5369,5.4815,5.4052,5.2741,5.1768,5.0711,4.993,4.9539,4.9179,4.8775,4.8566,4.8446,4.8267,4.8087,4.8027,4.7969,4.7642,4.742,4.7673,4.7748,6.2415,6.2415,6.2415,6.2415,6.2498,6.3007,6.3311,6.3496,6.3531,6.3259,6.2705,6.2427,6.1528,6.0145,5.9905,5.9458,5.8667,5.8244,5.7881,5.7881,5.7881,5.7881,5.7881,5.7881,5.778,5.7611,5.7645,5.7239,5.6731,5.6528,5.619,5.5513,5.5006,5.4532,5.4296,5.3822,5.3518,5.3518,5.3518,5.3518,5.3518,5.3518,5.3518,5.3518,5.3518,5.3518,5.3518,5.3518,5.3788,5.4059,5.3923,5.389,5.4262,5.4363,5.4735,5.5277,5.548,5.5784,5.6393,5.6596,5.6867,5.7476,5.7577,5.7712,5.7814,5.7881,5.7881,5.7881,5.7881,5.8321,5.9167,6.0317,6.0892,6.1129,6.1467,6.1772,6.1593,6.0593,5.9895,5.9611,5.9399,5.9148,5.8991,5.8746,5.8462,5.8442,5.8369,5.8369,5.8138,5.7806,5.7674,5.7541,5.7303,5.702,5.6606,5.6112,5.5515,5.4943,5.3816,5.2887,5.1782,5.0909,5.0562,4.993,4.9269,4.9149,4.9134,4.909,4.8895,4.8835,4.8716,4.8521,4.8387,4.8507,4.8432,6.2928,6.2893,6.2928,6.2928,6.2928,6.3004,6.3348,6.3898,6.404,6.3799,6.3376,6.299,6.1946,6.0596,6.0214,5.9761,5.935,5.8668,5.8209,5.7991,5.7881,5.7881,5.7881,5.7881,5.7881,5.7881,5.7881,5.7611,5.7408,5.7239,5.6934,5.6292,5.5784,5.5243,5.4668,5.4194,5.3856,5.3551,5.3518,5.3518,5.3518,5.3518,5.3518,5.3518,5.3551,5.3619,5.3991,5.4025,5.4431,5.4803,5.4769,5.4702,5.5006,5.5141,5.5513,5.6055,5.6224,5.6562,5.7103,5.734,5.7476,5.7848,5.7881,5.7881,5.7881,5.7881,5.8084,5.8321,5.8524,5.8829,5.9979,6.1028,6.1704,6.1873,6.2144,6.2381,6.2245,6.1559,6.0969,6.0785,6.0505,6.0253,6.0035,5.9744,5.9285,5.8966,5.8741,5.8701,5.8668,5.8403,5.8403,5.827,5.8005,5.774,5.7309,5.6744,5.61,5.5474,5.4704,5.3902,5.3121,5.241,5.1723,5.1029,5.0306,4.9958,4.9912,4.9823,4.9629,4.9269,4.9149,4.9269,4.9224,4.906,4.9,6.3277,6.3174,6.3277,6.3383,6.342,6.3007,6.3503,6.4458,6.4596,6.4228,6.4037,6.3444,6.2198,6.1175,6.0477,6.016,5.9774,5.9214,5.8529,5.8209,5.7954,5.7918,5.7881,5.7881,5.7881,5.7881,5.7881,5.7814,5.7814,5.7848,5.7476,5.7002,5.6765,5.6122,5.5175,5.4769,5.4566,5.4126,5.389,5.3788,5.3687,5.3653,5.3551,5.3788,5.4025,5.4262,5.4668,5.4837,5.5108,5.5783,5.5886,5.5953,5.6021,5.5953,5.6224,5.69,5.6968,5.7205,5.7611,5.7814,5.7814,5.7881,5.7881,5.7983,5.8051,5.822,5.8524,5.8998,5.9404,5.9911,6.1163,6.1839,6.2245,6.2347,6.2381,6.2415,6.2415,6.2415,6.2206,6.2105,6.1582,6.1195,6.0869,6.0543,6.0017,5.9525,5.9226,5.9105,5.9072,5.8933,5.8866,5.8866,5.8634,5.8071,5.7608,5.7044,5.6402,5.5988,5.5353,5.4828,5.4232,5.3475,5.2741,5.2137,5.1577,5.1121,5.0771,5.0589,5.0259,4.9689,4.9673,5.0002,4.9883,4.9629,4.9659,6.2242,6.1694,6.2305,6.2893,6.3533,6.397,6.4249,6.4483,6.4444,6.3752,6.2729,6.2414,6.1955,6.1158,6.0944,6.0529,5.9966,5.9313,5.8841,5.8528,5.8137,5.7918,5.7881,5.7881,5.7881,5.7881,5.7881,5.7881,5.7881,5.7848,5.778,5.7543,5.7137,5.6562,5.6224,5.5886,5.5446,5.504,5.4668,5.4431,5.4329,5.4025,5.3957,5.4397,5.4837,5.5243,5.5446,5.5581,5.5886,5.6528,5.6596,5.6934,5.7137,5.6867,5.7002,5.7442,5.7611,5.7679,5.7848,5.7881,5.7881,5.7881,5.7949,5.8287,5.8626,5.8863,5.9201,5.9844,6.0486,6.1028,6.1264,6.1975,6.2313,6.2415,6.2415,6.2415,6.2415,6.2415,6.2347,6.2212,6.2071,6.1891,6.1397,6.1043,6.0617,6.0123,5.9764,5.9811,5.9978,5.9624,5.9278,5.9271,5.9231,5.8535,5.7873,5.7243,5.663,5.6408,5.5908,5.5515,5.4902,5.4317,5.3719,5.3502,5.2962,5.2317,5.191,5.1546,5.1334,5.1122,5.1015,5.0857,5.0755,5.0607,5.0571,6.1841,6.1947,6.2662,6.3163,6.3484,6.3798,6.395,6.389,6.3881,6.3453,6.2902,6.2637,6.2242,6.1666,6.1515,6.0986,6.0093,5.9676,5.9079,5.8493,5.8029,5.7881,5.7881,5.7881,5.7881,5.7881,5.7881,5.7881,5.7881,5.7881,5.7881,5.7814,5.7509,5.7205,5.6833,5.6461,5.6089,5.5784,5.5378,5.5175,5.5141,5.4769,5.4905,5.5175,5.5513,5.5886,5.6224,5.6292,5.663,5.7205,5.7374,5.7577,5.7645,5.7645,5.7509,5.7814,5.7881,5.7881,5.7881,5.7881,5.7881,5.7949,5.822,5.8592,5.8998,5.937,5.9945,6.0655,6.1366,6.1873,6.1907,6.2178,6.2347,6.2415,6.2415,6.2415,6.2415,6.2415,6.2245,6.2076,6.2144,6.193,6.1553,6.1267,6.1116,6.0757,6.0263,6.0351,6.0612,6.0291,5.9771,5.9823,5.9783,5.9212,5.8515,5.7852,5.7288,5.6933,5.6639,5.625,5.6025,5.5604,5.5474,5.5426,5.4653,5.3714,5.3209,5.2896,5.2723,5.2471,5.2168,5.188,5.1774,5.1681,5.1572,6.1496,6.1981,6.289,6.3299,6.3363,6.3363,6.3364,6.3296,6.331,6.3147,6.2964,6.2883,6.2557,6.2123,6.1868,6.1343,6.0254,6.0093,5.9281,5.8388,5.7991,5.7881,5.7881,5.7881,5.7881,5.7881,5.7881,5.7881,5.7881,5.7881,5.7881,5.7848,5.7881,5.7645,5.7137,5.707,5.6596,5.6325,5.5953,5.5919,5.5784,5.5852,5.5953,5.5952,5.6055,5.6494,5.6968,5.7036,5.7239,5.7645,5.7814,5.7848,5.7881,5.7881,5.7949,5.8051,5.7983,5.7949,5.8084,5.7915,5.8051,5.8558,5.8795,5.9099,5.9708,6.0317,6.0892,6.1467,6.1941,6.2313,6.2279,6.2381,6.2415,6.2415,6.2415,6.2415,6.2415,6.2347,6.2178,6.2144,6.2212,6.1839,6.1221,6.0951,6.0666,6.0521,6.0063,6.0214,6.0476,6.0598,6.0345,6.0424,6.031,5.9904,5.9299,5.8661,5.8163,5.7825,5.7634,5.7404,5.7278,5.714,5.7014,5.6751,5.618,5.5268,5.4751,5.4094,5.3589,5.3196,5.3064,5.2931,5.2798,5.2651,5.2471,6.0875,6.0497,6.1809,6.272,6.3231,6.3329,6.3268,6.3213,6.314,6.2791,6.2259,6.2186,6.215,6.2014,6.2041,6.1579,6.0897,6.0282,5.9611,5.8703,5.8244,5.7993,5.7954,5.7881,5.8065,5.8173,5.8065,5.7881,5.7954,5.7991,5.7881,5.7881,5.7881,5.7814,5.7645,5.7577,5.7712,5.7509,5.6968,5.6393,5.6055,5.6393,5.663,5.6833,5.7171,5.7476,5.7611,5.7611,5.7746,5.7814,5.7881,5.7881,5.7881,5.7881,5.8287,5.8457,5.8423,5.8186,5.866,5.8457,5.8558,5.9235,5.9438,5.9844,6.0622,6.1434,6.1941,6.2178,6.2347,6.2381,6.2415,6.2415,6.2415,6.2415,6.2415,6.2415,6.2415,6.2381,6.2212,6.1975,6.2009,6.1298,6.0583,6.0381,6.0178,6.0034,5.9991,6.0179,6.0371,6.0561,6.0952,6.1066,6.0912,6.0465,6.0024,5.9385,5.8985,5.8646,5.8462,5.8343,5.821,5.8084,5.8038,5.7668,5.7182,5.6678,5.6001,5.5246,5.4401,5.4062,5.403,5.3976,5.3848,5.3664,5.3346,6.0593,6.0766,6.1803,6.2355,6.2633,6.3059,6.2983,6.2566,6.2512,6.2331,6.2078,6.2041,6.2041,6.2041,6.2041,6.1636,6.1045,6.0686,5.9899,5.9078,5.8599,5.8458,5.8493,5.8528,5.8564,5.8978,5.9046,5.8841,5.8563,5.8065,5.7881,5.7881,5.7881,5.7881,5.7881,5.7881,5.7881,5.7746,5.7543,5.7273,5.7103,5.7239,5.7408,5.7408,5.7712,5.7848,5.7881,5.7881,5.7881,5.7881,5.7881,5.7881,5.7881,5.7949,5.822,5.8896,5.8727,5.8896,5.9438,5.9268,5.9573,5.9979,6.025,6.0858,6.1738,6.2178,6.2415,6.2381,6.2381,6.2415,6.2415,6.2415,6.2415,6.2415,6.2415,6.2415,6.2381,6.2347,6.2245,6.2009,6.1772,6.1197,6.0757,6.0791,6.0554,6.011,6.0106,6.0304,6.0425,6.0583,6.111,6.1709,6.1455,6.11,6.0625,6.0117,5.9716,5.9376,5.9052,5.8973,5.8927,5.882,5.8847,5.8668,5.8269,5.773,5.7175,5.6515,5.5759,5.5433,5.5108,5.5136,5.5015,5.4274,5.3974,6.0413,6.1132,6.1848,6.2116,6.2116,6.2679,6.2585,6.2078,6.2041,6.2041,6.2041,6.2041,6.2041,6.2041,6.195,6.1636,6.1016,6.1016,6.0246,5.9478,5.9045,5.9011,5.9045,5.9113,5.9212,5.9998,5.9774,5.9447,5.8875,5.8458,5.8137,5.7918,5.7881,5.7881,5.7881,5.7881,5.7881,5.7848,5.7848,5.778,5.778,5.778,5.7848,5.7848,5.7881,5.7881,5.7881,5.7881,5.7881,5.7881,5.7881,5.7949,5.8186,5.8321,5.8829,5.9505,5.9708,6.0013,6.0351,6.0351,6.0385,6.0723,6.1095,6.1704,6.2144,6.2415,6.2415,6.2415,6.2415,6.2415,6.2415,6.2415,6.2415,6.2415,6.2415,6.2415,6.2415,6.2381,6.2347,6.2212,6.1941,6.1637,6.1366,6.1467,6.1095,6.0351,6.025,6.0419,6.0714,6.0969,6.1408,6.211,6.1969,6.1682,6.1407,6.093,6.0561,6.0242,5.9883,5.9758,5.9885,5.9764,5.9683,5.951,5.9238,5.8753,5.8148,5.7648,5.7204,5.704,5.6849,5.6572,5.6189,5.5384,5.5207,6.041,6.1058,6.1744,6.2004,6.2004,6.2087,6.205,6.2041,6.2041,6.2041,6.2041,6.2041,6.2041,6.2041,6.195,6.1664,6.1045,6.1016,6.056,5.9899,5.9313,5.9478,5.9611,5.9543,5.9445,6.0062,6.0282,5.9835,5.9112,5.9045,5.8493,5.7991,5.7954,5.7918,5.7881,5.7881,5.7881,5.7881,5.7881,5.7881,5.7881,5.7881,5.7881,5.7915,5.7881,5.7881,5.7881,5.8051,5.8152,5.8186,5.822,5.8423,5.8829,5.893,5.9539,6.0419,6.0757,6.1129,6.1501,6.1095,6.1028,6.1738,6.2212,6.2212,6.2381,6.2415,6.2415,6.2415,6.2415,6.2415,6.2415,6.2415,6.2415,6.2415,6.2415,6.2415,6.2415,6.2415,6.2381,6.2313,6.2144,6.1907,6.1839,6.1907,6.1704,6.0994,6.1061,6.1264,6.1603,6.1863,6.2003,6.2341,6.2341,6.2234,6.2234,6.1852,6.143,6.1245,6.1059,6.0993,6.1106,6.0917,6.0503,6.0329,6.0023,5.9577,5.9271,5.9093,5.8893,5.8774,5.8514,5.7844,5.7738,5.7348,5.7479,6.0156,6.0468,6.1551,6.2041,6.2041,6.2041,6.2041,6.2041,6.2041,6.2041,6.2041,6.2041,6.2041,6.2041,6.1978,6.1895,6.1636,6.1636,6.1198,6.0777,6.0406,6.0406,6.0468,6.0468,6.056,6.1045,6.1133,6.0861,6.0278,5.9706,5.9146,5.8633,5.8171,5.7918,5.7881,5.7881,5.7881,5.7881,5.7881,5.7881,5.7881,5.7881,5.7881,5.7881,5.8457,5.8558,5.866,5.9066,5.9201,5.9201,5.9167,5.937,5.9607,5.9674,6.025,6.1197,6.1366,6.1738,6.2212,6.1806,6.1873,6.2076,6.2381,6.2415,6.2448,6.2415,6.2415,6.2415,6.2415,6.2415,6.2415,6.2415,6.2415,6.2415,6.2415,6.2415,6.2415,6.2415,6.2381,6.2347,6.2347,6.2279,6.2279,6.2347,6.2042,6.1738,6.1907,6.2042,6.2279,6.2415,6.2415,6.2415,6.2415,6.2415,6.2381,6.2302,6.2229,6.215,6.1997,6.187,6.1709,6.1595,6.1213,6.1065,6.0958,6.0691,6.0558,6.0631,6.0317,5.9664,5.9179,5.876,5.8793,5.9032,5.9164,5.9998,6.0156,6.143,6.2041,6.2041,6.2041,6.2041,6.2041,6.2041,6.2041,6.2041,6.2041,6.2041,6.2041,6.1978,6.1978,6.195,6.1923,6.1692,6.1343,6.1045,6.1133,6.1163,6.1133,6.1133,6.1868,6.195,6.1572,6.0831,6.0282,5.9741,5.9148,5.8557,5.8228,5.7881,5.7881,5.7881,5.7881,5.8152,5.822,5.8254,5.849,5.8626,5.8693,5.9133,5.9302,5.9404,5.9674,5.9877,5.9945,5.9979,6.0182,6.0351,6.0554,6.0892,6.1332,6.1704,6.1907,6.2245,6.2381,6.2482,6.2753,6.2482,6.255,6.2618,6.2516,6.2415,6.2415,6.2415,6.2415,6.2415,6.2415,6.2415,6.2415,6.2415,6.2415,6.2415,6.2415,6.2415,6.2381,6.2415,6.2415,6.2415,6.2415,6.2347,6.211,6.2144,6.2212,6.2313,6.2415,6.2415,6.2415,6.2415,6.2415,6.2415,6.2341,6.2302,6.2302,6.2189,6.211,6.1951,6.187,6.175,6.1494,6.142,6.1635,6.1535,6.126,6.0738,6.0111,5.9864,5.975,5.9827,6.0026,5.9893,5.9998,6.0156,6.143,6.2041,6.2041,6.2041,6.2041,6.2041,6.2041,6.2041,6.2041,6.2041,6.2041,6.2041,6.2041,6.2041,6.2041,6.2041,6.1923,6.1748,6.1401,6.1458,6.1551,6.1551,6.1458,6.1895,6.1987,6.1664,6.1182,6.0711,6.0234,6.003,5.9598,5.8838,5.8019,5.7949,5.7949,5.8017,5.8693,5.893,5.9099,5.9505,5.9641,5.9742,5.9945,6.008,6.0182,6.0385,6.0588,6.0554,6.052,6.0757,6.1197,6.1264,6.1603,6.2144,6.2245,6.2347,6.2415,6.2415,6.2651,6.299,6.2618,6.2584,6.3024,6.2854,6.2415,6.2415,6.2516,6.2516,6.2448,6.2516,6.2651,6.2719,6.2787,6.2821,6.2888,6.2922,6.3024,6.2821,6.255,6.2415,6.2415,6.2415,6.2482,6.2448,6.2415,6.2415,6.2448,6.2448,6.2448,6.2584,6.2618,6.2821,6.2821,6.2482,6.2381,6.2381,6.2375,6.233,6.2217,6.2171,6.1978,6.1823,6.179,6.1911,6.183,6.1676,6.1267,6.0959,6.1024,6.0968,6.1011,6.0854,6.063,5.9998,6.0125,6.143,6.2041,6.2041,6.2041,6.2041,6.2041,6.2041,6.2041,6.2041,6.2041,6.2041,6.2041,6.2041,6.2041,6.2041,6.2041,6.2041,6.195,6.1692,6.1812,6.1868,6.1812,6.1748,6.1923,6.2014,6.2285,6.2522,6.1711,6.1854,6.1863,6.1015,6.013,5.9553,5.937,5.937,5.9404,5.9641,5.9742,5.9776,6.0013,6.0182,6.0216,6.0655,6.0858,6.0926,6.1197,6.14,6.1434,6.14,6.1637,6.1907,6.1975,6.211,6.2381,6.2415,6.2415,6.2415,6.2415,6.2482,6.2685,6.2719,6.2618,6.2719,6.2584,6.2415,6.2584,6.2956,6.3057,6.3159,6.3666,6.3869,6.3937,6.4005,6.4005,6.4038,6.4005,6.3971,6.3497,6.3159,6.2821,6.2685,6.3024,6.3125,6.299,6.2956,6.2719,6.2651,6.2584,6.255,6.2821,6.299,6.326,6.3294,6.3091,6.3226,6.3497,6.3091,6.2612,6.2539,6.2634,6.2493,6.2441,6.2312,6.2183,6.234,6.2394,6.2091,6.1917,6.1977,6.1673,6.1309,6.1193,6.1119,6.0125,6.0503,6.1551,6.2041,6.2041,6.2041,6.2041,6.2041,6.2041,6.2041,6.2041,6.2041,6.2041,6.2041,6.2041,6.2041,6.2041,6.2041,6.2041,6.2041,6.1978,6.1978,6.1978,6.2041,6.195,6.2078,6.2367,6.2702,6.3044,6.2778,6.2826,6.2917,6.2738,6.2301,6.1595,6.0981,5.9979,6.0047,6.0216,6.052,6.0622,6.0791,6.096,6.1129,6.14,6.167,6.1806,6.2076,6.2415,6.2415,6.2415,6.2415,6.2415,6.2415,6.2415,6.2415,6.2685,6.2753,6.2821,6.3193,6.3328,6.3362,6.2956,6.3057,6.326,6.3497,6.3362,6.3429,6.3632,6.3802,6.4005,6.458,6.4647,6.4715,6.4681,6.4681,6.4647,6.458,6.4512,6.4038,6.3768,6.3429,6.3226,6.3565,6.3903,6.37,6.3531,6.3294,6.3091,6.3057,6.3125,6.3396,6.3599,6.3869,6.3937,6.3768,6.4038,6.4512,6.4005,6.326,6.3429,6.3626,6.3362,6.3125,6.3254,6.3316,6.3254,6.3187,6.3107,6.302,6.2952,6.2446,6.1714,6.1565,6.1658,6.0375,6.1045,6.172,6.2041,6.2041,6.2041,6.2041,6.2041,6.2041,6.2041,6.2041,6.2041,6.2041,6.2041,6.2041,6.2041,6.2041,6.2041,6.2041,6.2041,6.2041,6.2041,6.2041,6.2041,6.2041,6.2295,6.2657,6.3056,6.3253,6.3847,6.3957,6.3931,6.4205,6.406,6.3345,6.222,6.1121,6.1289,6.1528,6.1726,6.1715,6.2004,6.2063,6.2087,6.2144,6.2212,6.2245,6.2347,6.2415,6.2415,6.2415,6.2415,6.2415,6.2415,6.2415,6.2651,6.3159,6.3328,6.3632,6.4038,6.4377,6.4309,6.3971,6.4512,6.4647,6.4444,6.4174,6.4208,6.4444,6.4546,6.4749,6.485,6.4986,6.4986,6.4986,6.4952,6.4952,6.4918,6.485,6.4647,6.4512,6.4275,6.4208,6.4444,6.4647,6.4647,6.4613,6.4783,6.4546,6.4072,6.4174,6.4377,6.4512,6.4546,6.4546,6.4512,6.4783,6.5256,6.4715,6.414,6.441,6.4444,6.4072,6.3971,6.4343,6.4377,6.4005,6.4072,6.4309,6.4146,6.3788,6.3396,6.2695,6.2386,6.2345,6.0375,6.1045,6.172,6.2041,6.2041,6.2041,6.2041,6.2041,6.2041,6.2041,6.2041,6.2041,6.2041,6.2041,6.2041,6.2041,6.2041,6.2041,6.2041,6.2041,6.2041,6.2041,6.2041,6.2041,6.2041,6.2295,6.2802,6.3563,6.4251,6.4967,6.5665,6.5904,6.5426,6.5387,6.4926,6.3972,6.345,6.3134,6.3307,6.305,6.2896,6.3059,6.2966,6.2654,6.2498,6.2498,6.2454,6.2415,6.2415,6.2415,6.2415,6.2415,6.2415,6.2415,6.2516,6.3159,6.3497,6.37,6.4174,6.4478,6.485,6.529,6.5121,6.485,6.4952,6.4918,6.4783,6.4986,6.5222,6.5358,6.5493,6.5595,6.573,6.5797,6.5797,6.5797,6.5764,6.5764,6.5662,6.5392,6.5222,6.5019,6.4986,6.5222,6.5392,6.5527,6.5662,6.5865,6.5797,6.529,6.5121,6.529,6.5256,6.5256,6.5358,6.5358,6.5628,6.5831,6.5358,6.5053,6.5155,6.5121,6.4783,6.4749,6.5019,6.4884,6.4512,6.4715,6.5087,6.4715,6.4356,6.4072,6.3747,6.347,6.3221,6.0529,6.1401,6.184,6.2041,6.2041,6.2041,6.2041,6.2041,6.2041,6.2041,6.2041,6.2041,6.2041,6.2041,6.2041,6.2041,6.2041,6.2041,6.2041,6.2041,6.2041,6.2041,6.2041,6.2041,6.2041,6.2367,6.3056,6.3961,6.4794,6.5881,6.6757,6.6595,6.6264,6.6172,6.5914,6.5621,6.5497,6.5136,6.4872,6.4393,6.4112,6.3897,6.3459,6.2966,6.2813,6.262,6.2454,6.2415,6.2415,6.2415,6.2415,6.2584,6.2821,6.3091,6.3362,6.3971,6.4343,6.4613,6.5019,6.5425,6.573,6.5967,6.6102,6.5933,6.5764,6.573,6.5662,6.573,6.5967,6.617,6.6339,6.6474,6.6643,6.6779,6.6779,6.6779,6.6779,6.6745,6.6508,6.617,6.5899,6.5696,6.573,6.5967,6.6136,6.6203,6.6271,6.6406,6.6406,6.6136,6.6,6.6102,6.5967,6.5865,6.6,6.6068,6.6203,6.6305,6.617,6.5967,6.6,6.5933,6.5764,6.5628,6.5628,6.5493,6.5425,6.5527,6.5696,6.5392,6.529,6.5309,6.499,6.445,6.4267,6.0777,6.1978,6.2041,6.2041,6.2041,6.2041,6.2041,6.2041,6.2041,6.2041,6.2041,6.2041,6.2041,6.2041,6.2041,6.2041,6.2041,6.2041,6.2041,6.2041,6.2041,6.2041,6.2041,6.2041,6.2041,6.2549,6.3418,6.4468,6.5011,6.6025,6.6822,6.6822,6.6727,6.6638,6.6578,6.6548,6.6361,6.6202,6.5601,6.4974,6.4738,6.4566,6.4253,6.357,6.3271,6.3007,6.2576,6.2415,6.2415,6.2448,6.2618,6.2922,6.3565,6.4038,6.4377,6.4749,6.5121,6.5459,6.5797,6.617,6.6474,6.6677,6.6812,6.6609,6.6406,6.6339,6.6305,6.6305,6.6474,6.6508,6.6609,6.6643,6.6779,6.6812,6.6812,6.6812,6.6812,6.6812,6.6711,6.6474,6.644,6.6237,6.6271,6.6474,6.644,6.6677,6.6745,6.6812,6.6779,6.6609,6.6609,6.6643,6.6474,6.6339,6.6474,6.6542,6.6643,6.6711,6.6643,6.6609,6.644,6.6576,6.6779,6.6474,6.617,6.644,6.6508,6.6406,6.6305,6.6339,6.6373,6.6609,6.6263,6.5519,6.5343,6.0777,6.1978,6.2041,6.2041,6.2041,6.2041,6.2041,6.2041,6.2041,6.2041,6.2041,6.2041,6.2041,6.2041,6.2041,6.2041,6.2041,6.2041,6.2041,6.2041,6.2041,6.2041,6.2041,6.2041,6.2041,6.2521,6.3526,6.4975,6.5917,6.6569,6.6822,6.6822,6.6822,6.6822,6.6822,6.6822,6.6757,6.6727,6.6264,6.5633,6.5338,6.4772,6.4253,6.357,6.3158,6.2808,6.2488,6.2448,6.2787,6.3091,6.3226,6.3666,6.4309,6.4546,6.4918,6.5324,6.5662,6.6,6.6339,6.6643,6.6779,6.6812,6.6812,6.6812,6.6812,6.6812,6.6812,6.6812,6.6812,6.6812,6.6812,6.6812,6.6812,6.6812,6.6812,6.6812,6.6812,6.6812,6.6812,6.6812,6.6812,6.6812,6.6812,6.6812,6.6812,6.6812,6.6812,6.6812,6.6812,6.6745,6.6711,6.6745,6.6779,6.6711,6.6812,6.6812,6.6812,6.6812,6.6745,6.6779,6.6812,6.6812,6.6812,6.6812,6.6745,6.6812,6.6812,6.6779,6.6745,6.6812,6.6812,6.6812,6.6812,6.6229,6.6305,6.0777,6.195,6.2041,6.2041,6.2041,6.2041,6.2041,6.2041,6.2041,6.2041,6.2041,6.2041,6.2041,6.2041,6.2041,6.2041,6.2041,6.2041,6.2041,6.2041,6.2041,6.2041,6.2041,6.2041,6.2041,6.244,6.3708,6.512,6.6569,6.6822,6.6822,6.6822,6.6822,6.6822,6.6822,6.6822,6.6822,6.6793,6.6512,6.611,6.5697,6.5174,6.4703,6.4005,6.3383,6.2987,6.2894,6.2922,6.3328,6.3937,6.4309,6.4613,6.5121,6.5493,6.5797,6.6068,6.6271,6.6373,6.6677,6.6812,6.6812,6.6812,6.6812,6.6812,6.6812,6.6812,6.6812,6.6812,6.6812,6.6812,6.6812,6.6812,6.6812,6.6812,6.6812,6.6812,6.6812,6.6812,6.6812,6.6812,6.6812,6.6812,6.6812,6.6812,6.6812,6.6812,6.6812,6.6812,6.6812,6.6812,6.6812,6.6812,6.6812,6.6812,6.6812,6.6812,6.6812,6.6812,6.6812,6.6812,6.6812,6.6812,6.6812,6.6812,6.6812,6.6812,6.6812,6.6812,6.6812,6.6812,6.6812,6.6812,6.6812,6.6812,6.6745,6.0777,6.1923,6.2041,6.2041,6.2041,6.2041,6.2041,6.2041,6.2041,6.2041,6.2041,6.2041,6.2041,6.2041,6.2041,6.2041,6.2041,6.2041,6.2041,6.2041,6.2041,6.2041,6.2041,6.2041,6.2259,6.2911,6.4106,6.541,6.675,6.6822,6.6822,6.6822,6.6822,6.6822,6.6822,6.6822,6.6822,6.6638,6.633,6.5855,6.5665,6.5468,6.4839,6.4288,6.3891,6.3559,6.3493,6.37,6.4038,6.4715,6.5324,6.5662,6.5899,6.6237,6.644,6.6643,6.6643,6.6711,6.6812,6.6812,6.6812,6.6812,6.6812,6.6812,6.6812,6.6812,6.6812,6.6812,6.6812,6.6812,6.6812,6.6812,6.6812,6.6812,6.6812,6.6812,6.6812,6.6812,6.6812,6.6812,6.6812,6.6812,6.6812,6.6812,6.6812,6.6812,6.6846,6.6812,6.6812,6.6812,6.6812,6.6812,6.6812,6.6812,6.6812,6.6812,6.6812,6.6812,6.6812,6.6812,6.6812,6.6812,6.6812,6.6812,6.6812,6.6812,6.6812,6.6812,6.6812,6.688,6.6812,6.6812,6.6812,6.6812,6.6812,6.0777,6.2014,6.2041,6.2041,6.2041,6.2041,6.2041,6.2041,6.2041,6.2041,6.2041,6.2041,6.2041,6.2041,6.2041,6.2041,6.2041,6.2041,6.2041,6.2041,6.2041,6.2041,6.2078,6.2223,6.2875,6.3744,6.4722,6.5808,6.6714,6.6822,6.6822,6.6822,6.6822,6.6822,6.6822,6.6822,6.6793,6.6578,6.6172,6.5697,6.5341,6.4873,6.4004,6.3664,6.3585,6.3537,6.3632,6.4106,6.4749,6.5459,6.6102,6.6406,6.6542,6.6643,6.6779,6.6812,6.6812,6.6812,6.6812,6.6812,6.6812,6.6812,6.6812,6.6812,6.6812,6.6812,6.6812,6.6812,6.6812,6.6812,6.6812,6.6812,6.6812,6.6812,6.6812,6.6812,6.6812,6.6812,6.6812,6.6812,6.6812,6.6812,6.6812,6.6812,6.6812,6.6846,6.6948,6.6948,6.7049,6.6948,6.6948,6.7015,6.7083,6.6812,6.6812,6.6812,6.6812,6.6812,6.6981,6.7252,6.7252,6.6846,6.6846,6.7015,6.6914,6.6812,6.6812,6.6914,6.6981,6.7015,6.688,6.6812,6.688,6.7049,6.7252]}]]